﻿<?xml version="1.0" encoding="utf-8"?><gpx creator="Garmin Desktop App" version="1.1" xsi:schemaLocation="http://www.topografix.com/GPX/1/1 http://www.topografix.com/GPX/1/1/gpx.xsd http://www.garmin.com/xmlschemas/WaypointExtension/v1 http://www8.garmin.com/xmlschemas/WaypointExtensionv1.xsd http://www.garmin.com/xmlschemas/TrackPointExtension/v1 http://www.garmin.com/xmlschemas/TrackPointExtensionv1.xsd http://www.garmin.com/xmlschemas/GpxExtensions/v3 http://www8.garmin.com/xmlschemas/GpxExtensionsv3.xsd http://www.garmin.com/xmlschemas/ActivityExtension/v1 http://www8.garmin.com/xmlschemas/ActivityExtensionv1.xsd http://www.garmin.com/xmlschemas/AdventuresExtensions/v1 http://www8.garmin.com/xmlschemas/AdventuresExtensionv1.xsd http://www.garmin.com/xmlschemas/PressureExtension/v1 http://www.garmin.com/xmlschemas/PressureExtensionv1.xsd http://www.garmin.com/xmlschemas/TripExtensions/v1 http://www.garmin.com/xmlschemas/TripExtensionsv1.xsd http://www.garmin.com/xmlschemas/TripMetaDataExtensions/v1 http://www.garmin.com/xmlschemas/TripMetaDataExtensionsv1.xsd http://www.garmin.com/xmlschemas/ViaPointTransportationModeExtensions/v1 http://www.garmin.com/xmlschemas/ViaPointTransportationModeExtensionsv1.xsd http://www.garmin.com/xmlschemas/CreationTimeExtension/v1 http://www.garmin.com/xmlschemas/CreationTimeExtensionsv1.xsd http://www.garmin.com/xmlschemas/AccelerationExtension/v1 http://www.garmin.com/xmlschemas/AccelerationExtensionv1.xsd http://www.garmin.com/xmlschemas/PowerExtension/v1 http://www.garmin.com/xmlschemas/PowerExtensionv1.xsd http://www.garmin.com/xmlschemas/VideoExtension/v1 http://www.garmin.com/xmlschemas/VideoExtensionv1.xsd" xmlns="http://www.topografix.com/GPX/1/1" xmlns:xsi="http://www.w3.org/2001/XMLSchema-instance" xmlns:wptx1="http://www.garmin.com/xmlschemas/WaypointExtension/v1" xmlns:gpxtrx="http://www.garmin.com/xmlschemas/GpxExtensions/v3" xmlns:gpxtpx="http://www.garmin.com/xmlschemas/TrackPointExtension/v1" xmlns:gpxx="http://www.garmin.com/xmlschemas/GpxExtensions/v3" xmlns:trp="http://www.garmin.com/xmlschemas/TripExtensions/v1" xmlns:adv="http://www.garmin.com/xmlschemas/AdventuresExtensions/v1" xmlns:prs="http://www.garmin.com/xmlschemas/PressureExtension/v1" xmlns:tmd="http://www.garmin.com/xmlschemas/TripMetaDataExtensions/v1" xmlns:vptm="http://www.garmin.com/xmlschemas/ViaPointTransportationModeExtensions/v1" xmlns:ctx="http://www.garmin.com/xmlschemas/CreationTimeExtension/v1" xmlns:gpxacc="http://www.garmin.com/xmlschemas/AccelerationExtension/v1" xmlns:gpxpx="http://www.garmin.com/xmlschemas/PowerExtension/v1" xmlns:vidx1="http://www.garmin.com/xmlschemas/VideoExtension/v1">

  <metadata>
    <link href="http://www.garmin.com">
      <text>Garmin International</text>
    </link>
    <time>2023-10-09T05:23:11Z</time>
    <bounds maxlat="45.896117398515344" maxlon="7.759156096726656" minlat="45.859258314594626" minlon="7.727263458073139" />
  </metadata>

  <trk>
    <name>lago blu2023-10-08</name>
    <extensions>
      <gpxx:TrackExtension>
        <gpxx:DisplayColor>Yellow</gpxx:DisplayColor>
      </gpxx:TrackExtension>
    </extensions>
    <trkseg>
      <trkpt lat="45.859285052865744" lon="7.730720490217209">
        <ele>1685.7</ele>
        <time>2023-10-08T07:23:47Z</time>
      </trkpt>
      <trkpt lat="45.859284130856395" lon="7.730747144669294">
        <ele>1686.1300000000001</ele>
        <time>2023-10-08T07:24:00Z</time>
      </trkpt>
      <trkpt lat="45.85928094573319" lon="7.730781929567456">
        <ele>1685.02</ele>
        <time>2023-10-08T07:26:05Z</time>
      </trkpt>
      <trkpt lat="45.85928195156157" lon="7.730796178802848">
        <ele>1684.77</ele>
        <time>2023-10-08T07:26:21Z</time>
      </trkpt>
      <trkpt lat="45.859295781701803" lon="7.730856193229556">
        <ele>1685.03</ele>
        <time>2023-10-08T07:28:05Z</time>
      </trkpt>
      <trkpt lat="45.85934741422534" lon="7.730903970077634">
        <ele>1685.4200000000001</ele>
        <time>2023-10-08T07:28:14Z</time>
      </trkpt>
      <trkpt lat="45.859388317912817" lon="7.730930121615529">
        <ele>1685.6099999999999</ele>
        <time>2023-10-08T07:28:20Z</time>
      </trkpt>
      <trkpt lat="45.859414553269744" lon="7.730960547924042">
        <ele>1685.8299999999999</ele>
        <time>2023-10-08T07:28:24Z</time>
      </trkpt>
      <trkpt lat="45.85946811363101" lon="7.731020310893655">
        <ele>1686.8399999999999</ele>
        <time>2023-10-08T07:28:33Z</time>
      </trkpt>
      <trkpt lat="45.859507592394948" lon="7.73103816434741">
        <ele>1687</ele>
        <time>2023-10-08T07:28:43Z</time>
      </trkpt>
      <trkpt lat="45.859560817480087" lon="7.731099100783467">
        <ele>1687.74</ele>
        <time>2023-10-08T07:28:49Z</time>
      </trkpt>
      <trkpt lat="45.859653186053038" lon="7.731154756620526">
        <ele>1688.9000000000001</ele>
        <time>2023-10-08T07:29:01Z</time>
      </trkpt>
      <trkpt lat="45.859731389209628" lon="7.73122969083488">
        <ele>1689.8599999999999</ele>
        <time>2023-10-08T07:29:12Z</time>
      </trkpt>
      <trkpt lat="45.859779333695769" lon="7.731253579258919">
        <ele>1690.24</ele>
        <time>2023-10-08T07:29:23Z</time>
      </trkpt>
      <trkpt lat="45.859784530475736" lon="7.731274198740721">
        <ele>1691.1300000000001</ele>
        <time>2023-10-08T07:29:29Z</time>
      </trkpt>
      <trkpt lat="45.859821662306786" lon="7.731296243146062">
        <ele>1690.28</ele>
        <time>2023-10-08T07:29:35Z</time>
      </trkpt>
      <trkpt lat="45.859866254031658" lon="7.73132692091167">
        <ele>1690.75</ele>
        <time>2023-10-08T07:29:39Z</time>
      </trkpt>
      <trkpt lat="45.860001789405942" lon="7.731398921459913">
        <ele>1692.4300000000001</ele>
        <time>2023-10-08T07:29:51Z</time>
      </trkpt>
      <trkpt lat="45.860078819096088" lon="7.731432113796473">
        <ele>1693.45</ele>
        <time>2023-10-08T07:29:58Z</time>
      </trkpt>
      <trkpt lat="45.860200021415949" lon="7.731501180678606">
        <ele>1695.01</ele>
        <time>2023-10-08T07:30:08Z</time>
      </trkpt>
      <trkpt lat="45.860298592597246" lon="7.731440160423517">
        <ele>1696.5999999999999</ele>
        <time>2023-10-08T07:30:20Z</time>
      </trkpt>
      <trkpt lat="45.860392386093736" lon="7.731383163481951">
        <ele>1697.99</ele>
        <time>2023-10-08T07:30:32Z</time>
      </trkpt>
      <trkpt lat="45.860491376370192" lon="7.731316275894642">
        <ele>1699.29</ele>
        <time>2023-10-08T07:30:44Z</time>
      </trkpt>
      <trkpt lat="45.860578715801239" lon="7.731266571208835">
        <ele>1700.05</ele>
        <time>2023-10-08T07:30:54Z</time>
      </trkpt>
      <trkpt lat="45.860605202615261" lon="7.731275456026197">
        <ele>1700.24</ele>
        <time>2023-10-08T07:30:57Z</time>
      </trkpt>
      <trkpt lat="45.86072682403028" lon="7.731202952563763">
        <ele>1701.4200000000001</ele>
        <time>2023-10-08T07:31:10Z</time>
      </trkpt>
      <trkpt lat="45.860824724659324" lon="7.7311544213444">
        <ele>1702.22</ele>
        <time>2023-10-08T07:31:21Z</time>
      </trkpt>
      <trkpt lat="45.860934359952807" lon="7.731125839054585">
        <ele>1703.5699999999999</ele>
        <time>2023-10-08T07:31:34Z</time>
      </trkpt>
      <trkpt lat="45.860963948071003" lon="7.731130365282297">
        <ele>1703.6500000000001</ele>
        <time>2023-10-08T07:31:38Z</time>
      </trkpt>
      <trkpt lat="45.860996302217245" lon="7.731132712215185">
        <ele>1703.5799999999999</ele>
        <time>2023-10-08T07:31:41Z</time>
      </trkpt>
      <trkpt lat="45.861142482608557" lon="7.731144614517689">
        <ele>1704.8499999999999</ele>
        <time>2023-10-08T07:31:54Z</time>
      </trkpt>
      <trkpt lat="45.861187996342778" lon="7.731141094118357">
        <ele>1705.22</ele>
        <time>2023-10-08T07:31:58Z</time>
      </trkpt>
      <trkpt lat="45.861229822039604" lon="7.731128521263599">
        <ele>1705.5</ele>
        <time>2023-10-08T07:32:02Z</time>
      </trkpt>
      <trkpt lat="45.86137767881155" lon="7.731049479916692">
        <ele>1706.3800000000001</ele>
        <time>2023-10-08T07:32:17Z</time>
      </trkpt>
      <trkpt lat="45.861505251377821" lon="7.730977395549417">
        <ele>1707.1199999999999</ele>
        <time>2023-10-08T07:32:29Z</time>
      </trkpt>
      <trkpt lat="45.861593764275312" lon="7.730917716398835">
        <ele>1707.8299999999999</ele>
        <time>2023-10-08T07:32:38Z</time>
      </trkpt>
      <trkpt lat="45.861762911081314" lon="7.730853594839573">
        <ele>1708.1500000000001</ele>
        <time>2023-10-08T07:32:54Z</time>
      </trkpt>
      <trkpt lat="45.861797779798508" lon="7.730849571526051">
        <ele>1708.1400000000001</ele>
        <time>2023-10-08T07:32:57Z</time>
      </trkpt>
      <trkpt lat="45.861944127827883" lon="7.73084320127964">
        <ele>1708</ele>
        <time>2023-10-08T07:33:09Z</time>
      </trkpt>
      <trkpt lat="45.862087458372116" lon="7.730820151045919">
        <ele>1707.73</ele>
        <time>2023-10-08T07:33:22Z</time>
      </trkpt>
      <trkpt lat="45.862097935751081" lon="7.730814283713698">
        <ele>1707.78</ele>
        <time>2023-10-08T07:33:23Z</time>
      </trkpt>
      <trkpt lat="45.862215450033545" lon="7.730765584856272">
        <ele>1707.96</ele>
        <time>2023-10-08T07:33:34Z</time>
      </trkpt>
      <trkpt lat="45.862296754494309" lon="7.730721328407526">
        <ele>1708.1700000000001</ele>
        <time>2023-10-08T07:33:41Z</time>
      </trkpt>
      <trkpt lat="45.862318463623524" lon="7.730702552944422">
        <ele>1708.21</ele>
        <time>2023-10-08T07:33:43Z</time>
      </trkpt>
      <trkpt lat="45.862458441406488" lon="7.730616051703692">
        <ele>1708.3</ele>
        <time>2023-10-08T07:33:56Z</time>
      </trkpt>
      <trkpt lat="45.862523904070258" lon="7.730567855760455">
        <ele>1708.3800000000001</ele>
        <time>2023-10-08T07:34:03Z</time>
      </trkpt>
      <trkpt lat="45.862539410591125" lon="7.730558970943093">
        <ele>1708.71</ele>
        <time>2023-10-08T07:34:12Z</time>
      </trkpt>
      <trkpt lat="45.862579140812159" lon="7.730535753071308">
        <ele>1708.6400000000001</ele>
        <time>2023-10-08T07:34:17Z</time>
      </trkpt>
      <trkpt lat="45.862602526322007" lon="7.730526868253946">
        <ele>1708.4000000000001</ele>
        <time>2023-10-08T07:34:19Z</time>
      </trkpt>
      <trkpt lat="45.862693889066577" lon="7.7304757386446">
        <ele>1708.97</ele>
        <time>2023-10-08T07:34:32Z</time>
      </trkpt>
      <trkpt lat="45.862736972048879" lon="7.730447743088007">
        <ele>1709.27</ele>
        <time>2023-10-08T07:34:38Z</time>
      </trkpt>
      <trkpt lat="45.862796399742365" lon="7.730318577960134">
        <ele>1710.1800000000001</ele>
        <time>2023-10-08T07:34:52Z</time>
      </trkpt>
      <trkpt lat="45.862881056964397" lon="7.730301227420569">
        <ele>1710.26</ele>
        <time>2023-10-08T07:35:03Z</time>
      </trkpt>
      <trkpt lat="45.862919026985765" lon="7.730246745049954">
        <ele>1710.8299999999999</ele>
        <time>2023-10-08T07:35:16Z</time>
      </trkpt>
      <trkpt lat="45.86294517852366" lon="7.730233166366816">
        <ele>1710.6600000000001</ele>
        <time>2023-10-08T07:35:49Z</time>
      </trkpt>
      <trkpt lat="45.862978203222156" lon="7.730234004557133">
        <ele>1710.47</ele>
        <time>2023-10-08T07:35:52Z</time>
      </trkpt>
      <trkpt lat="45.863083228468895" lon="7.730288067832589">
        <ele>1710.3800000000001</ele>
        <time>2023-10-08T07:36:02Z</time>
      </trkpt>
      <trkpt lat="45.863145003095269" lon="7.730326373130083">
        <ele>1710.9300000000001</ele>
        <time>2023-10-08T07:36:15Z</time>
      </trkpt>
      <trkpt lat="45.863171070814133" lon="7.730357050895691">
        <ele>1711.04</ele>
        <time>2023-10-08T07:36:24Z</time>
      </trkpt>
      <trkpt lat="45.863215997815132" lon="7.730402061715722">
        <ele>1711.4100000000001</ele>
        <time>2023-10-08T07:36:28Z</time>
      </trkpt>
      <trkpt lat="45.86332974024117" lon="7.730508344247937">
        <ele>1712.4400000000001</ele>
        <time>2023-10-08T07:36:40Z</time>
      </trkpt>
      <trkpt lat="45.863470304757357" lon="7.730585625395179">
        <ele>1713.6800000000001</ele>
        <time>2023-10-08T07:36:53Z</time>
      </trkpt>
      <trkpt lat="45.863602319732308" lon="7.73055586963892">
        <ele>1714.27</ele>
        <time>2023-10-08T07:37:05Z</time>
      </trkpt>
      <trkpt lat="45.863736681640148" lon="7.730467189103365">
        <ele>1714.75</ele>
        <time>2023-10-08T07:37:18Z</time>
      </trkpt>
      <trkpt lat="45.863848747685552" lon="7.730417903512716">
        <ele>1715.3699999999999</ele>
        <time>2023-10-08T07:37:28Z</time>
      </trkpt>
      <trkpt lat="45.863961568102241" lon="7.730387644842267">
        <ele>1716.6300000000001</ele>
        <time>2023-10-08T07:37:38Z</time>
      </trkpt>
      <trkpt lat="45.864021331071854" lon="7.730375155806541">
        <ele>1717.5799999999999</ele>
        <time>2023-10-08T07:37:44Z</time>
      </trkpt>
      <trkpt lat="45.864138845354319" lon="7.730373311787844">
        <ele>1718.72</ele>
        <time>2023-10-08T07:37:55Z</time>
      </trkpt>
      <trkpt lat="45.864161979407072" lon="7.730371551588178">
        <ele>1719.0999999999999</ele>
        <time>2023-10-08T07:37:58Z</time>
      </trkpt>
      <trkpt lat="45.864219227805734" lon="7.730374149978161">
        <ele>1719.72</ele>
        <time>2023-10-08T07:38:03Z</time>
      </trkpt>
      <trkpt lat="45.864324672147632" lon="7.730399295687676">
        <ele>1721.0599999999999</ele>
        <time>2023-10-08T07:38:13Z</time>
      </trkpt>
      <trkpt lat="45.864341938868165" lon="7.730401223525405">
        <ele>1721.23</ele>
        <time>2023-10-08T07:38:15Z</time>
      </trkpt>
      <trkpt lat="45.864383429288864" lon="7.7303980384022">
        <ele>1721.74</ele>
        <time>2023-10-08T07:38:19Z</time>
      </trkpt>
      <trkpt lat="45.864543188363314" lon="7.730411868542433">
        <ele>1723.6600000000001</ele>
        <time>2023-10-08T07:38:34Z</time>
      </trkpt>
      <trkpt lat="45.864635473117232" lon="7.730364510789514">
        <ele>1724.73</ele>
        <time>2023-10-08T07:38:44Z</time>
      </trkpt>
      <trkpt lat="45.864753322675824" lon="7.73026610724628">
        <ele>1726.72</ele>
        <time>2023-10-08T07:38:58Z</time>
      </trkpt>
      <trkpt lat="45.864844350144267" lon="7.730187149718404">
        <ele>1728.3699999999999</ele>
        <time>2023-10-08T07:39:09Z</time>
      </trkpt>
      <trkpt lat="45.864945603534579" lon="7.730053458362818">
        <ele>1730.4000000000001</ele>
        <time>2023-10-08T07:39:24Z</time>
      </trkpt>
      <trkpt lat="45.865016765892506" lon="7.729925131425262">
        <ele>1732.71</ele>
        <time>2023-10-08T07:39:38Z</time>
      </trkpt>
      <trkpt lat="45.865100668743253" lon="7.729768892750144">
        <ele>1735.52</ele>
        <time>2023-10-08T07:39:55Z</time>
      </trkpt>
      <trkpt lat="45.865167221054435" lon="7.729671914130449">
        <ele>1737.1600000000001</ele>
        <time>2023-10-08T07:40:07Z</time>
      </trkpt>
      <trkpt lat="45.86525296792388" lon="7.729563619941473">
        <ele>1738.95</ele>
        <time>2023-10-08T07:40:20Z</time>
      </trkpt>
      <trkpt lat="45.865309629589319" lon="7.729502599686384">
        <ele>1739.6700000000001</ele>
        <time>2023-10-08T07:40:28Z</time>
      </trkpt>
      <trkpt lat="45.86540543474257" lon="7.729430599138141">
        <ele>1740.8499999999999</ele>
        <time>2023-10-08T07:40:39Z</time>
      </trkpt>
      <trkpt lat="45.865506688132882" lon="7.729359855875373">
        <ele>1741.8</ele>
        <time>2023-10-08T07:40:52Z</time>
      </trkpt>
      <trkpt lat="45.865575922653079" lon="7.729266900569201">
        <ele>1742.3199999999999</ele>
        <time>2023-10-08T07:41:02Z</time>
      </trkpt>
      <trkpt lat="45.865597212687135" lon="7.729241587221623">
        <ele>1743.25</ele>
        <time>2023-10-08T07:41:05Z</time>
      </trkpt>
      <trkpt lat="45.865632751956582" lon="7.729199007153511">
        <ele>1743.6400000000001</ele>
        <time>2023-10-08T07:41:10Z</time>
      </trkpt>
      <trkpt lat="45.865718750283122" lon="7.729123067110777">
        <ele>1744.48</ele>
        <time>2023-10-08T07:41:21Z</time>
      </trkpt>
      <trkpt lat="45.865790750831366" lon="7.729113092646003">
        <ele>1745.24</ele>
        <time>2023-10-08T07:41:34Z</time>
      </trkpt>
      <trkpt lat="45.865808269008994" lon="7.729117199778557">
        <ele>1745.29</ele>
        <time>2023-10-08T07:41:36Z</time>
      </trkpt>
      <trkpt lat="45.865953778848052" lon="7.729148548096418">
        <ele>1746.3699999999999</ele>
        <time>2023-10-08T07:41:49Z</time>
      </trkpt>
      <trkpt lat="45.866117058321834" lon="7.729116696864367">
        <ele>1746.9200000000001</ele>
        <time>2023-10-08T07:42:03Z</time>
      </trkpt>
      <trkpt lat="45.866167182102799" lon="7.729095323011279">
        <ele>1747.1900000000001</ele>
        <time>2023-10-08T07:42:07Z</time>
      </trkpt>
      <trkpt lat="45.866223340854049" lon="7.729084342718124">
        <ele>1747.25</ele>
        <time>2023-10-08T07:42:11Z</time>
      </trkpt>
      <trkpt lat="45.866279499605298" lon="7.729048971086741">
        <ele>1747.77</ele>
        <time>2023-10-08T07:42:17Z</time>
      </trkpt>
      <trkpt lat="45.86632652208209" lon="7.72902449592948">
        <ele>1747.78</ele>
        <time>2023-10-08T07:42:21Z</time>
      </trkpt>
      <trkpt lat="45.866433475166559" lon="7.728909496217966">
        <ele>1749.26</ele>
        <time>2023-10-08T07:42:34Z</time>
      </trkpt>
      <trkpt lat="45.866440013051033" lon="7.728882506489754">
        <ele>1748.4400000000001</ele>
        <time>2023-10-08T07:42:36Z</time>
      </trkpt>
      <trkpt lat="45.866443449631333" lon="7.728867502883077">
        <ele>1748.3800000000001</ele>
        <time>2023-10-08T07:42:37Z</time>
      </trkpt>
      <trkpt lat="45.866506230086088" lon="7.728823497891426">
        <ele>1748.4300000000001</ele>
        <time>2023-10-08T07:42:47Z</time>
      </trkpt>
      <trkpt lat="45.866564149037004" lon="7.728800028562546">
        <ele>1750.26</ele>
        <time>2023-10-08T07:42:59Z</time>
      </trkpt>
      <trkpt lat="45.866640424355865" lon="7.728753676638007">
        <ele>1752.9100000000001</ele>
        <time>2023-10-08T07:43:11Z</time>
      </trkpt>
      <trkpt lat="45.866668084636331" lon="7.728782007470727">
        <ele>1753.6199999999999</ele>
        <time>2023-10-08T07:43:24Z</time>
      </trkpt>
      <trkpt lat="45.8667560108006" lon="7.728795586153865">
        <ele>1754.4200000000001</ele>
        <time>2023-10-08T07:43:35Z</time>
      </trkpt>
      <trkpt lat="45.866821305826306" lon="7.728784186765552">
        <ele>1756.1900000000001</ele>
        <time>2023-10-08T07:43:45Z</time>
      </trkpt>
      <trkpt lat="45.866925660520792" lon="7.728789383545518">
        <ele>1759.1700000000001</ele>
        <time>2023-10-08T07:44:01Z</time>
      </trkpt>
      <trkpt lat="45.86700763553381" lon="7.728797178715468">
        <ele>1762.26</ele>
        <time>2023-10-08T07:44:17Z</time>
      </trkpt>
      <trkpt lat="45.867067147046328" lon="7.728775721043348">
        <ele>1764.8</ele>
        <time>2023-10-08T07:44:30Z</time>
      </trkpt>
      <trkpt lat="45.867145182564855" lon="7.728723669424653">
        <ele>1767.98</ele>
        <time>2023-10-08T07:44:47Z</time>
      </trkpt>
      <trkpt lat="45.867222128435969" lon="7.72872107103467">
        <ele>1770.54</ele>
        <time>2023-10-08T07:45:01Z</time>
      </trkpt>
      <trkpt lat="45.867305276915431" lon="7.728727189823985">
        <ele>1773.1500000000001</ele>
        <time>2023-10-08T07:45:17Z</time>
      </trkpt>
      <trkpt lat="45.867365375161171" lon="7.728687208145857">
        <ele>1776.26</ele>
        <time>2023-10-08T07:45:35Z</time>
      </trkpt>
      <trkpt lat="45.867380378767848" lon="7.728649824857712">
        <ele>1776.8900000000001</ele>
        <time>2023-10-08T07:47:05Z</time>
      </trkpt>
      <trkpt lat="45.867407284677029" lon="7.728680083528161">
        <ele>1776.98</ele>
        <time>2023-10-08T07:47:16Z</time>
      </trkpt>
      <trkpt lat="45.867448607459664" lon="7.7287264354527">
        <ele>1777.27</ele>
        <time>2023-10-08T07:47:30Z</time>
      </trkpt>
      <trkpt lat="45.867524715140462" lon="7.728831125423312">
        <ele>1779.4000000000001</ele>
        <time>2023-10-08T07:47:44Z</time>
      </trkpt>
      <trkpt lat="45.867544915527105" lon="7.728923996910453">
        <ele>1780.98</ele>
        <time>2023-10-08T07:47:53Z</time>
      </trkpt>
      <trkpt lat="45.867599230259657" lon="7.729058442637324">
        <ele>1783.3599999999999</ele>
        <time>2023-10-08T07:48:07Z</time>
      </trkpt>
      <trkpt lat="45.867657149210572" lon="7.729139579460025">
        <ele>1786.1400000000001</ele>
        <time>2023-10-08T07:48:19Z</time>
      </trkpt>
      <trkpt lat="45.867721103131771" lon="7.729212502017617">
        <ele>1788.74</ele>
        <time>2023-10-08T07:48:32Z</time>
      </trkpt>
      <trkpt lat="45.86779436096549" lon="7.729218704625964">
        <ele>1790.9100000000001</ele>
        <time>2023-10-08T07:48:45Z</time>
      </trkpt>
      <trkpt lat="45.867878431454301" lon="7.729170341044664">
        <ele>1793.1700000000001</ele>
        <time>2023-10-08T07:48:59Z</time>
      </trkpt>
      <trkpt lat="45.867955628782511" lon="7.729082247242332">
        <ele>1795.78</ele>
        <time>2023-10-08T07:49:15Z</time>
      </trkpt>
      <trkpt lat="45.868023606017232" lon="7.729029189795256">
        <ele>1798.0799999999999</ele>
        <time>2023-10-08T07:49:30Z</time>
      </trkpt>
      <trkpt lat="45.868110191076994" lon="7.72901427000761">
        <ele>1800.1900000000001</ele>
        <time>2023-10-08T07:49:45Z</time>
      </trkpt>
      <trkpt lat="45.868143131956458" lon="7.729100771248341">
        <ele>1801.8699999999999</ele>
        <time>2023-10-08T07:50:00Z</time>
      </trkpt>
      <trkpt lat="45.868160398676991" lon="7.729238569736481">
        <ele>1803.3800000000001</ele>
        <time>2023-10-08T07:50:15Z</time>
      </trkpt>
      <trkpt lat="45.86819208227098" lon="7.729315012693405">
        <ele>1804.3199999999999</ele>
        <time>2023-10-08T07:50:27Z</time>
      </trkpt>
      <trkpt lat="45.868156794458628" lon="7.729350384324789">
        <ele>1805.6800000000001</ele>
        <time>2023-10-08T07:51:56Z</time>
      </trkpt>
      <trkpt lat="45.868147239089012" lon="7.72936262190342">
        <ele>1805.46</ele>
        <time>2023-10-08T07:52:14Z</time>
      </trkpt>
      <trkpt lat="45.868164170533419" lon="7.729405201971531">
        <ele>1805.8399999999999</ele>
        <time>2023-10-08T07:52:35Z</time>
      </trkpt>
      <trkpt lat="45.86820088326931" lon="7.729482483118773">
        <ele>1808.21</ele>
        <time>2023-10-08T07:52:52Z</time>
      </trkpt>
      <trkpt lat="45.868253102526069" lon="7.729597147554159">
        <ele>1810.29</ele>
        <time>2023-10-08T07:53:08Z</time>
      </trkpt>
      <trkpt lat="45.868278667330742" lon="7.729685492813587">
        <ele>1812.23</ele>
        <time>2023-10-08T07:53:24Z</time>
      </trkpt>
      <trkpt lat="45.868315044790506" lon="7.729742908850312">
        <ele>1814.73</ele>
        <time>2023-10-08T07:53:41Z</time>
      </trkpt>
      <trkpt lat="45.868324181064963" lon="7.72979655303061">
        <ele>1817.04</ele>
        <time>2023-10-08T07:53:56Z</time>
      </trkpt>
      <trkpt lat="45.868409089744091" lon="7.729740059003234">
        <ele>1818.45</ele>
        <time>2023-10-08T07:54:11Z</time>
      </trkpt>
      <trkpt lat="45.868480755016208" lon="7.729713656008244">
        <ele>1820.8099999999999</ele>
        <time>2023-10-08T07:54:26Z</time>
      </trkpt>
      <trkpt lat="45.868504224345088" lon="7.729606283828616">
        <ele>1823.3399999999999</ele>
        <time>2023-10-08T07:54:41Z</time>
      </trkpt>
      <trkpt lat="45.868540434166789" lon="7.729573342949152">
        <ele>1823.9100000000001</ele>
        <time>2023-10-08T07:54:51Z</time>
      </trkpt>
      <trkpt lat="45.868608662858605" lon="7.729693204164505">
        <ele>1825.5899999999999</ele>
        <time>2023-10-08T07:55:07Z</time>
      </trkpt>
      <trkpt lat="45.86866800673306" lon="7.729840893298388">
        <ele>1827.95</ele>
        <time>2023-10-08T07:55:25Z</time>
      </trkpt>
      <trkpt lat="45.868697427213192" lon="7.729924628511071">
        <ele>1830.5</ele>
        <time>2023-10-08T07:55:41Z</time>
      </trkpt>
      <trkpt lat="45.868758698925376" lon="7.729978859424591">
        <ele>1833.21</ele>
        <time>2023-10-08T07:55:58Z</time>
      </trkpt>
      <trkpt lat="45.868780910968781" lon="7.730011381208897">
        <ele>1833.9100000000001</ele>
        <time>2023-10-08T07:56:18Z</time>
      </trkpt>
      <trkpt lat="45.868827933445573" lon="7.730013895779848">
        <ele>1835.5999999999999</ele>
        <time>2023-10-08T07:56:34Z</time>
      </trkpt>
      <trkpt lat="45.868913428857923" lon="7.729926388710737">
        <ele>1837.3399999999999</ele>
        <time>2023-10-08T07:56:52Z</time>
      </trkpt>
      <trkpt lat="45.868959445506334" lon="7.729838630184531">
        <ele>1838.24</ele>
        <time>2023-10-08T07:57:05Z</time>
      </trkpt>
      <trkpt lat="45.869001606479287" lon="7.72968758828938">
        <ele>1839.8599999999999</ele>
        <time>2023-10-08T07:57:21Z</time>
      </trkpt>
      <trkpt lat="45.869046030566096" lon="7.729630088433623">
        <ele>1841.26</ele>
        <time>2023-10-08T07:57:35Z</time>
      </trkpt>
      <trkpt lat="45.869116690009832" lon="7.729564877226949">
        <ele>1843.73</ele>
        <time>2023-10-08T07:57:50Z</time>
      </trkpt>
      <trkpt lat="45.869178716093302" lon="7.72955465130508">
        <ele>1845.8499999999999</ele>
        <time>2023-10-08T07:58:05Z</time>
      </trkpt>
      <trkpt lat="45.869237640872598" lon="7.729526236653328">
        <ele>1847.8</ele>
        <time>2023-10-08T07:58:18Z</time>
      </trkpt>
      <trkpt lat="45.869284328073263" lon="7.729479549452663">
        <ele>1849.5599999999999</ele>
        <time>2023-10-08T07:58:33Z</time>
      </trkpt>
      <trkpt lat="45.869316598400474" lon="7.729463204741478">
        <ele>1852.1600000000001</ele>
        <time>2023-10-08T07:58:49Z</time>
      </trkpt>
      <trkpt lat="45.869376445189118" lon="7.729403525590897">
        <ele>1854.8</ele>
        <time>2023-10-08T07:59:05Z</time>
      </trkpt>
      <trkpt lat="45.8694429975003" lon="7.729369159787893">
        <ele>1857.22</ele>
        <time>2023-10-08T07:59:21Z</time>
      </trkpt>
      <trkpt lat="45.86952748708427" lon="7.729370836168528">
        <ele>1859.96</ele>
        <time>2023-10-08T07:59:37Z</time>
      </trkpt>
      <trkpt lat="45.869611725211143" lon="7.729322640225291">
        <ele>1861.5799999999999</ele>
        <time>2023-10-08T07:59:52Z</time>
      </trkpt>
      <trkpt lat="45.869644582271576" lon="7.729234546422958">
        <ele>1862.02</ele>
        <time>2023-10-08T08:00:05Z</time>
      </trkpt>
      <trkpt lat="45.869651203975081" lon="7.729103285819292">
        <ele>1862.9100000000001</ele>
        <time>2023-10-08T08:00:18Z</time>
      </trkpt>
      <trkpt lat="45.869699819013476" lon="7.729021897539496">
        <ele>1864.4400000000001</ele>
        <time>2023-10-08T08:00:33Z</time>
      </trkpt>
      <trkpt lat="45.869755139574409" lon="7.728967750445008">
        <ele>1867.45</ele>
        <time>2023-10-08T08:00:46Z</time>
      </trkpt>
      <trkpt lat="45.869794450700283" lon="7.728949058800936">
        <ele>1868.9200000000001</ele>
        <time>2023-10-08T08:01:01Z</time>
      </trkpt>
      <trkpt lat="45.869815908372402" lon="7.728938581421971">
        <ele>1869.0999999999999</ele>
        <time>2023-10-08T08:01:22Z</time>
      </trkpt>
      <trkpt lat="45.869833258911967" lon="7.728901281952858">
        <ele>1869.6500000000001</ele>
        <time>2023-10-08T08:01:37Z</time>
      </trkpt>
      <trkpt lat="45.869814734905958" lon="7.72887546569109">
        <ele>1870.8</ele>
        <time>2023-10-08T08:01:48Z</time>
      </trkpt>
      <trkpt lat="45.869745584204793" lon="7.728750994428992">
        <ele>1872.0799999999999</ele>
        <time>2023-10-08T08:02:04Z</time>
      </trkpt>
      <trkpt lat="45.869691101834178" lon="7.728685447946191">
        <ele>1873.25</ele>
        <time>2023-10-08T08:02:12Z</time>
      </trkpt>
      <trkpt lat="45.869642151519656" lon="7.7285261079669">
        <ele>1875.6300000000001</ele>
        <time>2023-10-08T08:02:26Z</time>
      </trkpt>
      <trkpt lat="45.869652042165399" lon="7.728347657248378">
        <ele>1877.71</ele>
        <time>2023-10-08T08:02:41Z</time>
      </trkpt>
      <trkpt lat="45.869646342471242" lon="7.7282221801579">
        <ele>1879.3699999999999</ele>
        <time>2023-10-08T08:02:55Z</time>
      </trkpt>
      <trkpt lat="45.869643408805132" lon="7.728209272027016">
        <ele>1879.0899999999999</ele>
        <time>2023-10-08T08:03:25Z</time>
      </trkpt>
      <trkpt lat="45.869639720767736" lon="7.728203656151891">
        <ele>1879.8399999999999</ele>
        <time>2023-10-08T08:04:35Z</time>
      </trkpt>
      <trkpt lat="45.869594793766737" lon="7.728166189044714">
        <ele>1879.74</ele>
        <time>2023-10-08T08:04:48Z</time>
      </trkpt>
      <trkpt lat="45.869566379114985" lon="7.728155795484781">
        <ele>1879.9300000000001</ele>
        <time>2023-10-08T08:05:02Z</time>
      </trkpt>
      <trkpt lat="45.869559422135353" lon="7.728118244558573">
        <ele>1880.29</ele>
        <time>2023-10-08T08:05:18Z</time>
      </trkpt>
      <trkpt lat="45.869561936706305" lon="7.728109527379274">
        <ele>1879.8099999999999</ele>
        <time>2023-10-08T08:05:39Z</time>
      </trkpt>
      <trkpt lat="45.869563529267907" lon="7.728105923160911">
        <ele>1881.1400000000001</ele>
        <time>2023-10-08T08:05:59Z</time>
      </trkpt>
      <trkpt lat="45.869594374671578" lon="7.728084046393633">
        <ele>1882.0599999999999</ele>
        <time>2023-10-08T08:07:43Z</time>
      </trkpt>
      <trkpt lat="45.869632009416819" lon="7.728050602599978">
        <ele>1883.04</ele>
        <time>2023-10-08T08:07:50Z</time>
      </trkpt>
      <trkpt lat="45.86970929056406" lon="7.728012716397643">
        <ele>1884.97</ele>
        <time>2023-10-08T08:08:02Z</time>
      </trkpt>
      <trkpt lat="45.86975522339344" lon="7.728038281202316">
        <ele>1885.8900000000001</ele>
        <time>2023-10-08T08:08:10Z</time>
      </trkpt>
      <trkpt lat="45.869832253083587" lon="7.72794951684773">
        <ele>1887.5</ele>
        <time>2023-10-08T08:08:23Z</time>
      </trkpt>
      <trkpt lat="45.869845496490598" lon="7.727818340063095">
        <ele>1889.22</ele>
        <time>2023-10-08T08:08:38Z</time>
      </trkpt>
      <trkpt lat="45.869875503703952" lon="7.727680206298828">
        <ele>1892.1600000000001</ele>
        <time>2023-10-08T08:08:57Z</time>
      </trkpt>
      <trkpt lat="45.869900062680244" lon="7.727599991485477">
        <ele>1893.8399999999999</ele>
        <time>2023-10-08T08:09:09Z</time>
      </trkpt>
      <trkpt lat="45.869922442361712" lon="7.727558836340904">
        <ele>1894.6600000000001</ele>
        <time>2023-10-08T08:09:23Z</time>
      </trkpt>
      <trkpt lat="45.869951611384749" lon="7.727531511336565">
        <ele>1895.1099999999999</ele>
        <time>2023-10-08T08:09:31Z</time>
      </trkpt>
      <trkpt lat="45.87004154920578" lon="7.727444591000676">
        <ele>1895.95</ele>
        <time>2023-10-08T08:09:44Z</time>
      </trkpt>
      <trkpt lat="45.870115561410785" lon="7.727337889373303">
        <ele>1897.72</ele>
        <time>2023-10-08T08:09:57Z</time>
      </trkpt>
      <trkpt lat="45.870120506733656" lon="7.727320957928896">
        <ele>1897.8699999999999</ele>
        <time>2023-10-08T08:09:59Z</time>
      </trkpt>
      <trkpt lat="45.870193429291248" lon="7.72727276198566">
        <ele>1897.8299999999999</ele>
        <time>2023-10-08T08:10:07Z</time>
      </trkpt>
      <trkpt lat="45.870315553620458" lon="7.727313581854105">
        <ele>1898.4400000000001</ele>
        <time>2023-10-08T08:10:20Z</time>
      </trkpt>
      <trkpt lat="45.870327539741993" lon="7.7273103967309">
        <ele>1898.76</ele>
        <time>2023-10-08T08:10:22Z</time>
      </trkpt>
      <trkpt lat="45.870408089831471" lon="7.727294974029064">
        <ele>1899.25</ele>
        <time>2023-10-08T08:10:33Z</time>
      </trkpt>
      <trkpt lat="45.870428122580051" lon="7.727291537448764">
        <ele>1899.1900000000001</ele>
        <time>2023-10-08T08:10:36Z</time>
      </trkpt>
      <trkpt lat="45.870518814772367" lon="7.727263458073139">
        <ele>1900.4300000000001</ele>
        <time>2023-10-08T08:10:47Z</time>
      </trkpt>
      <trkpt lat="45.87057120166719" lon="7.727265302091837">
        <ele>1900.78</ele>
        <time>2023-10-08T08:10:53Z</time>
      </trkpt>
      <trkpt lat="45.870601795613766" lon="7.727275444194675">
        <ele>1900.9300000000001</ele>
        <time>2023-10-08T08:10:56Z</time>
      </trkpt>
      <trkpt lat="45.870703384280205" lon="7.727300086989999">
        <ele>1901.3399999999999</ele>
        <time>2023-10-08T08:11:08Z</time>
      </trkpt>
      <trkpt lat="45.870752250775695" lon="7.727349540218711">
        <ele>1901.9000000000001</ele>
        <time>2023-10-08T08:11:20Z</time>
      </trkpt>
      <trkpt lat="45.870806649327278" lon="7.727449033409357">
        <ele>1903.5899999999999</ele>
        <time>2023-10-08T08:11:34Z</time>
      </trkpt>
      <trkpt lat="45.870872447267175" lon="7.727537881582975">
        <ele>1903.4000000000001</ele>
        <time>2023-10-08T08:11:43Z</time>
      </trkpt>
      <trkpt lat="45.870891558006406" lon="7.727673249319196">
        <ele>1905.3299999999999</ele>
        <time>2023-10-08T08:11:57Z</time>
      </trkpt>
      <trkpt lat="45.870937407016754" lon="7.7277403883636">
        <ele>1908.4200000000001</ele>
        <time>2023-10-08T08:12:10Z</time>
      </trkpt>
      <trkpt lat="45.870975041761994" lon="7.727877432480454">
        <ele>1911.0899999999999</ele>
        <time>2023-10-08T08:12:26Z</time>
      </trkpt>
      <trkpt lat="45.871045449748635" lon="7.727987235412002">
        <ele>1911.9200000000001</ele>
        <time>2023-10-08T08:12:40Z</time>
      </trkpt>
      <trkpt lat="45.871119545772672" lon="7.728082202374935">
        <ele>1914.0699999999999</ele>
        <time>2023-10-08T08:12:54Z</time>
      </trkpt>
      <trkpt lat="45.871207974851131" lon="7.728126291185617">
        <ele>1915.72</ele>
        <time>2023-10-08T08:13:08Z</time>
      </trkpt>
      <trkpt lat="45.871286932379007" lon="7.728194603696466">
        <ele>1917.6099999999999</ele>
        <time>2023-10-08T08:13:22Z</time>
      </trkpt>
      <trkpt lat="45.871294727548957" lon="7.72820021957159">
        <ele>1917.6900000000001</ele>
        <time>2023-10-08T08:13:23Z</time>
      </trkpt>
      <trkpt lat="45.871400842443109" lon="7.728268029168248">
        <ele>1918.8299999999999</ele>
        <time>2023-10-08T08:13:37Z</time>
      </trkpt>
      <trkpt lat="45.871469154953957" lon="7.728312537074089">
        <ele>1920.3599999999999</ele>
        <time>2023-10-08T08:13:47Z</time>
      </trkpt>
      <trkpt lat="45.871533360332251" lon="7.728387555107474">
        <ele>1922.1900000000001</ele>
        <time>2023-10-08T08:14:03Z</time>
      </trkpt>
      <trkpt lat="45.871615251526237" lon="7.728408006951213">
        <ele>1923.95</ele>
        <time>2023-10-08T08:14:19Z</time>
      </trkpt>
      <trkpt lat="45.871659759432077" lon="7.728407168760896">
        <ele>1924.9000000000001</ele>
        <time>2023-10-08T08:14:36Z</time>
      </trkpt>
      <trkpt lat="45.871668225154281" lon="7.728390069678426">
        <ele>1925.1199999999999</ele>
        <time>2023-10-08T08:14:49Z</time>
      </trkpt>
      <trkpt lat="45.871733436360955" lon="7.728461902588606">
        <ele>1927.3599999999999</ele>
        <time>2023-10-08T08:15:01Z</time>
      </trkpt>
      <trkpt lat="45.871796300634742" lon="7.728471709415317">
        <ele>1929.6300000000001</ele>
        <time>2023-10-08T08:15:13Z</time>
      </trkpt>
      <trkpt lat="45.871857823804021" lon="7.728446144610643">
        <ele>1931.8099999999999</ele>
        <time>2023-10-08T08:15:26Z</time>
      </trkpt>
      <trkpt lat="45.871894285082817" lon="7.728432398289442">
        <ele>1933.47</ele>
        <time>2023-10-08T08:15:39Z</time>
      </trkpt>
      <trkpt lat="45.871970979496837" lon="7.728421334177256">
        <ele>1935.5599999999999</ele>
        <time>2023-10-08T08:15:53Z</time>
      </trkpt>
      <trkpt lat="45.87203468196094" lon="7.728413203731179">
        <ele>1936.7</ele>
        <time>2023-10-08T08:16:06Z</time>
      </trkpt>
      <trkpt lat="45.87206007912755" lon="7.7283775806427">
        <ele>1936.98</ele>
        <time>2023-10-08T08:16:12Z</time>
      </trkpt>
      <trkpt lat="45.872086398303509" lon="7.728364588692784">
        <ele>1936.53</ele>
        <time>2023-10-08T08:16:15Z</time>
      </trkpt>
      <trkpt lat="45.872188406065106" lon="7.728369953110814">
        <ele>1937.76</ele>
        <time>2023-10-08T08:16:29Z</time>
      </trkpt>
      <trkpt lat="45.87226677685976" lon="7.728410605341196">
        <ele>1939.99</ele>
        <time>2023-10-08T08:16:43Z</time>
      </trkpt>
      <trkpt lat="45.872317403554916" lon="7.728393170982599">
        <ele>1942.0799999999999</ele>
        <time>2023-10-08T08:16:57Z</time>
      </trkpt>
      <trkpt lat="45.872371969744563" lon="7.72838780656457">
        <ele>1943.99</ele>
        <time>2023-10-08T08:17:11Z</time>
      </trkpt>
      <trkpt lat="45.872453274205327" lon="7.728400966152549">
        <ele>1946.47</ele>
        <time>2023-10-08T08:17:25Z</time>
      </trkpt>
      <trkpt lat="45.872467355802655" lon="7.728397948667407">
        <ele>1946.76</ele>
        <time>2023-10-08T08:20:14Z</time>
      </trkpt>
      <trkpt lat="45.872515216469765" lon="7.728382358327508">
        <ele>1946.76</ele>
        <time>2023-10-08T08:20:22Z</time>
      </trkpt>
      <trkpt lat="45.872618230059743" lon="7.728381017223001">
        <ele>1946.99</ele>
        <time>2023-10-08T08:20:34Z</time>
      </trkpt>
      <trkpt lat="45.872694253921509" lon="7.728410437703133">
        <ele>1946.8599999999999</ele>
        <time>2023-10-08T08:20:48Z</time>
      </trkpt>
      <trkpt lat="45.872766003012657" lon="7.728415634483099">
        <ele>1947.5599999999999</ele>
        <time>2023-10-08T08:20:59Z</time>
      </trkpt>
      <trkpt lat="45.872803805395961" lon="7.728412616997957">
        <ele>1948.03</ele>
        <time>2023-10-08T08:21:03Z</time>
      </trkpt>
      <trkpt lat="45.872835237532854" lon="7.728425357490778">
        <ele>1948.1400000000001</ele>
        <time>2023-10-08T08:21:06Z</time>
      </trkpt>
      <trkpt lat="45.87285996414721" lon="7.728444049134851">
        <ele>1948.72</ele>
        <time>2023-10-08T08:21:09Z</time>
      </trkpt>
      <trkpt lat="45.872974460944533" lon="7.728441031649709">
        <ele>1951.5899999999999</ele>
        <time>2023-10-08T08:21:21Z</time>
      </trkpt>
      <trkpt lat="45.873012011870742" lon="7.728445054963231">
        <ele>1953.4100000000001</ele>
        <time>2023-10-08T08:21:26Z</time>
      </trkpt>
      <trkpt lat="45.873062219470739" lon="7.728434577584267">
        <ele>1954.3599999999999</ele>
        <time>2023-10-08T08:21:32Z</time>
      </trkpt>
      <trkpt lat="45.873123575001955" lon="7.728405995294452">
        <ele>1956.24</ele>
        <time>2023-10-08T08:21:46Z</time>
      </trkpt>
      <trkpt lat="45.873183254152536" lon="7.728398451581597">
        <ele>1957.21</ele>
        <time>2023-10-08T08:21:58Z</time>
      </trkpt>
      <trkpt lat="45.873190714046359" lon="7.728395601734519">
        <ele>1957.1700000000001</ele>
        <time>2023-10-08T08:21:59Z</time>
      </trkpt>
      <trkpt lat="45.873284758999944" lon="7.728342041373253">
        <ele>1956.7</ele>
        <time>2023-10-08T08:22:09Z</time>
      </trkpt>
      <trkpt lat="45.873315604403615" lon="7.728314632549882">
        <ele>1956.95</ele>
        <time>2023-10-08T08:22:19Z</time>
      </trkpt>
      <trkpt lat="45.8733163587749" lon="7.728327792137861">
        <ele>1956.97</ele>
        <time>2023-10-08T08:22:34Z</time>
      </trkpt>
      <trkpt lat="45.873338989913464" lon="7.728317063301802">
        <ele>1956.3699999999999</ele>
        <time>2023-10-08T08:22:52Z</time>
      </trkpt>
      <trkpt lat="45.873400093987584" lon="7.728397864848375">
        <ele>1957.48</ele>
        <time>2023-10-08T08:23:04Z</time>
      </trkpt>
      <trkpt lat="45.873404368758202" lon="7.728419154882431">
        <ele>1957.01</ele>
        <time>2023-10-08T08:23:13Z</time>
      </trkpt>
      <trkpt lat="45.873414175584912" lon="7.728446144610643">
        <ele>1957.76</ele>
        <time>2023-10-08T08:23:24Z</time>
      </trkpt>
      <trkpt lat="45.873438566923141" lon="7.728474978357554">
        <ele>1959.1400000000001</ele>
        <time>2023-10-08T08:23:31Z</time>
      </trkpt>
      <trkpt lat="45.873477039858699" lon="7.728468189015985">
        <ele>1958.6199999999999</ele>
        <time>2023-10-08T08:23:39Z</time>
      </trkpt>
      <trkpt lat="45.873566893860698" lon="7.728466764092445">
        <ele>1958.1400000000001</ele>
        <time>2023-10-08T08:23:51Z</time>
      </trkpt>
      <trkpt lat="45.873589357361197" lon="7.728445557877421">
        <ele>1958.4000000000001</ele>
        <time>2023-10-08T08:24:03Z</time>
      </trkpt>
      <trkpt lat="45.873589692637324" lon="7.728474559262395">
        <ele>1958.4400000000001</ele>
        <time>2023-10-08T08:24:22Z</time>
      </trkpt>
      <trkpt lat="45.873615425080061" lon="7.728492496535182">
        <ele>1958.4300000000001</ele>
        <time>2023-10-08T08:24:35Z</time>
      </trkpt>
      <trkpt lat="45.873613832518458" lon="7.728502303361893">
        <ele>1958.21</ele>
        <time>2023-10-08T08:24:53Z</time>
      </trkpt>
      <trkpt lat="45.873631183058023" lon="7.728512948378921">
        <ele>1958.4100000000001</ele>
        <time>2023-10-08T08:25:12Z</time>
      </trkpt>
      <trkpt lat="45.873660938814282" lon="7.728483360260725">
        <ele>1958.6800000000001</ele>
        <time>2023-10-08T08:25:24Z</time>
      </trkpt>
      <trkpt lat="45.873741656541824" lon="7.7284777443856">
        <ele>1958.5599999999999</ele>
        <time>2023-10-08T08:25:35Z</time>
      </trkpt>
      <trkpt lat="45.873771831393242" lon="7.728485455736518">
        <ele>1958.8599999999999</ele>
        <time>2023-10-08T08:25:39Z</time>
      </trkpt>
      <trkpt lat="45.873900912702084" lon="7.728539938107133">
        <ele>1958.71</ele>
        <time>2023-10-08T08:25:53Z</time>
      </trkpt>
      <trkpt lat="45.874001746997237" lon="7.728614034131169">
        <ele>1959.21</ele>
        <time>2023-10-08T08:26:04Z</time>
      </trkpt>
      <trkpt lat="45.874037202447653" lon="7.728673294186592">
        <ele>1959.3</ele>
        <time>2023-10-08T08:26:12Z</time>
      </trkpt>
      <trkpt lat="45.874094199389219" lon="7.728722831234336">
        <ele>1959.95</ele>
        <time>2023-10-08T08:26:19Z</time>
      </trkpt>
      <trkpt lat="45.874223951250315" lon="7.728840932250023">
        <ele>1960.0699999999999</ele>
        <time>2023-10-08T08:26:34Z</time>
      </trkpt>
      <trkpt lat="45.874303579330444" lon="7.728912178426981">
        <ele>1960.3499999999999</ele>
        <time>2023-10-08T08:26:50Z</time>
      </trkpt>
      <trkpt lat="45.874327048659325" lon="7.728999434038997">
        <ele>1960.2</ele>
        <time>2023-10-08T08:27:04Z</time>
      </trkpt>
      <trkpt lat="45.87433903478086" lon="7.729029525071383">
        <ele>1960.1700000000001</ele>
        <time>2023-10-08T08:27:12Z</time>
      </trkpt>
      <trkpt lat="45.874390918761492" lon="7.729099513962865">
        <ele>1960.22</ele>
        <time>2023-10-08T08:27:23Z</time>
      </trkpt>
      <trkpt lat="45.874461326748133" lon="7.729187943041325">
        <ele>1961.0699999999999</ele>
        <time>2023-10-08T08:27:37Z</time>
      </trkpt>
      <trkpt lat="45.874500637874007" lon="7.729231109842658">
        <ele>1961.7</ele>
        <time>2023-10-08T08:27:50Z</time>
      </trkpt>
      <trkpt lat="45.874481610953808" lon="7.72926296107471">
        <ele>1962</ele>
        <time>2023-10-08T08:28:05Z</time>
      </trkpt>
      <trkpt lat="45.874474067240953" lon="7.729289699345827">
        <ele>1962.0599999999999</ele>
        <time>2023-10-08T08:28:25Z</time>
      </trkpt>
      <trkpt lat="45.874442551285028" lon="7.729243682697415">
        <ele>1961.45</ele>
        <time>2023-10-08T08:28:39Z</time>
      </trkpt>
      <trkpt lat="45.874397289007902" lon="7.729174699634314">
        <ele>1961.05</ele>
        <time>2023-10-08T08:28:47Z</time>
      </trkpt>
      <trkpt lat="45.874376920983195" lon="7.729141507297754">
        <ele>1960.8199999999999</ele>
        <time>2023-10-08T08:28:50Z</time>
      </trkpt>
      <trkpt lat="45.874286312609911" lon="7.729017622768879">
        <ele>1960.47</ele>
        <time>2023-10-08T08:29:04Z</time>
      </trkpt>
      <trkpt lat="45.874280696734786" lon="7.729005720466375">
        <ele>1960.5999999999999</ele>
        <time>2023-10-08T08:29:05Z</time>
      </trkpt>
      <trkpt lat="45.874185897409916" lon="7.72889600135386">
        <ele>1960.0799999999999</ele>
        <time>2023-10-08T08:29:17Z</time>
      </trkpt>
      <trkpt lat="45.874107358977199" lon="7.728805728256702">
        <ele>1959.54</ele>
        <time>2023-10-08T08:29:26Z</time>
      </trkpt>
      <trkpt lat="45.873983474448323" lon="7.728724675253034">
        <ele>1959.48</ele>
        <time>2023-10-08T08:29:40Z</time>
      </trkpt>
      <trkpt lat="45.873977523297071" lon="7.728726603090763">
        <ele>1959.49</ele>
        <time>2023-10-08T08:29:51Z</time>
      </trkpt>
      <trkpt lat="45.873960088938475" lon="7.728666672483087">
        <ele>1959.2</ele>
        <time>2023-10-08T08:30:13Z</time>
      </trkpt>
      <trkpt lat="45.873916335403919" lon="7.728642281144857">
        <ele>1959.3900000000001</ele>
        <time>2023-10-08T08:30:24Z</time>
      </trkpt>
      <trkpt lat="45.873757414519787" lon="7.72857841104269">
        <ele>1959.22</ele>
        <time>2023-10-08T08:30:39Z</time>
      </trkpt>
      <trkpt lat="45.873684911057353" lon="7.728568352758884">
        <ele>1959.01</ele>
        <time>2023-10-08T08:30:50Z</time>
      </trkpt>
      <trkpt lat="45.873692706227303" lon="7.728559048846364">
        <ele>1958.9200000000001</ele>
        <time>2023-10-08T08:31:08Z</time>
      </trkpt>
      <trkpt lat="45.873691029846668" lon="7.728499537333846">
        <ele>1958.7</ele>
        <time>2023-10-08T08:31:20Z</time>
      </trkpt>
      <trkpt lat="45.873685330152512" lon="7.728496184572578">
        <ele>1958.8399999999999</ele>
        <time>2023-10-08T08:31:21Z</time>
      </trkpt>
      <trkpt lat="45.873666303232312" lon="7.728489311411977">
        <ele>1958.55</ele>
        <time>2023-10-08T08:31:23Z</time>
      </trkpt>
      <trkpt lat="45.873633278533816" lon="7.728454945608974">
        <ele>1958.8800000000001</ele>
        <time>2023-10-08T08:31:27Z</time>
      </trkpt>
      <trkpt lat="45.873525068163872" lon="7.728423932567239">
        <ele>1958.6600000000001</ele>
        <time>2023-10-08T08:31:39Z</time>
      </trkpt>
      <trkpt lat="45.873406883329153" lon="7.728399457409978">
        <ele>1958.24</ele>
        <time>2023-10-08T08:31:52Z</time>
      </trkpt>
      <trkpt lat="45.873375870287418" lon="7.728378670290113">
        <ele>1958.0999999999999</ele>
        <time>2023-10-08T08:32:03Z</time>
      </trkpt>
      <trkpt lat="45.873442925512791" lon="7.72839224897325">
        <ele>1958.54</ele>
        <time>2023-10-08T08:32:11Z</time>
      </trkpt>
      <trkpt lat="45.873486176133156" lon="7.728377832099795">
        <ele>1958.8299999999999</ele>
        <time>2023-10-08T08:32:15Z</time>
      </trkpt>
      <trkpt lat="45.873622046783566" lon="7.72841814905405">
        <ele>1959</ele>
        <time>2023-10-08T08:32:28Z</time>
      </trkpt>
      <trkpt lat="45.873687425628304" lon="7.728418651968241">
        <ele>1959.0899999999999</ele>
        <time>2023-10-08T08:32:34Z</time>
      </trkpt>
      <trkpt lat="45.873674685135484" lon="7.728478163480759">
        <ele>1959.3699999999999</ele>
        <time>2023-10-08T08:32:43Z</time>
      </trkpt>
      <trkpt lat="45.873658508062363" lon="7.728498615324497">
        <ele>1959.45</ele>
        <time>2023-10-08T08:32:45Z</time>
      </trkpt>
      <trkpt lat="45.873618107289076" lon="7.728510852903128">
        <ele>1959.3599999999999</ele>
        <time>2023-10-08T08:32:48Z</time>
      </trkpt>
      <trkpt lat="45.873555159196258" lon="7.728510014712811">
        <ele>1959.1199999999999</ele>
        <time>2023-10-08T08:32:54Z</time>
      </trkpt>
      <trkpt lat="45.87344485335052" lon="7.728527281433344">
        <ele>1959.3699999999999</ele>
        <time>2023-10-08T08:33:06Z</time>
      </trkpt>
      <trkpt lat="45.87340185418725" lon="7.72851680405438">
        <ele>1960.0599999999999</ele>
        <time>2023-10-08T08:33:17Z</time>
      </trkpt>
      <trkpt lat="45.87339648976922" lon="7.728498531505466">
        <ele>1959.3499999999999</ele>
        <time>2023-10-08T08:33:19Z</time>
      </trkpt>
      <trkpt lat="45.873350221663713" lon="7.728428207337856">
        <ele>1958.3699999999999</ele>
        <time>2023-10-08T08:33:31Z</time>
      </trkpt>
      <trkpt lat="45.87331929244101" lon="7.728432398289442">
        <ele>1958.1300000000001</ele>
        <time>2023-10-08T08:33:47Z</time>
      </trkpt>
      <trkpt lat="45.873260032385588" lon="7.728441115468741">
        <ele>1958.1800000000001</ele>
        <time>2023-10-08T08:33:54Z</time>
      </trkpt>
      <trkpt lat="45.873175794258714" lon="7.72845821455121">
        <ele>1958.2</ele>
        <time>2023-10-08T08:34:02Z</time>
      </trkpt>
      <trkpt lat="45.873065488412976" lon="7.728525437414646">
        <ele>1960.3399999999999</ele>
        <time>2023-10-08T08:34:16Z</time>
      </trkpt>
      <trkpt lat="45.872990638017654" lon="7.728570448234677">
        <ele>1961.6400000000001</ele>
        <time>2023-10-08T08:34:30Z</time>
      </trkpt>
      <trkpt lat="45.872993906959891" lon="7.728602550923824">
        <ele>1964.1800000000001</ele>
        <time>2023-10-08T08:34:45Z</time>
      </trkpt>
      <trkpt lat="45.87305836379528" lon="7.728614453226328">
        <ele>1966.0899999999999</ele>
        <time>2023-10-08T08:34:58Z</time>
      </trkpt>
      <trkpt lat="45.873129609972239" lon="7.728613195940852">
        <ele>1967.8800000000001</ele>
        <time>2023-10-08T08:35:15Z</time>
      </trkpt>
      <trkpt lat="45.873211836442351" lon="7.728654434904456">
        <ele>1969.9100000000001</ele>
        <time>2023-10-08T08:35:30Z</time>
      </trkpt>
      <trkpt lat="45.873270845040679" lon="7.728694081306458">
        <ele>1971.4100000000001</ele>
        <time>2023-10-08T08:35:42Z</time>
      </trkpt>
      <trkpt lat="45.873333960771561" lon="7.728737248107791">
        <ele>1971.6500000000001</ele>
        <time>2023-10-08T08:35:52Z</time>
      </trkpt>
      <trkpt lat="45.87337888777256" lon="7.72880363278091">
        <ele>1972.4200000000001</ele>
        <time>2023-10-08T08:36:04Z</time>
      </trkpt>
      <trkpt lat="45.873452816158533" lon="7.728922655805945">
        <ele>1973.6099999999999</ele>
        <time>2023-10-08T08:36:20Z</time>
      </trkpt>
      <trkpt lat="45.873492797836661" lon="7.728973953053355">
        <ele>1974.47</ele>
        <time>2023-10-08T08:36:30Z</time>
      </trkpt>
      <trkpt lat="45.87355432100594" lon="7.729001697152853">
        <ele>1975.4400000000001</ele>
        <time>2023-10-08T08:36:39Z</time>
      </trkpt>
      <trkpt lat="45.873635122552514" lon="7.729078978300095">
        <ele>1975.9400000000001</ele>
        <time>2023-10-08T08:36:51Z</time>
      </trkpt>
      <trkpt lat="45.873707961291075" lon="7.72915206849575">
        <ele>1976.28</ele>
        <time>2023-10-08T08:37:05Z</time>
      </trkpt>
      <trkpt lat="45.873790606856346" lon="7.729222057387233">
        <ele>1977.6900000000001</ele>
        <time>2023-10-08T08:37:18Z</time>
      </trkpt>
      <trkpt lat="45.873852130025625" lon="7.72932599298656">
        <ele>1978.26</ele>
        <time>2023-10-08T08:37:30Z</time>
      </trkpt>
      <trkpt lat="45.873902421444654" lon="7.729424480348826">
        <ele>1978.97</ele>
        <time>2023-10-08T08:37:41Z</time>
      </trkpt>
      <trkpt lat="45.873965872451663" lon="7.729554232209921">
        <ele>1979.3699999999999</ele>
        <time>2023-10-08T08:37:54Z</time>
      </trkpt>
      <trkpt lat="45.874001244083047" lon="7.729642745107412">
        <ele>1980.54</ele>
        <time>2023-10-08T08:38:07Z</time>
      </trkpt>
      <trkpt lat="45.874062264338136" lon="7.729778029024601">
        <ele>1981.6500000000001</ele>
        <time>2023-10-08T08:38:21Z</time>
      </trkpt>
      <trkpt lat="45.874141389504075" lon="7.729888502508402">
        <ele>1982.2</ele>
        <time>2023-10-08T08:38:34Z</time>
      </trkpt>
      <trkpt lat="45.874195117503405" lon="7.729999227449298">
        <ele>1983.21</ele>
        <time>2023-10-08T08:38:47Z</time>
      </trkpt>
      <trkpt lat="45.874210959300399" lon="7.730146748945117">
        <ele>1983.5899999999999</ele>
        <time>2023-10-08T08:39:02Z</time>
      </trkpt>
      <trkpt lat="45.874213809147477" lon="7.730160662904382">
        <ele>1983.48</ele>
        <time>2023-10-08T08:39:03Z</time>
      </trkpt>
      <trkpt lat="45.874268962070346" lon="7.730224700644612">
        <ele>1984.9400000000001</ele>
        <time>2023-10-08T08:39:18Z</time>
      </trkpt>
      <trkpt lat="45.874309530481696" lon="7.730311956256628">
        <ele>1986.75</ele>
        <time>2023-10-08T08:39:32Z</time>
      </trkpt>
      <trkpt lat="45.874316738918424" lon="7.730334168300033">
        <ele>1987.2</ele>
        <time>2023-10-08T08:39:45Z</time>
      </trkpt>
      <trkpt lat="45.874358816072345" lon="7.730398708954454">
        <ele>1988.1099999999999</ele>
        <time>2023-10-08T08:39:57Z</time>
      </trkpt>
      <trkpt lat="45.874393098056316" lon="7.730492418631911">
        <ele>1989.5599999999999</ele>
        <time>2023-10-08T08:40:10Z</time>
      </trkpt>
      <trkpt lat="45.874423608183861" lon="7.730545392259955">
        <ele>1991.2</ele>
        <time>2023-10-08T08:40:22Z</time>
      </trkpt>
      <trkpt lat="45.874445401132107" lon="7.730635749176145">
        <ele>1992.8299999999999</ele>
        <time>2023-10-08T08:40:35Z</time>
      </trkpt>
      <trkpt lat="45.874467277899384" lon="7.730739181861281">
        <ele>1994.77</ele>
        <time>2023-10-08T08:40:51Z</time>
      </trkpt>
      <trkpt lat="45.874511366710067" lon="7.73080799728632">
        <ele>1997.25</ele>
        <time>2023-10-08T08:41:07Z</time>
      </trkpt>
      <trkpt lat="45.874550761654973" lon="7.730886619538069">
        <ele>2000.02</ele>
        <time>2023-10-08T08:41:26Z</time>
      </trkpt>
      <trkpt lat="45.874588396400213" lon="7.730961553752422">
        <ele>2002.73</ele>
        <time>2023-10-08T08:41:43Z</time>
      </trkpt>
      <trkpt lat="45.874633155763149" lon="7.731035482138395">
        <ele>2005.24</ele>
        <time>2023-10-08T08:42:00Z</time>
      </trkpt>
      <trkpt lat="45.874640196561813" lon="7.731043361127377">
        <ele>2005.24</ele>
        <time>2023-10-08T08:42:18Z</time>
      </trkpt>
      <trkpt lat="45.87466835975647" lon="7.731109913438559">
        <ele>2008.3599999999999</ele>
        <time>2023-10-08T08:42:30Z</time>
      </trkpt>
      <trkpt lat="45.874694846570492" lon="7.731205131858587">
        <ele>2010.51</ele>
        <time>2023-10-08T08:42:43Z</time>
      </trkpt>
      <trkpt lat="45.874733403325081" lon="7.731283754110336">
        <ele>2012.5799999999999</ele>
        <time>2023-10-08T08:42:57Z</time>
      </trkpt>
      <trkpt lat="45.874769613146782" lon="7.731334464624524">
        <ele>2014.8099999999999</ele>
        <time>2023-10-08T08:43:12Z</time>
      </trkpt>
      <trkpt lat="45.874796770513058" lon="7.73135382682085">
        <ele>2016.5</ele>
        <time>2023-10-08T08:43:25Z</time>
      </trkpt>
      <trkpt lat="45.874797273427248" lon="7.731359275057912">
        <ele>2016.6400000000001</ele>
        <time>2023-10-08T08:43:47Z</time>
      </trkpt>
      <trkpt lat="45.874834740534425" lon="7.731415936723352">
        <ele>2018.6600000000001</ele>
        <time>2023-10-08T08:44:01Z</time>
      </trkpt>
      <trkpt lat="45.87487606331706" lon="7.731481986120343">
        <ele>2021.5699999999999</ele>
        <time>2023-10-08T08:44:13Z</time>
      </trkpt>
      <trkpt lat="45.874893413856626" lon="7.731517609208822">
        <ele>2023.5999999999999</ele>
        <time>2023-10-08T08:44:26Z</time>
      </trkpt>
      <trkpt lat="45.874887797981501" lon="7.731523057445884">
        <ele>2023.47</ele>
        <time>2023-10-08T08:44:42Z</time>
      </trkpt>
      <trkpt lat="45.874899532645941" lon="7.731527332216501">
        <ele>2023.0699999999999</ele>
        <time>2023-10-08T08:44:53Z</time>
      </trkpt>
      <trkpt lat="45.874965330585837" lon="7.731573851779103">
        <ele>2026.23</ele>
        <time>2023-10-08T08:45:06Z</time>
      </trkpt>
      <trkpt lat="45.874995170161128" lon="7.731590447947383">
        <ele>2027.2</ele>
        <time>2023-10-08T08:45:10Z</time>
      </trkpt>
      <trkpt lat="45.87509005330503" lon="7.731639565899968">
        <ele>2029.74</ele>
        <time>2023-10-08T08:45:24Z</time>
      </trkpt>
      <trkpt lat="45.875105056911707" lon="7.731636632233858">
        <ele>2030.02</ele>
        <time>2023-10-08T08:45:26Z</time>
      </trkpt>
      <trkpt lat="45.875135650858283" lon="7.731644427403808">
        <ele>2030.3299999999999</ele>
        <time>2023-10-08T08:45:29Z</time>
      </trkpt>
      <trkpt lat="45.875249980017543" lon="7.731678709387779">
        <ele>2032.03</ele>
        <time>2023-10-08T08:45:42Z</time>
      </trkpt>
      <trkpt lat="45.875318124890327" lon="7.73169631138444">
        <ele>2033.02</ele>
        <time>2023-10-08T08:45:50Z</time>
      </trkpt>
      <trkpt lat="45.875369170680642" lon="7.731709806248546">
        <ele>2033.4400000000001</ele>
        <time>2023-10-08T08:46:01Z</time>
      </trkpt>
      <trkpt lat="45.875406721606851" lon="7.731703016906977">
        <ele>2033.8099999999999</ele>
        <time>2023-10-08T08:46:19Z</time>
      </trkpt>
      <trkpt lat="45.875484002754092" lon="7.731712153181434">
        <ele>2035.71</ele>
        <time>2023-10-08T08:46:30Z</time>
      </trkpt>
      <trkpt lat="45.875493725761771" lon="7.731695976108313">
        <ele>2035.75</ele>
        <time>2023-10-08T08:46:40Z</time>
      </trkpt>
      <trkpt lat="45.875556087121367" lon="7.731696479022503">
        <ele>2036.8299999999999</ele>
        <time>2023-10-08T08:46:46Z</time>
      </trkpt>
      <trkpt lat="45.875666979700327" lon="7.731714667752385">
        <ele>2040.04</ele>
        <time>2023-10-08T08:46:59Z</time>
      </trkpt>
      <trkpt lat="45.875676283612847" lon="7.731713410466909">
        <ele>2040.45</ele>
        <time>2023-10-08T08:47:00Z</time>
      </trkpt>
      <trkpt lat="45.875696567818522" lon="7.731706788763404">
        <ele>2040.75</ele>
        <time>2023-10-08T08:47:02Z</time>
      </trkpt>
      <trkpt lat="45.875814249739051" lon="7.731695808470249">
        <ele>2043.9000000000001</ele>
        <time>2023-10-08T08:47:16Z</time>
      </trkpt>
      <trkpt lat="45.875882478430867" lon="7.731658592820168">
        <ele>2046.23</ele>
        <time>2023-10-08T08:47:27Z</time>
      </trkpt>
      <trkpt lat="45.875913742929697" lon="7.731652474030852">
        <ele>2045.95</ele>
        <time>2023-10-08T08:47:30Z</time>
      </trkpt>
      <trkpt lat="45.876016337424517" lon="7.73160788230598">
        <ele>2047.8299999999999</ele>
        <time>2023-10-08T08:47:46Z</time>
      </trkpt>
      <trkpt lat="45.876047434285283" lon="7.731600003316999">
        <ele>2048.9200000000001</ele>
        <time>2023-10-08T08:48:00Z</time>
      </trkpt>
      <trkpt lat="45.876087667420506" lon="7.731561278924346">
        <ele>2050.79</ele>
        <time>2023-10-08T08:48:11Z</time>
      </trkpt>
      <trkpt lat="45.876097390428185" lon="7.731542671099305">
        <ele>2051.3000000000002</ele>
        <time>2023-10-08T08:48:28Z</time>
      </trkpt>
      <trkpt lat="45.876114573329687" lon="7.731517273932695">
        <ele>2051.1999999999998</ele>
        <time>2023-10-08T08:48:46Z</time>
      </trkpt>
      <trkpt lat="45.876159584149718" lon="7.73149648681283">
        <ele>2052.1300000000001</ele>
        <time>2023-10-08T08:49:01Z</time>
      </trkpt>
      <trkpt lat="45.876218257471919" lon="7.731450973078609">
        <ele>2055.3099999999999</ele>
        <time>2023-10-08T08:49:15Z</time>
      </trkpt>
      <trkpt lat="45.876279110088944" lon="7.731414008885622">
        <ele>2058.71</ele>
        <time>2023-10-08T08:49:29Z</time>
      </trkpt>
      <trkpt lat="45.876323450356722" lon="7.731332117691636">
        <ele>2061.6300000000001</ele>
        <time>2023-10-08T08:49:44Z</time>
      </trkpt>
      <trkpt lat="45.876321773976088" lon="7.731306552886963">
        <ele>2062.23</ele>
        <time>2023-10-08T08:49:56Z</time>
      </trkpt>
      <trkpt lat="45.87636879645288" lon="7.731210663914681">
        <ele>2064.6300000000001</ele>
        <time>2023-10-08T08:50:11Z</time>
      </trkpt>
      <trkpt lat="45.876381369307637" lon="7.731125839054585">
        <ele>2067.3200000000002</ele>
        <time>2023-10-08T08:50:25Z</time>
      </trkpt>
      <trkpt lat="45.876383800059557" lon="7.731024920940399">
        <ele>2069.0999999999999</ele>
        <time>2023-10-08T08:50:41Z</time>
      </trkpt>
      <trkpt lat="45.87642596103251" lon="7.730913357809186">
        <ele>2070.7600000000002</ele>
        <time>2023-10-08T08:50:55Z</time>
      </trkpt>
      <trkpt lat="45.87643819861114" lon="7.730819061398506">
        <ele>2072.0799999999999</ele>
        <time>2023-10-08T08:51:10Z</time>
      </trkpt>
      <trkpt lat="45.876438617706299" lon="7.730782264843583">
        <ele>2072.4099999999999</ele>
        <time>2023-10-08T08:51:14Z</time>
      </trkpt>
      <trkpt lat="45.876456471160054" lon="7.730694338679314">
        <ele>2074.02</ele>
        <time>2023-10-08T08:51:27Z</time>
      </trkpt>
      <trkpt lat="45.876476420089602" lon="7.730612363666296">
        <ele>2076.0500000000002</ele>
        <time>2023-10-08T08:51:41Z</time>
      </trkpt>
      <trkpt lat="45.876474240794778" lon="7.73058763705194">
        <ele>2076.1999999999998</ele>
        <time>2023-10-08T08:51:43Z</time>
      </trkpt>
      <trkpt lat="45.876503745093942" lon="7.730449168011546">
        <ele>2077.3099999999999</ele>
        <time>2023-10-08T08:51:56Z</time>
      </trkpt>
      <trkpt lat="45.876490334048867" lon="7.730399547144771">
        <ele>2077.7600000000002</ele>
        <time>2023-10-08T08:52:16Z</time>
      </trkpt>
      <trkpt lat="45.876511037349701" lon="7.73028421215713">
        <ele>2078.1799999999998</ele>
        <time>2023-10-08T08:52:29Z</time>
      </trkpt>
      <trkpt lat="45.876496369019151" lon="7.730241715908051">
        <ele>2078.4299999999998</ele>
        <time>2023-10-08T08:52:39Z</time>
      </trkpt>
      <trkpt lat="45.876507516950369" lon="7.730203159153462">
        <ele>2078.6399999999999</ele>
        <time>2023-10-08T08:52:51Z</time>
      </trkpt>
      <trkpt lat="45.876532411202788" lon="7.730154376477003">
        <ele>2078.7199999999998</ele>
        <time>2023-10-08T08:53:05Z</time>
      </trkpt>
      <trkpt lat="45.876532075926661" lon="7.730088829994202">
        <ele>2078.8299999999999</ele>
        <time>2023-10-08T08:53:20Z</time>
      </trkpt>
      <trkpt lat="45.876511791720986" lon="7.729970896616578">
        <ele>2079.6100000000001</ele>
        <time>2023-10-08T08:53:31Z</time>
      </trkpt>
      <trkpt lat="45.876464182510972" lon="7.729886155575514">
        <ele>2081.9400000000001</ele>
        <time>2023-10-08T08:53:43Z</time>
      </trkpt>
      <trkpt lat="45.876429313793778" lon="7.729810131713748">
        <ele>2083.8699999999999</ele>
        <time>2023-10-08T08:53:55Z</time>
      </trkpt>
      <trkpt lat="45.87642696686089" lon="7.729761684313417">
        <ele>2085.9099999999999</ele>
        <time>2023-10-08T08:54:08Z</time>
      </trkpt>
      <trkpt lat="45.876407688483596" lon="7.729729833081365">
        <ele>2086.3099999999999</ele>
        <time>2023-10-08T08:55:03Z</time>
      </trkpt>
      <trkpt lat="45.876378351822495" lon="7.729703765362501">
        <ele>2085.9299999999998</ele>
        <time>2023-10-08T08:55:17Z</time>
      </trkpt>
      <trkpt lat="45.876407017931342" lon="7.729619275778532">
        <ele>2086.3000000000002</ele>
        <time>2023-10-08T08:55:29Z</time>
      </trkpt>
      <trkpt lat="45.876425541937351" lon="7.729563033208251">
        <ele>2086.23</ele>
        <time>2023-10-08T08:55:37Z</time>
      </trkpt>
      <trkpt lat="45.876498045399785" lon="7.72944962605834">
        <ele>2086.3400000000001</ele>
        <time>2023-10-08T08:55:51Z</time>
      </trkpt>
      <trkpt lat="45.876533919945359" lon="7.729389360174537">
        <ele>2085.0500000000002</ele>
        <time>2023-10-08T08:56:01Z</time>
      </trkpt>
      <trkpt lat="45.876563088968396" lon="7.729382319375873">
        <ele>2085.4699999999998</ele>
        <time>2023-10-08T08:56:22Z</time>
      </trkpt>
      <trkpt lat="45.876565854996443" lon="7.729367483407259">
        <ele>2085.4000000000001</ele>
        <time>2023-10-08T08:56:23Z</time>
      </trkpt>
      <trkpt lat="45.876607345417142" lon="7.729236641898751">
        <ele>2087.1700000000001</ele>
        <time>2023-10-08T08:56:35Z</time>
      </trkpt>
      <trkpt lat="45.876639783382416" lon="7.729208897799254">
        <ele>2089.5999999999999</ele>
        <time>2023-10-08T08:56:44Z</time>
      </trkpt>
      <trkpt lat="45.876671634614468" lon="7.729141842573881">
        <ele>2092.1599999999999</ele>
        <time>2023-10-08T08:56:57Z</time>
      </trkpt>
      <trkpt lat="45.876680854707956" lon="7.729130694642663">
        <ele>2093.3000000000002</ele>
        <time>2023-10-08T08:58:04Z</time>
      </trkpt>
      <trkpt lat="45.876724440604448" lon="7.729117786511779">
        <ele>2095.5900000000001</ele>
        <time>2023-10-08T08:58:16Z</time>
      </trkpt>
      <trkpt lat="45.876754196360707" lon="7.72909096442163">
        <ele>2097.9699999999998</ele>
        <time>2023-10-08T08:58:28Z</time>
      </trkpt>
      <trkpt lat="45.876755537465215" lon="7.729092808440328">
        <ele>2098.4200000000001</ele>
        <time>2023-10-08T08:58:44Z</time>
      </trkpt>
      <trkpt lat="45.876805325970054" lon="7.729109320789576">
        <ele>2099</ele>
        <time>2023-10-08T08:58:54Z</time>
      </trkpt>
      <trkpt lat="45.876810187473893" lon="7.72910219617188">
        <ele>2098.9299999999998</ele>
        <time>2023-10-08T08:58:55Z</time>
      </trkpt>
      <trkpt lat="45.876797530800104" lon="7.729046372696757">
        <ele>2099.3600000000001</ele>
        <time>2023-10-08T08:59:05Z</time>
      </trkpt>
      <trkpt lat="45.876807002350688" lon="7.729012006893754">
        <ele>2100.77</ele>
        <time>2023-10-08T08:59:18Z</time>
      </trkpt>
      <trkpt lat="45.876863915473223" lon="7.729029105976224">
        <ele>2102.5799999999999</ele>
        <time>2023-10-08T09:01:50Z</time>
      </trkpt>
      <trkpt lat="45.876877242699265" lon="7.729034805670381">
        <ele>2102.6799999999998</ele>
        <time>2023-10-08T09:02:51Z</time>
      </trkpt>
      <trkpt lat="45.876879170536995" lon="7.729063471779227">
        <ele>2102.4699999999998</ele>
        <time>2023-10-08T09:05:02Z</time>
      </trkpt>
      <trkpt lat="45.876833321526647" lon="7.729114014655352">
        <ele>2101.8699999999999</ele>
        <time>2023-10-08T09:05:25Z</time>
      </trkpt>
      <trkpt lat="45.876755956560373" lon="7.729141423478723">
        <ele>2099.7800000000002</ele>
        <time>2023-10-08T09:05:37Z</time>
      </trkpt>
      <trkpt lat="45.876729721203446" lon="7.72913346067071">
        <ele>2097.0900000000001</ele>
        <time>2023-10-08T09:05:48Z</time>
      </trkpt>
      <trkpt lat="45.876653697341681" lon="7.729210238903761">
        <ele>2094</ele>
        <time>2023-10-08T09:06:00Z</time>
      </trkpt>
      <trkpt lat="45.876596365123987" lon="7.729264050722122">
        <ele>2090.7600000000002</ele>
        <time>2023-10-08T09:06:11Z</time>
      </trkpt>
      <trkpt lat="45.876563508063555" lon="7.729294560849667">
        <ele>2089.2399999999998</ele>
        <time>2023-10-08T09:06:21Z</time>
      </trkpt>
      <trkpt lat="45.876553365960717" lon="7.72934845648706">
        <ele>2088.1300000000001</ele>
        <time>2023-10-08T09:06:25Z</time>
      </trkpt>
      <trkpt lat="45.876522520557046" lon="7.729408806189895">
        <ele>2087.6700000000001</ele>
        <time>2023-10-08T09:06:32Z</time>
      </trkpt>
      <trkpt lat="45.876462170854211" lon="7.72950335405767">
        <ele>2088.9499999999998</ele>
        <time>2023-10-08T09:06:45Z</time>
      </trkpt>
      <trkpt lat="45.876404670998454" lon="7.729582814499736">
        <ele>2088.9699999999998</ele>
        <time>2023-10-08T09:06:56Z</time>
      </trkpt>
      <trkpt lat="45.8763971272856" lon="7.729622544720769">
        <ele>2088.8499999999999</ele>
        <time>2023-10-08T09:07:06Z</time>
      </trkpt>
      <trkpt lat="45.876387488096952" lon="7.729646349325776">
        <ele>2088.8600000000001</ele>
        <time>2023-10-08T09:07:25Z</time>
      </trkpt>
      <trkpt lat="45.876362845301628" lon="7.729710470885038">
        <ele>2088.6300000000001</ele>
        <time>2023-10-08T09:07:41Z</time>
      </trkpt>
      <trkpt lat="45.876352032646537" lon="7.729718768969178">
        <ele>2089.1599999999999</ele>
        <time>2023-10-08T09:07:54Z</time>
      </trkpt>
      <trkpt lat="45.876349937170744" lon="7.729717260226607">
        <ele>2089.7199999999998</ele>
        <time>2023-10-08T09:09:11Z</time>
      </trkpt>
      <trkpt lat="45.876352870836854" lon="7.729759924113751">
        <ele>2089.75</ele>
        <time>2023-10-08T09:09:39Z</time>
      </trkpt>
      <trkpt lat="45.876351445913315" lon="7.729759002104402">
        <ele>2089.04</ele>
        <time>2023-10-08T09:09:41Z</time>
      </trkpt>
      <trkpt lat="45.876386230811477" lon="7.729770401492715">
        <ele>2088.1599999999999</ele>
        <time>2023-10-08T09:10:35Z</time>
      </trkpt>
      <trkpt lat="45.87643719278276" lon="7.72983661852777">
        <ele>2086.0500000000002</ele>
        <time>2023-10-08T09:10:50Z</time>
      </trkpt>
      <trkpt lat="45.876474659889936" lon="7.729903757572174">
        <ele>2083.98</ele>
        <time>2023-10-08T09:11:03Z</time>
      </trkpt>
      <trkpt lat="45.876499805599451" lon="7.730004927143455">
        <ele>2082.3400000000001</ele>
        <time>2023-10-08T09:11:18Z</time>
      </trkpt>
      <trkpt lat="45.876493770629168" lon="7.730021355673671">
        <ele>2082.21</ele>
        <time>2023-10-08T09:11:19Z</time>
      </trkpt>
      <trkpt lat="45.876493183895946" lon="7.730048932135105">
        <ele>2082.1799999999998</ele>
        <time>2023-10-08T09:11:21Z</time>
      </trkpt>
      <trkpt lat="45.876467786729336" lon="7.73017767816782">
        <ele>2081.77</ele>
        <time>2023-10-08T09:11:32Z</time>
      </trkpt>
      <trkpt lat="45.876466613262892" lon="7.730192849412561">
        <ele>2081.8699999999999</ele>
        <time>2023-10-08T09:11:33Z</time>
      </trkpt>
      <trkpt lat="45.876483293250203" lon="7.730290917679668">
        <ele>2081.2399999999998</ele>
        <time>2023-10-08T09:11:47Z</time>
      </trkpt>
      <trkpt lat="45.876469211652875" lon="7.730478923767805">
        <ele>2079.5599999999999</ele>
        <time>2023-10-08T09:12:00Z</time>
      </trkpt>
      <trkpt lat="45.87646845728159" lon="7.730590486899018">
        <ele>2078.5999999999999</ele>
        <time>2023-10-08T09:12:14Z</time>
      </trkpt>
      <trkpt lat="45.876456387341022" lon="7.730700625106692">
        <ele>2076.0900000000001</ele>
        <time>2023-10-08T09:12:29Z</time>
      </trkpt>
      <trkpt lat="45.876429649069905" lon="7.730857953429222">
        <ele>2074.1100000000001</ele>
        <time>2023-10-08T09:12:43Z</time>
      </trkpt>
      <trkpt lat="45.876392852514982" lon="7.730922158807516">
        <ele>2073.5</ele>
        <time>2023-10-08T09:12:57Z</time>
      </trkpt>
      <trkpt lat="45.876375334337354" lon="7.731066746637225">
        <ele>2070.4899999999998</ele>
        <time>2023-10-08T09:13:12Z</time>
      </trkpt>
      <trkpt lat="45.876360666006804" lon="7.731165317818523">
        <ele>2068.5300000000002</ele>
        <time>2023-10-08T09:13:30Z</time>
      </trkpt>
      <trkpt lat="45.876290760934353" lon="7.731292555108666">
        <ele>2065.46</ele>
        <time>2023-10-08T09:13:48Z</time>
      </trkpt>
      <trkpt lat="45.876278858631849" lon="7.731367824599147">
        <ele>2064.1300000000001</ele>
        <time>2023-10-08T09:14:03Z</time>
      </trkpt>
      <trkpt lat="45.876243403181434" lon="7.731434544548392">
        <ele>2062.6999999999998</ele>
        <time>2023-10-08T09:14:19Z</time>
      </trkpt>
      <trkpt lat="45.876185316592455" lon="7.731466814875603">
        <ele>2059.6700000000001</ele>
        <time>2023-10-08T09:14:35Z</time>
      </trkpt>
      <trkpt lat="45.876111723482609" lon="7.731525655835867">
        <ele>2057.3699999999999</ele>
        <time>2023-10-08T09:14:51Z</time>
      </trkpt>
      <trkpt lat="45.876050284132361" lon="7.731565972790122">
        <ele>2054.5</ele>
        <time>2023-10-08T09:15:07Z</time>
      </trkpt>
      <trkpt lat="45.875990772619843" lon="7.731626825407147">
        <ele>2052.2600000000002</ele>
        <time>2023-10-08T09:15:23Z</time>
      </trkpt>
      <trkpt lat="45.87591047398746" lon="7.731712656095624">
        <ele>2049.9400000000001</ele>
        <time>2023-10-08T09:15:37Z</time>
      </trkpt>
      <trkpt lat="45.875824224203825" lon="7.731749452650547">
        <ele>2049.7800000000002</ele>
        <time>2023-10-08T09:15:50Z</time>
      </trkpt>
      <trkpt lat="45.87574970908463" lon="7.731788847595453">
        <ele>2047.22</ele>
        <time>2023-10-08T09:16:05Z</time>
      </trkpt>
      <trkpt lat="45.875686844810843" lon="7.73177694529295">
        <ele>2045.02</ele>
        <time>2023-10-08T09:16:19Z</time>
      </trkpt>
      <trkpt lat="45.87558114901185" lon="7.731771832332015">
        <ele>2042.8900000000001</ele>
        <time>2023-10-08T09:16:35Z</time>
      </trkpt>
      <trkpt lat="45.875541334971786" lon="7.731764204800129">
        <ele>2042.04</ele>
        <time>2023-10-08T09:16:41Z</time>
      </trkpt>
      <trkpt lat="45.875461958348751" lon="7.731766467913985">
        <ele>2040.8900000000001</ele>
        <time>2023-10-08T09:16:51Z</time>
      </trkpt>
      <trkpt lat="45.875364728271961" lon="7.731727827340365">
        <ele>2039.04</ele>
        <time>2023-10-08T09:17:02Z</time>
      </trkpt>
      <trkpt lat="45.875268839299679" lon="7.731689689680934">
        <ele>2037.8</ele>
        <time>2023-10-08T09:17:13Z</time>
      </trkpt>
      <trkpt lat="45.875165238976479" lon="7.731647277250886">
        <ele>2035.77</ele>
        <time>2023-10-08T09:17:26Z</time>
      </trkpt>
      <trkpt lat="45.875055436044931" lon="7.731625568121672">
        <ele>2034.6199999999999</ele>
        <time>2023-10-08T09:17:41Z</time>
      </trkpt>
      <trkpt lat="45.875031379982829" lon="7.731626490131021">
        <ele>2034.01</ele>
        <time>2023-10-08T09:17:52Z</time>
      </trkpt>
      <trkpt lat="45.875004809349775" lon="7.731626071035862">
        <ele>2033.6900000000001</ele>
        <time>2023-10-08T09:18:08Z</time>
      </trkpt>
      <trkpt lat="45.874950913712382" lon="7.731601092964411">
        <ele>2032.5999999999999</ele>
        <time>2023-10-08T09:18:25Z</time>
      </trkpt>
      <trkpt lat="45.874875895678997" lon="7.731564128771424">
        <ele>2030.23</ele>
        <time>2023-10-08T09:18:38Z</time>
      </trkpt>
      <trkpt lat="45.874815126881003" lon="7.731592375785112">
        <ele>2027.1300000000001</ele>
        <time>2023-10-08T09:18:54Z</time>
      </trkpt>
      <trkpt lat="45.874779336154461" lon="7.731685331091285">
        <ele>2024.5999999999999</ele>
        <time>2023-10-08T09:19:07Z</time>
      </trkpt>
      <trkpt lat="45.874761650338769" lon="7.731839222833514">
        <ele>2021.6099999999999</ele>
        <time>2023-10-08T09:19:24Z</time>
      </trkpt>
      <trkpt lat="45.874736336991191" lon="7.731938296929002">
        <ele>2020.2</ele>
        <time>2023-10-08T09:19:36Z</time>
      </trkpt>
      <trkpt lat="45.874696606770158" lon="7.732019769027829">
        <ele>2018.05</ele>
        <time>2023-10-08T09:19:48Z</time>
      </trkpt>
      <trkpt lat="45.874643130227923" lon="7.732121106237173">
        <ele>2018.6199999999999</ele>
        <time>2023-10-08T09:20:01Z</time>
      </trkpt>
      <trkpt lat="45.874614715576172" lon="7.73213854059577">
        <ele>2018.45</ele>
        <time>2023-10-08T09:20:04Z</time>
      </trkpt>
      <trkpt lat="45.874595185741782" lon="7.732159327715635">
        <ele>2018.53</ele>
        <time>2023-10-08T09:20:06Z</time>
      </trkpt>
      <trkpt lat="45.87452762760222" lon="7.732215486466885">
        <ele>2019.05</ele>
        <time>2023-10-08T09:20:13Z</time>
      </trkpt>
      <trkpt lat="45.874458979815245" lon="7.732372228056192">
        <ele>2020.04</ele>
        <time>2023-10-08T09:20:25Z</time>
      </trkpt>
      <trkpt lat="45.87446509860456" lon="7.732500722631812">
        <ele>2020.75</ele>
        <time>2023-10-08T09:20:34Z</time>
      </trkpt>
      <trkpt lat="45.874490747228265" lon="7.73264966905117">
        <ele>2022.3499999999999</ele>
        <time>2023-10-08T09:20:46Z</time>
      </trkpt>
      <trkpt lat="45.874513713642955" lon="7.732720328494906">
        <ele>2023.03</ele>
        <time>2023-10-08T09:20:52Z</time>
      </trkpt>
      <trkpt lat="45.874524861574173" lon="7.732750084251165">
        <ele>2023.05</ele>
        <time>2023-10-08T09:20:54Z</time>
      </trkpt>
      <trkpt lat="45.874564172700047" lon="7.732891654595733">
        <ele>2023.9100000000001</ele>
        <time>2023-10-08T09:21:05Z</time>
      </trkpt>
      <trkpt lat="45.874580265954137" lon="7.732929289340973">
        <ele>2024.72</ele>
        <time>2023-10-08T09:21:09Z</time>
      </trkpt>
      <trkpt lat="45.874603567644954" lon="7.733001206070185">
        <ele>2024.9000000000001</ele>
        <time>2023-10-08T09:21:15Z</time>
      </trkpt>
      <trkpt lat="45.874632317572832" lon="7.733110338449478">
        <ele>2024.23</ele>
        <time>2023-10-08T09:21:25Z</time>
      </trkpt>
      <trkpt lat="45.874674897640944" lon="7.733214693143964">
        <ele>2024.5699999999999</ele>
        <time>2023-10-08T09:21:36Z</time>
      </trkpt>
      <trkpt lat="45.874699540436268" lon="7.733297925442457">
        <ele>2026.1099999999999</ele>
        <time>2023-10-08T09:21:50Z</time>
      </trkpt>
      <trkpt lat="45.874701384454966" lon="7.733370596542954">
        <ele>2027.25</ele>
        <time>2023-10-08T09:22:03Z</time>
      </trkpt>
      <trkpt lat="45.87469719350338" lon="7.733393311500549">
        <ele>2027.5799999999999</ele>
        <time>2023-10-08T09:22:15Z</time>
      </trkpt>
      <trkpt lat="45.874709095805883" lon="7.733430694788694">
        <ele>2027.5</ele>
        <time>2023-10-08T09:22:28Z</time>
      </trkpt>
      <trkpt lat="45.87470549158752" lon="7.733491463586688">
        <ele>2027.1900000000001</ele>
        <time>2023-10-08T09:22:38Z</time>
      </trkpt>
      <trkpt lat="45.874684536829591" lon="7.73352867923677">
        <ele>2026.8900000000001</ele>
        <time>2023-10-08T09:22:50Z</time>
      </trkpt>
      <trkpt lat="45.874652517959476" lon="7.733632447198033">
        <ele>2024.8199999999999</ele>
        <time>2023-10-08T09:23:03Z</time>
      </trkpt>
      <trkpt lat="45.874644303694367" lon="7.733737304806709">
        <ele>2026.0599999999999</ele>
        <time>2023-10-08T09:23:15Z</time>
      </trkpt>
      <trkpt lat="45.874617313966155" lon="7.73387367837131">
        <ele>2027.5599999999999</ele>
        <time>2023-10-08T09:23:28Z</time>
      </trkpt>
      <trkpt lat="45.874627791345119" lon="7.733972668647766">
        <ele>2028.74</ele>
        <time>2023-10-08T09:23:40Z</time>
      </trkpt>
      <trkpt lat="45.874614045023918" lon="7.734117843210697">
        <ele>2029.3900000000001</ele>
        <time>2023-10-08T09:23:54Z</time>
      </trkpt>
      <trkpt lat="45.874598622322083" lon="7.734214654192329">
        <ele>2030.3399999999999</ele>
        <time>2023-10-08T09:24:05Z</time>
      </trkpt>
      <trkpt lat="45.874603148549795" lon="7.73431389592588">
        <ele>2030.51</ele>
        <time>2023-10-08T09:24:12Z</time>
      </trkpt>
      <trkpt lat="45.874631144106388" lon="7.734481114894152">
        <ele>2029.95</ele>
        <time>2023-10-08T09:24:23Z</time>
      </trkpt>
      <trkpt lat="45.874668778851628" lon="7.734591169282794">
        <ele>2030.75</ele>
        <time>2023-10-08T09:24:33Z</time>
      </trkpt>
      <trkpt lat="45.87472946383059" lon="7.734695691615343">
        <ele>2031.75</ele>
        <time>2023-10-08T09:24:46Z</time>
      </trkpt>
      <trkpt lat="45.874780174344778" lon="7.734756376594305">
        <ele>2032.3599999999999</ele>
        <time>2023-10-08T09:25:00Z</time>
      </trkpt>
      <trkpt lat="45.874834069982171" lon="7.73475956171751">
        <ele>2031.9400000000001</ele>
        <time>2023-10-08T09:25:23Z</time>
      </trkpt>
      <trkpt lat="45.874884445220232" lon="7.734830640256405">
        <ele>2033.47</ele>
        <time>2023-10-08T09:25:36Z</time>
      </trkpt>
      <trkpt lat="45.874922331422567" lon="7.734897946938872">
        <ele>2035.2</ele>
        <time>2023-10-08T09:25:47Z</time>
      </trkpt>
      <trkpt lat="45.874999444931746" lon="7.735000541433692">
        <ele>2035.78</ele>
        <time>2023-10-08T09:26:01Z</time>
      </trkpt>
      <trkpt lat="45.875046886503696" lon="7.735060472041369">
        <ele>2035.9100000000001</ele>
        <time>2023-10-08T09:26:07Z</time>
      </trkpt>
      <trkpt lat="45.875165071338415" lon="7.735150493681431">
        <ele>2037.0599999999999</ele>
        <time>2023-10-08T09:26:20Z</time>
      </trkpt>
      <trkpt lat="45.875267162919044" lon="7.735238587483764">
        <ele>2037.3900000000001</ele>
        <time>2023-10-08T09:26:30Z</time>
      </trkpt>
      <trkpt lat="45.875337906181812" lon="7.735334560275078">
        <ele>2037.98</ele>
        <time>2023-10-08T09:26:39Z</time>
      </trkpt>
      <trkpt lat="45.875431783497334" lon="7.735383175313473">
        <ele>2038.8900000000001</ele>
        <time>2023-10-08T09:26:50Z</time>
      </trkpt>
      <trkpt lat="45.875564217567444" lon="7.735442351549864">
        <ele>2039.6700000000001</ele>
        <time>2023-10-08T09:27:02Z</time>
      </trkpt>
      <trkpt lat="45.875668404623866" lon="7.735473280772567">
        <ele>2039.6500000000001</ele>
        <time>2023-10-08T09:27:10Z</time>
      </trkpt>
      <trkpt lat="45.875778710469604" lon="7.735514603555203">
        <ele>2040.96</ele>
        <time>2023-10-08T09:27:21Z</time>
      </trkpt>
      <trkpt lat="45.875889519229531" lon="7.735596159473062">
        <ele>2040.5899999999999</ele>
        <time>2023-10-08T09:27:32Z</time>
      </trkpt>
      <trkpt lat="45.876012230291963" lon="7.735641840845347">
        <ele>2041.1800000000001</ele>
        <time>2023-10-08T09:27:46Z</time>
      </trkpt>
      <trkpt lat="45.876036873087287" lon="7.735653072595596">
        <ele>2041.54</ele>
        <time>2023-10-08T09:27:59Z</time>
      </trkpt>
      <trkpt lat="45.876084566116333" lon="7.735626250505447">
        <ele>2041.5</ele>
        <time>2023-10-08T09:28:13Z</time>
      </trkpt>
      <trkpt lat="45.876117842271924" lon="7.735621053725481">
        <ele>2041.6800000000001</ele>
        <time>2023-10-08T09:28:20Z</time>
      </trkpt>
      <trkpt lat="45.876161511987448" lon="7.735628262162209">
        <ele>2041.9000000000001</ele>
        <time>2023-10-08T09:28:24Z</time>
      </trkpt>
      <trkpt lat="45.876214066520333" lon="7.735628932714462">
        <ele>2043.1400000000001</ele>
        <time>2023-10-08T09:28:30Z</time>
      </trkpt>
      <trkpt lat="45.876268381252885" lon="7.735672350972891">
        <ele>2043.8800000000001</ele>
        <time>2023-10-08T09:28:37Z</time>
      </trkpt>
      <trkpt lat="45.876341639086604" lon="7.735680062323809">
        <ele>2044.9200000000001</ele>
        <time>2023-10-08T09:28:46Z</time>
      </trkpt>
      <trkpt lat="45.876462003216147" lon="7.735758433118463">
        <ele>2045.25</ele>
        <time>2023-10-08T09:28:58Z</time>
      </trkpt>
      <trkpt lat="45.876564430072904" lon="7.735811825841665">
        <ele>2044.24</ele>
        <time>2023-10-08T09:29:09Z</time>
      </trkpt>
      <trkpt lat="45.87669812142849" lon="7.735872846096754">
        <ele>2043.9000000000001</ele>
        <time>2023-10-08T09:29:21Z</time>
      </trkpt>
      <trkpt lat="45.876819407567382" lon="7.735916096717119">
        <ele>2043.8800000000001</ele>
        <time>2023-10-08T09:29:32Z</time>
      </trkpt>
      <trkpt lat="45.876854611560702" lon="7.735955575481057">
        <ele>2044.1099999999999</ele>
        <time>2023-10-08T09:29:36Z</time>
      </trkpt>
      <trkpt lat="45.876864334568381" lon="7.735985666513443">
        <ele>2044.0799999999999</ele>
        <time>2023-10-08T09:29:38Z</time>
      </trkpt>
      <trkpt lat="45.876883529126644" lon="7.736020954325795">
        <ele>2043.9200000000001</ele>
        <time>2023-10-08T09:29:41Z</time>
      </trkpt>
      <trkpt lat="45.876910937950015" lon="7.73604123853147">
        <ele>2043.6800000000001</ele>
        <time>2023-10-08T09:29:44Z</time>
      </trkpt>
      <trkpt lat="45.87703381665051" lon="7.736064791679382">
        <ele>2043.6400000000001</ele>
        <time>2023-10-08T09:29:55Z</time>
      </trkpt>
      <trkpt lat="45.877164322882891" lon="7.736133523285389">
        <ele>2043.3399999999999</ele>
        <time>2023-10-08T09:30:07Z</time>
      </trkpt>
      <trkpt lat="45.877292733639479" lon="7.736184988170862">
        <ele>2043.1900000000001</ele>
        <time>2023-10-08T09:30:18Z</time>
      </trkpt>
      <trkpt lat="45.877440338954329" lon="7.736242823302746">
        <ele>2043.5799999999999</ele>
        <time>2023-10-08T09:30:31Z</time>
      </trkpt>
      <trkpt lat="45.877592470496893" lon="7.736302670091391">
        <ele>2043.5999999999999</ele>
        <time>2023-10-08T09:30:44Z</time>
      </trkpt>
      <trkpt lat="45.877662962302566" lon="7.736342903226614">
        <ele>2043.8599999999999</ele>
        <time>2023-10-08T09:30:55Z</time>
      </trkpt>
      <trkpt lat="45.877721719443798" lon="7.736410042271018">
        <ele>2043.6600000000001</ele>
        <time>2023-10-08T09:31:09Z</time>
      </trkpt>
      <trkpt lat="45.877799419686198" lon="7.736415239050984">
        <ele>2044.05</ele>
        <time>2023-10-08T09:31:23Z</time>
      </trkpt>
      <trkpt lat="45.877817776054144" lon="7.736440300941467">
        <ele>2044.55</ele>
        <time>2023-10-08T09:31:41Z</time>
      </trkpt>
      <trkpt lat="45.877824230119586" lon="7.736439546570182">
        <ele>2044.6099999999999</ele>
        <time>2023-10-08T09:31:43Z</time>
      </trkpt>
      <trkpt lat="45.877839317545295" lon="7.736480534076691">
        <ele>2043.1800000000001</ele>
        <time>2023-10-08T09:31:59Z</time>
      </trkpt>
      <trkpt lat="45.877859853208065" lon="7.736482545733452">
        <ele>2044.45</ele>
        <time>2023-10-08T09:32:30Z</time>
      </trkpt>
      <trkpt lat="45.877880053594708" lon="7.73648246191442">
        <ele>2044.24</ele>
        <time>2023-10-08T09:32:44Z</time>
      </trkpt>
      <trkpt lat="45.877908300608397" lon="7.736486233770847">
        <ele>2044.3900000000001</ele>
        <time>2023-10-08T09:33:21Z</time>
      </trkpt>
      <trkpt lat="45.878013493493199" lon="7.736516743898392">
        <ele>2044.6700000000001</ele>
        <time>2023-10-08T09:33:35Z</time>
      </trkpt>
      <trkpt lat="45.878011733293533" lon="7.736521605402231">
        <ele>2044.8499999999999</ele>
        <time>2023-10-08T09:33:49Z</time>
      </trkpt>
      <trkpt lat="45.878078201785684" lon="7.736532920971513">
        <ele>2044.3199999999999</ele>
        <time>2023-10-08T09:34:22Z</time>
      </trkpt>
      <trkpt lat="45.878090271726251" lon="7.736555887386203">
        <ele>2043.26</ele>
        <time>2023-10-08T09:35:59Z</time>
      </trkpt>
      <trkpt lat="45.87808926589787" lon="7.736555468291044">
        <ele>2044.05</ele>
        <time>2023-10-08T09:36:47Z</time>
      </trkpt>
      <trkpt lat="45.8780946303159" lon="7.736562676727772">
        <ele>2044.3399999999999</ele>
        <time>2023-10-08T09:37:06Z</time>
      </trkpt>
      <trkpt lat="45.878132600337267" lon="7.736557982861996">
        <ele>2044.27</ele>
        <time>2023-10-08T09:37:25Z</time>
      </trkpt>
      <trkpt lat="45.878168223425746" lon="7.736571142449975">
        <ele>2044.73</ele>
        <time>2023-10-08T09:37:30Z</time>
      </trkpt>
      <trkpt lat="45.87828372605145" lon="7.736574998125434">
        <ele>2045.22</ele>
        <time>2023-10-08T09:37:44Z</time>
      </trkpt>
      <trkpt lat="45.878316080197692" lon="7.736583799123764">
        <ele>2045.3099999999999</ele>
        <time>2023-10-08T09:37:59Z</time>
      </trkpt>
      <trkpt lat="45.878327982500196" lon="7.736576674506068">
        <ele>2045.2</ele>
        <time>2023-10-08T09:38:13Z</time>
      </trkpt>
      <trkpt lat="45.878380117937922" lon="7.736570220440626">
        <ele>2045.4400000000001</ele>
        <time>2023-10-08T09:38:35Z</time>
      </trkpt>
      <trkpt lat="45.878490339964628" lon="7.736538033932447">
        <ele>2045.3399999999999</ele>
        <time>2023-10-08T09:38:49Z</time>
      </trkpt>
      <trkpt lat="45.87859301827848" lon="7.736512552946806">
        <ele>2046.52</ele>
        <time>2023-10-08T09:39:02Z</time>
      </trkpt>
      <trkpt lat="45.878699468448758" lon="7.736490592360497">
        <ele>2047.2</ele>
        <time>2023-10-08T09:39:14Z</time>
      </trkpt>
      <trkpt lat="45.878797201439738" lon="7.736513894051313">
        <ele>2047.72</ele>
        <time>2023-10-08T09:39:25Z</time>
      </trkpt>
      <trkpt lat="45.878894934430718" lon="7.736609950661659">
        <ele>2048.23</ele>
        <time>2023-10-08T09:39:38Z</time>
      </trkpt>
      <trkpt lat="45.87892678566277" lon="7.736616907641292">
        <ele>2048.6300000000001</ele>
        <time>2023-10-08T09:39:42Z</time>
      </trkpt>
      <trkpt lat="45.879062321037054" lon="7.73656502366066">
        <ele>2049.52</ele>
        <time>2023-10-08T09:39:57Z</time>
      </trkpt>
      <trkpt lat="45.879198862239718" lon="7.73657625541091">
        <ele>2050.7800000000002</ele>
        <time>2023-10-08T09:40:11Z</time>
      </trkpt>
      <trkpt lat="45.879324339330196" lon="7.73662269115448">
        <ele>2052.5500000000002</ele>
        <time>2023-10-08T09:40:25Z</time>
      </trkpt>
      <trkpt lat="45.879448894411325" lon="7.736619086936116">
        <ele>2053.5700000000002</ele>
        <time>2023-10-08T09:40:38Z</time>
      </trkpt>
      <trkpt lat="45.879558864980936" lon="7.736626295372844">
        <ele>2053.7800000000002</ele>
        <time>2023-10-08T09:40:49Z</time>
      </trkpt>
      <trkpt lat="45.879667410627007" lon="7.736621182411909">
        <ele>2054.3800000000001</ele>
        <time>2023-10-08T09:41:00Z</time>
      </trkpt>
      <trkpt lat="45.879797162488103" lon="7.736642053350806">
        <ele>2054.8299999999999</ele>
        <time>2023-10-08T09:41:12Z</time>
      </trkpt>
      <trkpt lat="45.879989108070731" lon="7.736683208495379">
        <ele>2055.71</ele>
        <time>2023-10-08T09:41:30Z</time>
      </trkpt>
      <trkpt lat="45.880155321210623" lon="7.736716819927096">
        <ele>2056.3899999999999</ele>
        <time>2023-10-08T09:41:47Z</time>
      </trkpt>
      <trkpt lat="45.88026856072247" lon="7.736768536269665">
        <ele>2056.9899999999998</ele>
        <time>2023-10-08T09:42:00Z</time>
      </trkpt>
      <trkpt lat="45.880328491330147" lon="7.736863335594535">
        <ele>2057.7600000000002</ele>
        <time>2023-10-08T09:42:13Z</time>
      </trkpt>
      <trkpt lat="45.880328323692083" lon="7.736858054995537">
        <ele>2057.9000000000001</ele>
        <time>2023-10-08T09:42:31Z</time>
      </trkpt>
      <trkpt lat="45.88033352047205" lon="7.736859731376171">
        <ele>2058.0700000000002</ele>
        <time>2023-10-08T09:42:48Z</time>
      </trkpt>
      <trkpt lat="45.880341483280063" lon="7.736860401928425">
        <ele>2058.4299999999998</ele>
        <time>2023-10-08T09:43:04Z</time>
      </trkpt>
      <trkpt lat="45.880356319248676" lon="7.736857384443283">
        <ele>2058.4299999999998</ele>
        <time>2023-10-08T09:43:25Z</time>
      </trkpt>
      <trkpt lat="45.880358247086406" lon="7.736856210976839">
        <ele>2058.2199999999998</ele>
        <time>2023-10-08T09:43:45Z</time>
      </trkpt>
      <trkpt lat="45.880428655073047" lon="7.736874148249626">
        <ele>2058.9699999999998</ele>
        <time>2023-10-08T09:43:59Z</time>
      </trkpt>
      <trkpt lat="45.88045229203999" lon="7.736877668648958">
        <ele>2058.98</ele>
        <time>2023-10-08T09:44:02Z</time>
      </trkpt>
      <trkpt lat="45.880540637299418" lon="7.736909100785852">
        <ele>2059.3099999999999</ele>
        <time>2023-10-08T09:44:13Z</time>
      </trkpt>
      <trkpt lat="45.880549605935812" lon="7.736910274252296">
        <ele>2059.3899999999999</ele>
        <time>2023-10-08T09:44:14Z</time>
      </trkpt>
      <trkpt lat="45.880654379725456" lon="7.736968528479338">
        <ele>2059.9899999999998</ele>
        <time>2023-10-08T09:44:28Z</time>
      </trkpt>
      <trkpt lat="45.880784299224615" lon="7.737055532634258">
        <ele>2060.5700000000002</ele>
        <time>2023-10-08T09:44:45Z</time>
      </trkpt>
      <trkpt lat="45.880881194025278" lon="7.737118732184172">
        <ele>2061.29</ele>
        <time>2023-10-08T09:44:57Z</time>
      </trkpt>
      <trkpt lat="45.880999714136124" lon="7.737190397456288">
        <ele>2062.3400000000001</ele>
        <time>2023-10-08T09:45:11Z</time>
      </trkpt>
      <trkpt lat="45.881095854565501" lon="7.7372554410249">
        <ele>2062.9499999999998</ele>
        <time>2023-10-08T09:45:23Z</time>
      </trkpt>
      <trkpt lat="45.88121990673244" lon="7.737347474321723">
        <ele>2063.8499999999999</ele>
        <time>2023-10-08T09:45:38Z</time>
      </trkpt>
      <trkpt lat="45.881345048546791" lon="7.737424504011869">
        <ele>2064.7600000000002</ele>
        <time>2023-10-08T09:45:54Z</time>
      </trkpt>
      <trkpt lat="45.881478488445282" lon="7.737504718825221">
        <ele>2065.79</ele>
        <time>2023-10-08T09:46:08Z</time>
      </trkpt>
      <trkpt lat="45.88162986561656" lon="7.737570852041245">
        <ele>2066.6199999999999</ele>
        <time>2023-10-08T09:46:24Z</time>
      </trkpt>
      <trkpt lat="45.881771352142096" lon="7.73767126724124">
        <ele>2067.8400000000001</ele>
        <time>2023-10-08T09:46:40Z</time>
      </trkpt>
      <trkpt lat="45.881920885294676" lon="7.737739412114024">
        <ele>2068.6900000000001</ele>
        <time>2023-10-08T09:46:57Z</time>
      </trkpt>
      <trkpt lat="45.882051810622215" lon="7.737790709361434">
        <ele>2069.3699999999999</ele>
        <time>2023-10-08T09:47:11Z</time>
      </trkpt>
      <trkpt lat="45.882199499756098" lon="7.73782666772604">
        <ele>2070.1399999999999</ele>
        <time>2023-10-08T09:47:26Z</time>
      </trkpt>
      <trkpt lat="45.88234425522387" lon="7.737870253622532">
        <ele>2070.77</ele>
        <time>2023-10-08T09:47:40Z</time>
      </trkpt>
      <trkpt lat="45.882473420351744" lon="7.737892884761095">
        <ele>2071.4099999999999</ele>
        <time>2023-10-08T09:47:53Z</time>
      </trkpt>
      <trkpt lat="45.882592359557748" lon="7.737945271655917">
        <ele>2072.1900000000001</ele>
        <time>2023-10-08T09:48:06Z</time>
      </trkpt>
      <trkpt lat="45.882696630433202" lon="7.738019032403827">
        <ele>2072.9400000000001</ele>
        <time>2023-10-08T09:48:18Z</time>
      </trkpt>
      <trkpt lat="45.88283040560782" lon="7.73812472820282">
        <ele>2073.8600000000001</ele>
        <time>2023-10-08T09:48:34Z</time>
      </trkpt>
      <trkpt lat="45.882950434461236" lon="7.738262107595801">
        <ele>2074.98</ele>
        <time>2023-10-08T09:48:50Z</time>
      </trkpt>
      <trkpt lat="45.883059063926339" lon="7.738389596343041">
        <ele>2076.3200000000002</ele>
        <time>2023-10-08T09:49:05Z</time>
      </trkpt>
      <trkpt lat="45.88315729983151" lon="7.738482803106308">
        <ele>2077.0300000000002</ele>
        <time>2023-10-08T09:49:17Z</time>
      </trkpt>
      <trkpt lat="45.883272718638182" lon="7.738532843068242">
        <ele>2077.5700000000002</ele>
        <time>2023-10-08T09:49:28Z</time>
      </trkpt>
      <trkpt lat="45.883283782750368" lon="7.73853812366724">
        <ele>2077.71</ele>
        <time>2023-10-08T09:49:29Z</time>
      </trkpt>
      <trkpt lat="45.883307922631502" lon="7.738543236628175">
        <ele>2077.6599999999999</ele>
        <time>2023-10-08T09:49:31Z</time>
      </trkpt>
      <trkpt lat="45.883488217368722" lon="7.738648345693946">
        <ele>2078.3899999999999</ele>
        <time>2023-10-08T09:49:49Z</time>
      </trkpt>
      <trkpt lat="45.883613275364041" lon="7.738726129755378">
        <ele>2078.8699999999999</ele>
        <time>2023-10-08T09:50:02Z</time>
      </trkpt>
      <trkpt lat="45.883747637271881" lon="7.738818749785423">
        <ele>2079.6300000000001</ele>
        <time>2023-10-08T09:50:16Z</time>
      </trkpt>
      <trkpt lat="45.883890548720956" lon="7.738879937678576">
        <ele>2080.6199999999999</ele>
        <time>2023-10-08T09:50:31Z</time>
      </trkpt>
      <trkpt lat="45.884042680263519" lon="7.738954704254866">
        <ele>2081.9299999999998</ele>
        <time>2023-10-08T09:50:47Z</time>
      </trkpt>
      <trkpt lat="45.884157931432128" lon="7.738993428647518">
        <ele>2082.8099999999999</ele>
        <time>2023-10-08T09:50:59Z</time>
      </trkpt>
      <trkpt lat="45.884278798475862" lon="7.739109182730317">
        <ele>2083.6799999999998</ele>
        <time>2023-10-08T09:51:13Z</time>
      </trkpt>
      <trkpt lat="45.88433294557035" lon="7.739173555746675">
        <ele>2083.9899999999998</ele>
        <time>2023-10-08T09:51:20Z</time>
      </trkpt>
      <trkpt lat="45.884491195902228" lon="7.73922074586153">
        <ele>2085.3299999999999</ele>
        <time>2023-10-08T09:51:37Z</time>
      </trkpt>
      <trkpt lat="45.884618014097214" lon="7.73926667869091">
        <ele>2086.7199999999998</ele>
        <time>2023-10-08T09:51:50Z</time>
      </trkpt>
      <trkpt lat="45.884676519781351" lon="7.739293165504932">
        <ele>2087.2399999999998</ele>
        <time>2023-10-08T09:52:01Z</time>
      </trkpt>
      <trkpt lat="45.884678615257144" lon="7.739291405305266">
        <ele>2086.8899999999999</ele>
        <time>2023-10-08T09:52:18Z</time>
      </trkpt>
      <trkpt lat="45.884739635512233" lon="7.739383773878217">
        <ele>2087.6500000000001</ele>
        <time>2023-10-08T09:52:35Z</time>
      </trkpt>
      <trkpt lat="45.884825214743614" lon="7.739513022825122">
        <ele>2088.8499999999999</ele>
        <time>2023-10-08T09:52:50Z</time>
      </trkpt>
      <trkpt lat="45.884897131472826" lon="7.739608744159341">
        <ele>2090.0300000000002</ele>
        <time>2023-10-08T09:53:02Z</time>
      </trkpt>
      <trkpt lat="45.885004252195358" lon="7.739711925387383">
        <ele>2091.75</ele>
        <time>2023-10-08T09:53:17Z</time>
      </trkpt>
      <trkpt lat="45.885025877505541" lon="7.739731203764677">
        <ele>2091.8000000000002</ele>
        <time>2023-10-08T09:53:21Z</time>
      </trkpt>
      <trkpt lat="45.885094525292516" lon="7.739823320880532">
        <ele>2092.46</ele>
        <time>2023-10-08T09:53:32Z</time>
      </trkpt>
      <trkpt lat="45.885186223313212" lon="7.7399130910635">
        <ele>2093.3899999999999</ele>
        <time>2023-10-08T09:53:46Z</time>
      </trkpt>
      <trkpt lat="45.885214637964964" lon="7.739956844598055">
        <ele>2093.77</ele>
        <time>2023-10-08T09:54:58Z</time>
      </trkpt>
      <trkpt lat="45.885242884978652" lon="7.739947959780693">
        <ele>2094.2600000000002</ele>
        <time>2023-10-08T09:55:43Z</time>
      </trkpt>
      <trkpt lat="45.885247997939587" lon="7.739947121590376">
        <ele>2094.1100000000001</ele>
        <time>2023-10-08T09:56:02Z</time>
      </trkpt>
      <trkpt lat="45.885236095637083" lon="7.739953156560659">
        <ele>2093.5900000000001</ele>
        <time>2023-10-08T09:57:08Z</time>
      </trkpt>
      <trkpt lat="45.885255793109536" lon="7.739945780485869">
        <ele>2093.7199999999998</ele>
        <time>2023-10-08T09:57:25Z</time>
      </trkpt>
      <trkpt lat="45.885342042893171" lon="7.739915857091546">
        <ele>2095.3200000000002</ele>
        <time>2023-10-08T09:57:37Z</time>
      </trkpt>
      <trkpt lat="45.885398034006357" lon="7.739960867911577">
        <ele>2096.5599999999999</ele>
        <time>2023-10-08T09:57:48Z</time>
      </trkpt>
      <trkpt lat="45.885460395365953" lon="7.739973021671176">
        <ele>2097.0799999999999</ele>
        <time>2023-10-08T09:57:56Z</time>
      </trkpt>
      <trkpt lat="45.885482272133231" lon="7.739981152117252">
        <ele>2097.1599999999999</ele>
        <time>2023-10-08T09:57:58Z</time>
      </trkpt>
      <trkpt lat="45.88558386079967" lon="7.740048207342625">
        <ele>2098.1900000000001</ele>
        <time>2023-10-08T09:58:10Z</time>
      </trkpt>
      <trkpt lat="45.885601043701172" lon="7.740060109645128">
        <ele>2098.54</ele>
        <time>2023-10-08T09:58:12Z</time>
      </trkpt>
      <trkpt lat="45.88570062071085" lon="7.740099169313908">
        <ele>2099.27</ele>
        <time>2023-10-08T09:58:24Z</time>
      </trkpt>
      <trkpt lat="45.885735908523202" lon="7.740116938948631">
        <ele>2099.9499999999998</ele>
        <time>2023-10-08T09:58:38Z</time>
      </trkpt>
      <trkpt lat="45.885754683986306" lon="7.740071341395378">
        <ele>2100.4899999999998</ele>
        <time>2023-10-08T09:58:49Z</time>
      </trkpt>
      <trkpt lat="45.885754264891148" lon="7.73997905664146">
        <ele>2102.7600000000002</ele>
        <time>2023-10-08T09:59:03Z</time>
      </trkpt>
      <trkpt lat="45.885829534381628" lon="7.739955587312579">
        <ele>2105.1500000000001</ele>
        <time>2023-10-08T09:59:17Z</time>
      </trkpt>
      <trkpt lat="45.885903546586633" lon="7.740009566769004">
        <ele>2107.1799999999998</ele>
        <time>2023-10-08T09:59:31Z</time>
      </trkpt>
      <trkpt lat="45.885996837168932" lon="7.740083998069167">
        <ele>2108.3000000000002</ele>
        <time>2023-10-08T09:59:45Z</time>
      </trkpt>
      <trkpt lat="45.886060371994972" lon="7.74011735804379">
        <ele>2110.77</ele>
        <time>2023-10-08T10:00:00Z</time>
      </trkpt>
      <trkpt lat="45.886152405291796" lon="7.74007972329855">
        <ele>2113.4200000000001</ele>
        <time>2023-10-08T10:00:18Z</time>
      </trkpt>
      <trkpt lat="45.886244187131524" lon="7.740108724683523">
        <ele>2115.5100000000002</ele>
        <time>2023-10-08T10:00:33Z</time>
      </trkpt>
      <trkpt lat="45.886260699480772" lon="7.740162033587694">
        <ele>2116.8400000000001</ele>
        <time>2023-10-08T10:00:47Z</time>
      </trkpt>
      <trkpt lat="45.886297998949885" lon="7.740192208439112">
        <ele>2118.2800000000002</ele>
        <time>2023-10-08T10:00:59Z</time>
      </trkpt>
      <trkpt lat="45.886321468278766" lon="7.740189023315907">
        <ele>2118.9899999999998</ele>
        <time>2023-10-08T10:01:10Z</time>
      </trkpt>
      <trkpt lat="45.886356336995959" lon="7.740207044407725">
        <ele>2120.98</ele>
        <time>2023-10-08T10:01:18Z</time>
      </trkpt>
      <trkpt lat="45.886433450505137" lon="7.740246271714568">
        <ele>2121.8400000000001</ele>
        <time>2023-10-08T10:01:29Z</time>
      </trkpt>
      <trkpt lat="45.886507714167237" lon="7.740281140431762">
        <ele>2123.6700000000001</ele>
        <time>2023-10-08T10:01:43Z</time>
      </trkpt>
      <trkpt lat="45.886579127982259" lon="7.740312991663814">
        <ele>2125.3400000000001</ele>
        <time>2023-10-08T10:01:56Z</time>
      </trkpt>
      <trkpt lat="45.886664036661386" lon="7.740312069654465">
        <ele>2127.4899999999998</ele>
        <time>2023-10-08T10:02:12Z</time>
      </trkpt>
      <trkpt lat="45.886717597022653" lon="7.740338472649455">
        <ele>2129.3699999999999</ele>
        <time>2023-10-08T10:02:26Z</time>
      </trkpt>
      <trkpt lat="45.886767050251365" lon="7.740344507619739">
        <ele>2131.5700000000002</ele>
        <time>2023-10-08T10:02:45Z</time>
      </trkpt>
      <trkpt lat="45.886822957545519" lon="7.740330258384347">
        <ele>2133.27</ele>
        <time>2023-10-08T10:03:00Z</time>
      </trkpt>
      <trkpt lat="45.88689386844635" lon="7.740388931706548">
        <ele>2135.1300000000001</ele>
        <time>2023-10-08T10:03:15Z</time>
      </trkpt>
      <trkpt lat="45.886990176513791" lon="7.740465458482504">
        <ele>2136.5300000000002</ele>
        <time>2023-10-08T10:03:30Z</time>
      </trkpt>
      <trkpt lat="45.887038037180901" lon="7.740445425733924">
        <ele>2138.2399999999998</ele>
        <time>2023-10-08T10:03:41Z</time>
      </trkpt>
      <trkpt lat="45.887076426297426" lon="7.740467973053455">
        <ele>2139.98</ele>
        <time>2023-10-08T10:03:53Z</time>
      </trkpt>
      <trkpt lat="45.887112552300096" lon="7.740529328584671">
        <ele>2141.4200000000001</ele>
        <time>2023-10-08T10:04:06Z</time>
      </trkpt>
      <trkpt lat="45.887147337198257" lon="7.740503931418061">
        <ele>2142.8600000000001</ele>
        <time>2023-10-08T10:04:18Z</time>
      </trkpt>
      <trkpt lat="45.887196455150843" lon="7.740506697446108">
        <ele>2144.5100000000002</ele>
        <time>2023-10-08T10:04:32Z</time>
      </trkpt>
      <trkpt lat="45.887236353009939" lon="7.740483228117228">
        <ele>2146.0300000000002</ele>
        <time>2023-10-08T10:04:45Z</time>
      </trkpt>
      <trkpt lat="45.887290332466364" lon="7.740508206188679">
        <ele>2147.4699999999998</ele>
        <time>2023-10-08T10:04:57Z</time>
      </trkpt>
      <trkpt lat="45.887317238375545" lon="7.740552462637425">
        <ele>2149.0599999999999</ele>
        <time>2023-10-08T10:05:12Z</time>
      </trkpt>
      <trkpt lat="45.88737465441227" lon="7.740592360496521">
        <ele>2150.2399999999998</ele>
        <time>2023-10-08T10:05:26Z</time>
      </trkpt>
      <trkpt lat="45.887414384633303" lon="7.740650195628405">
        <ele>2152.1100000000001</ele>
        <time>2023-10-08T10:05:38Z</time>
      </trkpt>
      <trkpt lat="45.887500299140811" lon="7.740670563653112">
        <ele>2153.9000000000001</ele>
        <time>2023-10-08T10:05:55Z</time>
      </trkpt>
      <trkpt lat="45.887531982734799" lon="7.740651788190007">
        <ele>2154.8299999999999</ele>
        <time>2023-10-08T10:06:08Z</time>
      </trkpt>
      <trkpt lat="45.887609850615263" lon="7.740669054910541">
        <ele>2156.8299999999999</ele>
        <time>2023-10-08T10:06:22Z</time>
      </trkpt>
      <trkpt lat="45.887717725709081" lon="7.740738540887833">
        <ele>2157.0100000000002</ele>
        <time>2023-10-08T10:06:36Z</time>
      </trkpt>
      <trkpt lat="45.887799616903067" lon="7.740731248632073">
        <ele>2158.9000000000001</ele>
        <time>2023-10-08T10:06:50Z</time>
      </trkpt>
      <trkpt lat="45.887905228883028" lon="7.740754215046763">
        <ele>2160.8800000000001</ele>
        <time>2023-10-08T10:07:06Z</time>
      </trkpt>
      <trkpt lat="45.887978905811906" lon="7.740775085985661">
        <ele>2163.71</ele>
        <time>2023-10-08T10:07:21Z</time>
      </trkpt>
      <trkpt lat="45.888030622154474" lon="7.74080291390419">
        <ele>2165.3200000000002</ele>
        <time>2023-10-08T10:07:37Z</time>
      </trkpt>
      <trkpt lat="45.888070603832603" lon="7.740809451788664">
        <ele>2167.4000000000001</ele>
        <time>2023-10-08T10:07:53Z</time>
      </trkpt>
      <trkpt lat="45.888138581067324" lon="7.740833591669798">
        <ele>2168.8000000000002</ele>
        <time>2023-10-08T10:08:05Z</time>
      </trkpt>
      <trkpt lat="45.888194991275668" lon="7.740892097353935">
        <ele>2169.8000000000002</ele>
        <time>2023-10-08T10:08:16Z</time>
      </trkpt>
      <trkpt lat="45.88827227242291" lon="7.740955548360944">
        <ele>2171.3400000000001</ele>
        <time>2023-10-08T10:08:31Z</time>
      </trkpt>
      <trkpt lat="45.888359360396862" lon="7.741015898063779">
        <ele>2171.8499999999999</ele>
        <time>2023-10-08T10:08:43Z</time>
      </trkpt>
      <trkpt lat="45.888393055647612" lon="7.741023693233728">
        <ele>2172.1199999999999</ele>
        <time>2023-10-08T10:08:53Z</time>
      </trkpt>
      <trkpt lat="45.888420129194856" lon="7.741011371836066">
        <ele>2172.3600000000001</ele>
        <time>2023-10-08T10:09:11Z</time>
      </trkpt>
      <trkpt lat="45.888444604352117" lon="7.741060573607683">
        <ele>2172.2399999999998</ele>
        <time>2023-10-08T10:09:25Z</time>
      </trkpt>
      <trkpt lat="45.888539236038923" lon="7.74109167046845">
        <ele>2173.2199999999998</ele>
        <time>2023-10-08T10:09:36Z</time>
      </trkpt>
      <trkpt lat="45.888618025928736" lon="7.741120168939233">
        <ele>2175.1399999999999</ele>
        <time>2023-10-08T10:09:46Z</time>
      </trkpt>
      <trkpt lat="45.888673346489668" lon="7.741122180595994">
        <ele>2177.4499999999998</ele>
        <time>2023-10-08T10:10:00Z</time>
      </trkpt>
      <trkpt lat="45.888724643737078" lon="7.741137770935893">
        <ele>2178.1599999999999</ele>
        <time>2023-10-08T10:10:16Z</time>
      </trkpt>
      <trkpt lat="45.888791615143418" lon="7.741137938573957">
        <ele>2180.1599999999999</ele>
        <time>2023-10-08T10:10:30Z</time>
      </trkpt>
      <trkpt lat="45.888899071142077" lon="7.7411806024611">
        <ele>2181.6399999999999</ele>
        <time>2023-10-08T10:10:45Z</time>
      </trkpt>
      <trkpt lat="45.889000073075294" lon="7.74124757386744">
        <ele>2182.8899999999999</ele>
        <time>2023-10-08T10:11:00Z</time>
      </trkpt>
      <trkpt lat="45.88904189877212" lon="7.741346061229706">
        <ele>2181.8000000000002</ele>
        <time>2023-10-08T10:11:13Z</time>
      </trkpt>
      <trkpt lat="45.88909856043756" lon="7.741428287699819">
        <ele>2181.6199999999999</ele>
        <time>2023-10-08T10:11:22Z</time>
      </trkpt>
      <trkpt lat="45.889138793572783" lon="7.741505485028029">
        <ele>2181.6599999999999</ele>
        <time>2023-10-08T10:11:31Z</time>
      </trkpt>
      <trkpt lat="45.889210207387805" lon="7.741549909114838">
        <ele>2182.6999999999998</ele>
        <time>2023-10-08T10:11:43Z</time>
      </trkpt>
      <trkpt lat="45.889278687536716" lon="7.741581173613668">
        <ele>2184.3400000000001</ele>
        <time>2023-10-08T10:11:55Z</time>
      </trkpt>
      <trkpt lat="45.889334259554744" lon="7.741623166948557">
        <ele>2185.2399999999998</ele>
        <time>2023-10-08T10:12:06Z</time>
      </trkpt>
      <trkpt lat="45.889410031959414" lon="7.741654012352228">
        <ele>2187.48</ele>
        <time>2023-10-08T10:12:19Z</time>
      </trkpt>
      <trkpt lat="45.889480523765087" lon="7.741648564115167">
        <ele>2186.8899999999999</ele>
        <time>2023-10-08T10:12:28Z</time>
      </trkpt>
      <trkpt lat="45.889534587040544" lon="7.7416951674968">
        <ele>2188.0999999999999</ele>
        <time>2023-10-08T10:12:52Z</time>
      </trkpt>
      <trkpt lat="45.889604240655899" lon="7.741719055920839">
        <ele>2190.5100000000002</ele>
        <time>2023-10-08T10:13:06Z</time>
      </trkpt>
      <trkpt lat="45.889637852087617" lon="7.741722073405981">
        <ele>2192.5799999999999</ele>
        <time>2023-10-08T10:13:21Z</time>
      </trkpt>
      <trkpt lat="45.889675235375762" lon="7.741741016507149">
        <ele>2194.5700000000002</ele>
        <time>2023-10-08T10:13:36Z</time>
      </trkpt>
      <trkpt lat="45.889706332236528" lon="7.74177965708077">
        <ele>2195.5300000000002</ele>
        <time>2023-10-08T10:13:48Z</time>
      </trkpt>
      <trkpt lat="45.889742793515325" lon="7.741789883002639">
        <ele>2196.9899999999998</ele>
        <time>2023-10-08T10:14:00Z</time>
      </trkpt>
      <trkpt lat="45.889769112691283" lon="7.741810753941536">
        <ele>2198.3200000000002</ele>
        <time>2023-10-08T10:14:13Z</time>
      </trkpt>
      <trkpt lat="45.889787469059229" lon="7.741839671507478">
        <ele>2199.7800000000002</ele>
        <time>2023-10-08T10:14:27Z</time>
      </trkpt>
      <trkpt lat="45.889855530112982" lon="7.741919551044703">
        <ele>2201.5599999999999</ele>
        <time>2023-10-08T10:14:41Z</time>
      </trkpt>
      <trkpt lat="45.889917137101293" lon="7.741934387013316">
        <ele>2204.48</ele>
        <time>2023-10-08T10:14:55Z</time>
      </trkpt>
      <trkpt lat="45.889980169013143" lon="7.741980906575918">
        <ele>2205.9000000000001</ele>
        <time>2023-10-08T10:15:08Z</time>
      </trkpt>
      <trkpt lat="45.890025431290269" lon="7.742012087255716">
        <ele>2207.71</ele>
        <time>2023-10-08T10:15:20Z</time>
      </trkpt>
      <trkpt lat="45.89009533636272" lon="7.742065479978919">
        <ele>2208.8499999999999</ele>
        <time>2023-10-08T10:15:33Z</time>
      </trkpt>
      <trkpt lat="45.890087457373738" lon="7.742062043398619">
        <ele>2208.4400000000001</ele>
        <time>2023-10-08T10:15:48Z</time>
      </trkpt>
      <trkpt lat="45.890143280848861" lon="7.742116441950202">
        <ele>2209.5300000000002</ele>
        <time>2023-10-08T10:16:02Z</time>
      </trkpt>
      <trkpt lat="45.890175886452198" lon="7.74217939004302">
        <ele>2210.8099999999999</ele>
        <time>2023-10-08T10:16:15Z</time>
      </trkpt>
      <trkpt lat="45.890175634995103" lon="7.742250887677074">
        <ele>2211.73</ele>
        <time>2023-10-08T10:16:28Z</time>
      </trkpt>
      <trkpt lat="45.890187118202448" lon="7.742254240438342">
        <ele>2211.9299999999998</ele>
        <time>2023-10-08T10:16:45Z</time>
      </trkpt>
      <trkpt lat="45.890207821503282" lon="7.742338059470058">
        <ele>2212.3499999999999</ele>
        <time>2023-10-08T10:16:58Z</time>
      </trkpt>
      <trkpt lat="45.890256687998772" lon="7.74240025319159">
        <ele>2213.6599999999999</ele>
        <time>2023-10-08T10:17:10Z</time>
      </trkpt>
      <trkpt lat="45.890322485938668" lon="7.742470493540168">
        <ele>2214.8899999999999</ele>
        <time>2023-10-08T10:17:23Z</time>
      </trkpt>
      <trkpt lat="45.890371771529317" lon="7.742512654513121">
        <ele>2215.4499999999998</ele>
        <time>2023-10-08T10:17:35Z</time>
      </trkpt>
      <trkpt lat="45.890392307192087" lon="7.742540230974555">
        <ele>2215.5300000000002</ele>
        <time>2023-10-08T10:17:50Z</time>
      </trkpt>
      <trkpt lat="45.89039096608758" lon="7.742632515728474">
        <ele>2215.23</ele>
        <time>2023-10-08T10:18:00Z</time>
      </trkpt>
      <trkpt lat="45.890384763479233" lon="7.742677694186568">
        <ele>2216.5300000000002</ele>
        <time>2023-10-08T10:18:06Z</time>
      </trkpt>
      <trkpt lat="45.890412172302604" lon="7.742808870971203">
        <ele>2216.3400000000001</ele>
        <time>2023-10-08T10:18:21Z</time>
      </trkpt>
      <trkpt lat="45.890450896695256" lon="7.742909789085388">
        <ele>2216.4099999999999</ele>
        <time>2023-10-08T10:18:34Z</time>
      </trkpt>
      <trkpt lat="45.890476880595088" lon="7.7429817058146">
        <ele>2216.4200000000001</ele>
        <time>2023-10-08T10:18:47Z</time>
      </trkpt>
      <trkpt lat="45.890479814261198" lon="7.743045156821609">
        <ele>2216.7399999999998</ele>
        <time>2023-10-08T10:19:00Z</time>
      </trkpt>
      <trkpt lat="45.890489872545004" lon="7.743047587573528">
        <ele>2216.6999999999998</ele>
        <time>2023-10-08T10:19:16Z</time>
      </trkpt>
      <trkpt lat="45.89047159999609" lon="7.743110116571188">
        <ele>2216.8899999999999</ele>
        <time>2023-10-08T10:19:33Z</time>
      </trkpt>
      <trkpt lat="45.890479227527976" lon="7.743202485144138">
        <ele>2218.0500000000002</ele>
        <time>2023-10-08T10:19:47Z</time>
      </trkpt>
      <trkpt lat="45.890480065718293" lon="7.743275156244636">
        <ele>2219.2399999999998</ele>
        <time>2023-10-08T10:20:04Z</time>
      </trkpt>
      <trkpt lat="45.890490962192416" lon="7.743381354957819">
        <ele>2218.8600000000001</ele>
        <time>2023-10-08T10:20:15Z</time>
      </trkpt>
      <trkpt lat="45.890502026304603" lon="7.743429467082024">
        <ele>2218.8800000000001</ele>
        <time>2023-10-08T10:20:29Z</time>
      </trkpt>
      <trkpt lat="45.890512336045504" lon="7.74348009377718">
        <ele>2218.3899999999999</ele>
        <time>2023-10-08T10:20:34Z</time>
      </trkpt>
      <trkpt lat="45.890520634129643" lon="7.743668854236603">
        <ele>2218.25</ele>
        <time>2023-10-08T10:20:48Z</time>
      </trkpt>
      <trkpt lat="45.89052926748991" lon="7.743709087371826">
        <ele>2218.0999999999999</ele>
        <time>2023-10-08T10:21:01Z</time>
      </trkpt>
      <trkpt lat="45.89051166549325" lon="7.74375275708735">
        <ele>2217.3699999999999</ele>
        <time>2023-10-08T10:21:52Z</time>
      </trkpt>
      <trkpt lat="45.890504792332649" lon="7.7438641525805">
        <ele>2217.71</ele>
        <time>2023-10-08T10:22:00Z</time>
      </trkpt>
      <trkpt lat="45.890487106516957" lon="7.744014356285334">
        <ele>2218.6100000000001</ele>
        <time>2023-10-08T10:22:12Z</time>
      </trkpt>
      <trkpt lat="45.890486352145672" lon="7.744053415954113">
        <ele>2218.54</ele>
        <time>2023-10-08T10:22:15Z</time>
      </trkpt>
      <trkpt lat="45.890481239184737" lon="7.744093229994178">
        <ele>2218.0999999999999</ele>
        <time>2023-10-08T10:22:18Z</time>
      </trkpt>
      <trkpt lat="45.890496829524636" lon="7.744268411770463">
        <ele>2215.6999999999998</ele>
        <time>2023-10-08T10:22:31Z</time>
      </trkpt>
      <trkpt lat="45.890516778454185" lon="7.744382740929723">
        <ele>2214.75</ele>
        <time>2023-10-08T10:22:43Z</time>
      </trkpt>
      <trkpt lat="45.890541169792414" lon="7.744466727599502">
        <ele>2214.75</ele>
        <time>2023-10-08T10:22:53Z</time>
      </trkpt>
      <trkpt lat="45.890574781224132" lon="7.74457510560751">
        <ele>2212.8899999999999</ele>
        <time>2023-10-08T10:23:05Z</time>
      </trkpt>
      <trkpt lat="45.890581151470542" lon="7.74459270760417">
        <ele>2214.9099999999999</ele>
        <time>2023-10-08T10:23:07Z</time>
      </trkpt>
      <trkpt lat="45.890652732923627" lon="7.744616596028209">
        <ele>2213.9699999999998</ele>
        <time>2023-10-08T10:23:16Z</time>
      </trkpt>
      <trkpt lat="45.89079799130559" lon="7.744659762829542">
        <ele>2213.8299999999999</ele>
        <time>2023-10-08T10:23:30Z</time>
      </trkpt>
      <trkpt lat="45.890903770923615" lon="7.744660936295986">
        <ele>2214.1700000000001</ele>
        <time>2023-10-08T10:23:42Z</time>
      </trkpt>
      <trkpt lat="45.890940651297569" lon="7.744638724252582">
        <ele>2214.7600000000002</ele>
        <time>2023-10-08T10:23:54Z</time>
      </trkpt>
      <trkpt lat="45.890994798392057" lon="7.744620367884636">
        <ele>2213.8200000000002</ele>
        <time>2023-10-08T10:23:59Z</time>
      </trkpt>
      <trkpt lat="45.891129327937961" lon="7.744551887735724">
        <ele>2214.2800000000002</ele>
        <time>2023-10-08T10:24:12Z</time>
      </trkpt>
      <trkpt lat="45.891193114221096" lon="7.744498746469617">
        <ele>2214.0100000000002</ele>
        <time>2023-10-08T10:24:22Z</time>
      </trkpt>
      <trkpt lat="45.891348933801055" lon="7.744409563019872">
        <ele>2213.9000000000001</ele>
        <time>2023-10-08T10:24:44Z</time>
      </trkpt>
      <trkpt lat="45.891358237713575" lon="7.744430266320705">
        <ele>2213.8400000000001</ele>
        <time>2023-10-08T10:24:59Z</time>
      </trkpt>
      <trkpt lat="45.891255559399724" lon="7.744551468640566">
        <ele>2217.9899999999998</ele>
        <time>2023-10-08T10:40:47Z</time>
      </trkpt>
      <trkpt lat="45.891235023736954" lon="7.744587762281299">
        <ele>2218.0999999999999</ele>
        <time>2023-10-08T10:41:03Z</time>
      </trkpt>
      <trkpt lat="45.89123921468854" lon="7.744582230225205">
        <ele>2218.1199999999999</ele>
        <time>2023-10-08T10:41:20Z</time>
      </trkpt>
      <trkpt lat="45.891228234395385" lon="7.744587007910013">
        <ele>2218.4699999999998</ele>
        <time>2023-10-08T10:42:02Z</time>
      </trkpt>
      <trkpt lat="45.891235359013081" lon="7.744586421176791">
        <ele>2218.7800000000002</ele>
        <time>2023-10-08T10:42:23Z</time>
      </trkpt>
      <trkpt lat="45.89117769151926" lon="7.744630090892315">
        <ele>2218.75</ele>
        <time>2023-10-08T10:42:35Z</time>
      </trkpt>
      <trkpt lat="45.891014747321606" lon="7.744688848033547">
        <ele>2218.79</ele>
        <time>2023-10-08T10:42:51Z</time>
      </trkpt>
      <trkpt lat="45.890897568315268" lon="7.74471340700984">
        <ele>2219.0100000000002</ele>
        <time>2023-10-08T10:43:04Z</time>
      </trkpt>
      <trkpt lat="45.890885330736637" lon="7.744725560769439">
        <ele>2219.21</ele>
        <time>2023-10-08T10:43:18Z</time>
      </trkpt>
      <trkpt lat="45.890881726518273" lon="7.744726566597819">
        <ele>2219.4400000000001</ele>
        <time>2023-10-08T10:43:38Z</time>
      </trkpt>
      <trkpt lat="45.890872925519943" lon="7.744734110310674">
        <ele>2219.4699999999998</ele>
        <time>2023-10-08T10:43:40Z</time>
      </trkpt>
      <trkpt lat="45.890759769827127" lon="7.744789682328701">
        <ele>2219.2399999999998</ele>
        <time>2023-10-08T10:43:53Z</time>
      </trkpt>
      <trkpt lat="45.890653235837817" lon="7.744703684002161">
        <ele>2219.0500000000002</ele>
        <time>2023-10-08T10:44:05Z</time>
      </trkpt>
      <trkpt lat="45.890557933598757" lon="7.744662696495652">
        <ele>2218.9299999999998</ele>
        <time>2023-10-08T10:44:16Z</time>
      </trkpt>
      <trkpt lat="45.890486100688577" lon="7.744627660140395">
        <ele>2220.5599999999999</ele>
        <time>2023-10-08T10:44:29Z</time>
      </trkpt>
      <trkpt lat="45.890423906967044" lon="7.744607711210847">
        <ele>2223.3400000000001</ele>
        <time>2023-10-08T10:44:46Z</time>
      </trkpt>
      <trkpt lat="45.890407059341669" lon="7.744529088959098">
        <ele>2225.3400000000001</ele>
        <time>2023-10-08T10:45:00Z</time>
      </trkpt>
      <trkpt lat="45.890378728508949" lon="7.744464799761772">
        <ele>2227.5500000000002</ele>
        <time>2023-10-08T10:45:13Z</time>
      </trkpt>
      <trkpt lat="45.890364227816463" lon="7.744407886639237">
        <ele>2229.54</ele>
        <time>2023-10-08T10:45:26Z</time>
      </trkpt>
      <trkpt lat="45.890308320522308" lon="7.744485922157764">
        <ele>2231.4200000000001</ele>
        <time>2023-10-08T10:45:41Z</time>
      </trkpt>
      <trkpt lat="45.890266913920641" lon="7.744645848870277">
        <ele>2231.8499999999999</ele>
        <time>2023-10-08T10:45:56Z</time>
      </trkpt>
      <trkpt lat="45.890231374651194" lon="7.744733523577452">
        <ele>2233.3499999999999</ele>
        <time>2023-10-08T10:46:06Z</time>
      </trkpt>
      <trkpt lat="45.890157697722316" lon="7.744906693696976">
        <ele>2232.8699999999999</ele>
        <time>2023-10-08T10:46:20Z</time>
      </trkpt>
      <trkpt lat="45.890117716044188" lon="7.745072990655899">
        <ele>2235.1500000000001</ele>
        <time>2023-10-08T10:46:36Z</time>
      </trkpt>
      <trkpt lat="45.890090391039848" lon="7.745198216289282">
        <ele>2236.9499999999998</ele>
        <time>2023-10-08T10:46:51Z</time>
      </trkpt>
      <trkpt lat="45.89003381319344" lon="7.745269378647208">
        <ele>2238.48</ele>
        <time>2023-10-08T10:47:06Z</time>
      </trkpt>
      <trkpt lat="45.889992490410805" lon="7.745393011718988">
        <ele>2240.7199999999998</ele>
        <time>2023-10-08T10:47:25Z</time>
      </trkpt>
      <trkpt lat="45.889960639178753" lon="7.745464174076915">
        <ele>2242.29</ele>
        <time>2023-10-08T10:47:38Z</time>
      </trkpt>
      <trkpt lat="45.889938762411475" lon="7.745510106906295">
        <ele>2243.3699999999999</ele>
        <time>2023-10-08T10:47:54Z</time>
      </trkpt>
      <trkpt lat="45.889919903129339" lon="7.745574815198779">
        <ele>2244.4299999999998</ele>
        <time>2023-10-08T10:48:13Z</time>
      </trkpt>
      <trkpt lat="45.889914622530341" lon="7.745643546804786">
        <ele>2246.2600000000002</ele>
        <time>2023-10-08T10:48:30Z</time>
      </trkpt>
      <trkpt lat="45.889867600053549" lon="7.745756031945348">
        <ele>2248.46</ele>
        <time>2023-10-08T10:48:45Z</time>
      </trkpt>
      <trkpt lat="45.88982024230063" lon="7.745849322527647">
        <ele>2250.23</ele>
        <time>2023-10-08T10:49:00Z</time>
      </trkpt>
      <trkpt lat="45.889775482937694" lon="7.745915623381734">
        <ele>2251.5</ele>
        <time>2023-10-08T10:49:14Z</time>
      </trkpt>
      <trkpt lat="45.889763161540031" lon="7.745998688042164">
        <ele>2253.3699999999999</ele>
        <time>2023-10-08T10:49:28Z</time>
      </trkpt>
      <trkpt lat="45.889756707474589" lon="7.746035065501928">
        <ele>2253.6100000000001</ele>
        <time>2023-10-08T10:49:31Z</time>
      </trkpt>
      <trkpt lat="45.889760227873921" lon="7.746073119342327">
        <ele>2254.3899999999999</ele>
        <time>2023-10-08T10:49:37Z</time>
      </trkpt>
      <trkpt lat="45.889727035537362" lon="7.746138079091907">
        <ele>2256.1799999999998</ele>
        <time>2023-10-08T10:49:52Z</time>
      </trkpt>
      <trkpt lat="45.889687892049551" lon="7.746198931708932">
        <ele>2257.7600000000002</ele>
        <time>2023-10-08T10:50:06Z</time>
      </trkpt>
      <trkpt lat="45.889648916199803" lon="7.746252492070198">
        <ele>2259.3299999999999</ele>
        <time>2023-10-08T10:50:20Z</time>
      </trkpt>
      <trkpt lat="45.889554200693965" lon="7.746363803744316">
        <ele>2260.5799999999999</ele>
        <time>2023-10-08T10:50:35Z</time>
      </trkpt>
      <trkpt lat="45.889531318098307" lon="7.746457513421774">
        <ele>2260.8499999999999</ele>
        <time>2023-10-08T10:50:42Z</time>
      </trkpt>
      <trkpt lat="45.88948555290699" lon="7.74661073461175">
        <ele>2261.6100000000001</ele>
        <time>2023-10-08T10:50:56Z</time>
      </trkpt>
      <trkpt lat="45.889476416632533" lon="7.74661903269589">
        <ele>2261.5999999999999</ele>
        <time>2023-10-08T10:50:57Z</time>
      </trkpt>
      <trkpt lat="45.889466945081949" lon="7.746628588065505">
        <ele>2261.3299999999999</ele>
        <time>2023-10-08T10:50:58Z</time>
      </trkpt>
      <trkpt lat="45.889401650056243" lon="7.746675694361329">
        <ele>2261.29</ele>
        <time>2023-10-08T10:51:06Z</time>
      </trkpt>
      <trkpt lat="45.889391927048564" lon="7.746678963303566">
        <ele>2261.3600000000001</ele>
        <time>2023-10-08T10:51:07Z</time>
      </trkpt>
      <trkpt lat="45.889381533488631" lon="7.746680472046137">
        <ele>2261.0599999999999</ele>
        <time>2023-10-08T10:51:08Z</time>
      </trkpt>
      <trkpt lat="45.889338701963425" lon="7.746720537543297">
        <ele>2261.21</ele>
        <time>2023-10-08T10:51:14Z</time>
      </trkpt>
      <trkpt lat="45.889333337545395" lon="7.746739899739623">
        <ele>2260.8699999999999</ele>
        <time>2023-10-08T10:51:15Z</time>
      </trkpt>
      <trkpt lat="45.889268461614847" lon="7.746861102059484">
        <ele>2259.8699999999999</ele>
        <time>2023-10-08T10:51:26Z</time>
      </trkpt>
      <trkpt lat="45.889246333390474" lon="7.746842242777348">
        <ele>2259.6799999999998</ele>
        <time>2023-10-08T10:51:40Z</time>
      </trkpt>
      <trkpt lat="45.889228144660592" lon="7.74683796800673">
        <ele>2259.4299999999998</ele>
        <time>2023-10-08T10:51:42Z</time>
      </trkpt>
      <trkpt lat="45.889217164367437" lon="7.746832435950637">
        <ele>2259.4200000000001</ele>
        <time>2023-10-08T10:51:43Z</time>
      </trkpt>
      <trkpt lat="45.889207608997822" lon="7.746825395151973">
        <ele>2259.46</ele>
        <time>2023-10-08T10:51:44Z</time>
      </trkpt>
      <trkpt lat="45.889197718352079" lon="7.746802093461156">
        <ele>2259.6500000000001</ele>
        <time>2023-10-08T10:51:46Z</time>
      </trkpt>
      <trkpt lat="45.889196041971445" lon="7.74678566493094">
        <ele>2259.7399999999998</ele>
        <time>2023-10-08T10:51:47Z</time>
      </trkpt>
      <trkpt lat="45.88914155960083" lon="7.746758842840791">
        <ele>2260.9499999999998</ele>
        <time>2023-10-08T10:51:55Z</time>
      </trkpt>
      <trkpt lat="45.889117503538728" lon="7.746777283027768">
        <ele>2261</ele>
        <time>2023-10-08T10:51:58Z</time>
      </trkpt>
      <trkpt lat="45.8891068585217" lon="7.746774684637785">
        <ele>2260.9000000000001</ele>
        <time>2023-10-08T10:51:59Z</time>
      </trkpt>
      <trkpt lat="45.889096548780799" lon="7.746768314391375">
        <ele>2260.98</ele>
        <time>2023-10-08T10:52:00Z</time>
      </trkpt>
      <trkpt lat="45.889055645093322" lon="7.746703522279859">
        <ele>2261.3000000000002</ele>
        <time>2023-10-08T10:52:06Z</time>
      </trkpt>
      <trkpt lat="45.889047933742404" lon="7.746691452339292">
        <ele>2261.3000000000002</ele>
        <time>2023-10-08T10:52:07Z</time>
      </trkpt>
      <trkpt lat="45.889039635658264" lon="7.746679550036788">
        <ele>2261.27</ele>
        <time>2023-10-08T10:52:08Z</time>
      </trkpt>
      <trkpt lat="45.889031672850251" lon="7.746667983010411">
        <ele>2261.25</ele>
        <time>2023-10-08T10:52:09Z</time>
      </trkpt>
      <trkpt lat="45.888921367004514" lon="7.746649542823434">
        <ele>2260.52</ele>
        <time>2023-10-08T10:52:21Z</time>
      </trkpt>
      <trkpt lat="45.888920444995165" lon="7.746681729331613">
        <ele>2260.5799999999999</ele>
        <time>2023-10-08T10:52:33Z</time>
      </trkpt>
      <trkpt lat="45.888893539085984" lon="7.746746689081192">
        <ele>2260.9000000000001</ele>
        <time>2023-10-08T10:52:45Z</time>
      </trkpt>
      <trkpt lat="45.888875434175134" lon="7.746772672981024">
        <ele>2260.9499999999998</ele>
        <time>2023-10-08T10:52:54Z</time>
      </trkpt>
      <trkpt lat="45.88886302895844" lon="7.746766805648804">
        <ele>2260.8099999999999</ele>
        <time>2023-10-08T10:52:56Z</time>
      </trkpt>
      <trkpt lat="45.888816928490996" lon="7.746782898902893">
        <ele>2260.73</ele>
        <time>2023-10-08T10:53:05Z</time>
      </trkpt>
      <trkpt lat="45.888798655942082" lon="7.746748784556985">
        <ele>2260.1700000000001</ele>
        <time>2023-10-08T10:53:09Z</time>
      </trkpt>
      <trkpt lat="45.888773174956441" lon="7.746699079871178">
        <ele>2259.8600000000001</ele>
        <time>2023-10-08T10:53:19Z</time>
      </trkpt>
      <trkpt lat="45.888727325946093" lon="7.746752221137285">
        <ele>2259.6700000000001</ele>
        <time>2023-10-08T10:53:57Z</time>
      </trkpt>
      <trkpt lat="45.888699749484658" lon="7.746742749586701">
        <ele>2259.4099999999999</ele>
        <time>2023-10-08T10:54:42Z</time>
      </trkpt>
      <trkpt lat="45.888646272942424" lon="7.74675440043211">
        <ele>2259.6500000000001</ele>
        <time>2023-10-08T10:54:51Z</time>
      </trkpt>
      <trkpt lat="45.88859673589468" lon="7.746760351583362">
        <ele>2259.8400000000001</ele>
        <time>2023-10-08T10:54:56Z</time>
      </trkpt>
      <trkpt lat="45.888551808893681" lon="7.746775858104229">
        <ele>2260.6599999999999</ele>
        <time>2023-10-08T10:55:03Z</time>
      </trkpt>
      <trkpt lat="45.888500260189176" lon="7.746836878359318">
        <ele>2260.3099999999999</ele>
        <time>2023-10-08T10:55:20Z</time>
      </trkpt>
      <trkpt lat="45.888497410342097" lon="7.746884655207396">
        <ele>2260.4499999999998</ele>
        <time>2023-10-08T10:55:23Z</time>
      </trkpt>
      <trkpt lat="45.888505540788174" lon="7.74709839373827">
        <ele>2262.6700000000001</ele>
        <time>2023-10-08T10:55:41Z</time>
      </trkpt>
      <trkpt lat="45.888566141948104" lon="7.747232336550951">
        <ele>2265.0799999999999</ele>
        <time>2023-10-08T10:55:57Z</time>
      </trkpt>
      <trkpt lat="45.888596903532743" lon="7.747269636020064">
        <ele>2265.9400000000001</ele>
        <time>2023-10-08T10:56:02Z</time>
      </trkpt>
      <trkpt lat="45.888612158596516" lon="7.74727382697165">
        <ele>2265.98</ele>
        <time>2023-10-08T10:56:03Z</time>
      </trkpt>
      <trkpt lat="45.888626324012876" lon="7.747272402048111">
        <ele>2266.1199999999999</ele>
        <time>2023-10-08T10:56:04Z</time>
      </trkpt>
      <trkpt lat="45.888638393953443" lon="7.747277179732919">
        <ele>2266.0799999999999</ele>
        <time>2023-10-08T10:56:05Z</time>
      </trkpt>
      <trkpt lat="45.888654151931405" lon="7.747286567464471">
        <ele>2266.54</ele>
        <time>2023-10-08T10:56:16Z</time>
      </trkpt>
      <trkpt lat="45.888659097254276" lon="7.747289082035422">
        <ele>2266.46</ele>
        <time>2023-10-08T10:56:20Z</time>
      </trkpt>
      <trkpt lat="45.888700922951102" lon="7.747344151139259">
        <ele>2267.25</ele>
        <time>2023-10-08T10:56:27Z</time>
      </trkpt>
      <trkpt lat="45.888756075873971" lon="7.747407266870141">
        <ele>2267.5700000000002</ele>
        <time>2023-10-08T10:56:34Z</time>
      </trkpt>
      <trkpt lat="45.888785412535071" lon="7.747426461428404">
        <ele>2267.6700000000001</ele>
        <time>2023-10-08T10:56:35Z</time>
      </trkpt>
      <trkpt lat="45.888826986774802" lon="7.747471388429403">
        <ele>2266.6300000000001</ele>
        <time>2023-10-08T10:56:40Z</time>
      </trkpt>
      <trkpt lat="45.888798404484987" lon="7.747574569657445">
        <ele>2265.6900000000001</ele>
        <time>2023-10-08T10:56:49Z</time>
      </trkpt>
      <trkpt lat="45.888750711455941" lon="7.747624441981316">
        <ele>2266.54</ele>
        <time>2023-10-08T10:56:59Z</time>
      </trkpt>
      <trkpt lat="45.888730678707361" lon="7.747632153332233">
        <ele>2266.77</ele>
        <time>2023-10-08T10:57:02Z</time>
      </trkpt>
      <trkpt lat="45.888721290975809" lon="7.747639697045088">
        <ele>2266.48</ele>
        <time>2023-10-08T10:57:03Z</time>
      </trkpt>
      <trkpt lat="45.888720955699682" lon="7.747687892988324">
        <ele>2267</ele>
        <time>2023-10-08T10:57:07Z</time>
      </trkpt>
      <trkpt lat="45.888723134994507" lon="7.747690156102181">
        <ele>2267.25</ele>
        <time>2023-10-08T10:57:08Z</time>
      </trkpt>
      <trkpt lat="45.888746352866292" lon="7.747703902423382">
        <ele>2267.8000000000002</ele>
        <time>2023-10-08T10:57:12Z</time>
      </trkpt>
      <trkpt lat="45.888752304017544" lon="7.747755032032728">
        <ele>2268.3400000000001</ele>
        <time>2023-10-08T10:57:17Z</time>
      </trkpt>
      <trkpt lat="45.888755405321717" lon="7.747771628201008">
        <ele>2268.4699999999998</ele>
        <time>2023-10-08T10:57:18Z</time>
      </trkpt>
      <trkpt lat="45.888747777789831" lon="7.747794091701508">
        <ele>2268.5</ele>
        <time>2023-10-08T10:57:20Z</time>
      </trkpt>
      <trkpt lat="45.888726152479649" lon="7.747839521616697">
        <ele>2269.1799999999998</ele>
        <time>2023-10-08T10:57:26Z</time>
      </trkpt>
      <trkpt lat="45.888744341209531" lon="7.747968267649412">
        <ele>2271.3000000000002</ele>
        <time>2023-10-08T10:57:41Z</time>
      </trkpt>
      <trkpt lat="45.888747107237577" lon="7.748044040054083">
        <ele>2271.52</ele>
        <time>2023-10-08T10:57:47Z</time>
      </trkpt>
      <trkpt lat="45.888751717284322" lon="7.748114196583629">
        <ele>2273.21</ele>
        <time>2023-10-08T10:57:58Z</time>
      </trkpt>
      <trkpt lat="45.888747526332736" lon="7.748128781095147">
        <ele>2273.0599999999999</ele>
        <time>2023-10-08T10:58:18Z</time>
      </trkpt>
      <trkpt lat="45.888753477483988" lon="7.748190304264426">
        <ele>2274.6799999999998</ele>
        <time>2023-10-08T10:58:32Z</time>
      </trkpt>
      <trkpt lat="45.888755740597844" lon="7.748232297599316">
        <ele>2274.8600000000001</ele>
        <time>2023-10-08T10:58:58Z</time>
      </trkpt>
      <trkpt lat="45.888765966519713" lon="7.748274710029364">
        <ele>2275.9099999999999</ele>
        <time>2023-10-08T10:59:04Z</time>
      </trkpt>
      <trkpt lat="45.888730008155107" lon="7.74832776747644">
        <ele>2278.0100000000002</ele>
        <time>2023-10-08T10:59:16Z</time>
      </trkpt>
      <trkpt lat="45.888684745877981" lon="7.748366491869092">
        <ele>2280.4000000000001</ele>
        <time>2023-10-08T10:59:28Z</time>
      </trkpt>
      <trkpt lat="45.888611655682325" lon="7.748400857672095">
        <ele>2283.3899999999999</ele>
        <time>2023-10-08T10:59:46Z</time>
      </trkpt>
      <trkpt lat="45.888658426702023" lon="7.748500434681773">
        <ele>2283.79</ele>
        <time>2023-10-08T10:59:58Z</time>
      </trkpt>
      <trkpt lat="45.888704778626561" lon="7.748546116054058">
        <ele>2284.9000000000001</ele>
        <time>2023-10-08T11:00:09Z</time>
      </trkpt>
      <trkpt lat="45.88874232955277" lon="7.748547792434692">
        <ele>2286.6199999999999</ele>
        <time>2023-10-08T11:00:20Z</time>
      </trkpt>
      <trkpt lat="45.888759009540081" lon="7.74857310578227">
        <ele>2288.7600000000002</ele>
        <time>2023-10-08T11:00:35Z</time>
      </trkpt>
      <trkpt lat="45.888806199654937" lon="7.748591965064406">
        <ele>2290.1500000000001</ele>
        <time>2023-10-08T11:00:49Z</time>
      </trkpt>
      <trkpt lat="45.888832854107022" lon="7.748649464920163">
        <ele>2290.3400000000001</ele>
        <time>2023-10-08T11:00:58Z</time>
      </trkpt>
      <trkpt lat="45.88888356462121" lon="7.748706210404635">
        <ele>2291.9699999999998</ele>
        <time>2023-10-08T11:01:11Z</time>
      </trkpt>
      <trkpt lat="45.888954224064946" lon="7.748751975595951">
        <ele>2293.9499999999998</ele>
        <time>2023-10-08T11:01:25Z</time>
      </trkpt>
      <trkpt lat="45.889031086117029" lon="7.748828502371907">
        <ele>2295.96</ele>
        <time>2023-10-08T11:01:38Z</time>
      </trkpt>
      <trkpt lat="45.889114318415523" lon="7.748888600617647">
        <ele>2297.7199999999998</ele>
        <time>2023-10-08T11:01:52Z</time>
      </trkpt>
      <trkpt lat="45.889197215437889" lon="7.748950878158212">
        <ele>2299.23</ele>
        <time>2023-10-08T11:02:05Z</time>
      </trkpt>
      <trkpt lat="45.889257481321692" lon="7.7490015886724">
        <ele>2300.27</ele>
        <time>2023-10-08T11:02:16Z</time>
      </trkpt>
      <trkpt lat="45.88929645717144" lon="7.749013155698776">
        <ele>2300.9699999999998</ele>
        <time>2023-10-08T11:02:28Z</time>
      </trkpt>
      <trkpt lat="45.889357309788465" lon="7.749061519280076">
        <ele>2303.0900000000001</ele>
        <time>2023-10-08T11:02:45Z</time>
      </trkpt>
      <trkpt lat="45.889418916776776" lon="7.749101333320141">
        <ele>2303.6300000000001</ele>
        <time>2023-10-08T11:02:58Z</time>
      </trkpt>
      <trkpt lat="45.889488738030195" lon="7.749165622517467">
        <ele>2305.2399999999998</ele>
        <time>2023-10-08T11:03:11Z</time>
      </trkpt>
      <trkpt lat="45.88955101557076" lon="7.749221278354526">
        <ele>2306.1199999999999</ele>
        <time>2023-10-08T11:03:22Z</time>
      </trkpt>
      <trkpt lat="45.88957205414772" lon="7.749244580045342">
        <ele>2306.4699999999998</ele>
        <time>2023-10-08T11:03:25Z</time>
      </trkpt>
      <trkpt lat="45.889579765498638" lon="7.749254303053021">
        <ele>2306.4899999999998</ele>
        <time>2023-10-08T11:03:26Z</time>
      </trkpt>
      <trkpt lat="45.889686634764075" lon="7.749330410733819">
        <ele>2308.0599999999999</ele>
        <time>2023-10-08T11:03:41Z</time>
      </trkpt>
      <trkpt lat="45.889776991680264" lon="7.749353544786573">
        <ele>2309.48</ele>
        <time>2023-10-08T11:03:55Z</time>
      </trkpt>
      <trkpt lat="45.889793001115322" lon="7.749364944174886">
        <ele>2309.4200000000001</ele>
        <time>2023-10-08T11:04:13Z</time>
      </trkpt>
      <trkpt lat="45.889863576740026" lon="7.749443901702762">
        <ele>2310.3499999999999</ele>
        <time>2023-10-08T11:04:26Z</time>
      </trkpt>
      <trkpt lat="45.889897858723998" lon="7.749476507306099">
        <ele>2309.6799999999998</ele>
        <time>2023-10-08T11:04:40Z</time>
      </trkpt>
      <trkpt lat="45.889939265325665" lon="7.749533755704761">
        <ele>2310.7800000000002</ele>
        <time>2023-10-08T11:04:56Z</time>
      </trkpt>
      <trkpt lat="45.889983689412475" lon="7.749552950263023">
        <ele>2311.52</ele>
        <time>2023-10-08T11:05:10Z</time>
      </trkpt>
      <trkpt lat="45.890015624463558" lon="7.749576168134809">
        <ele>2311.8899999999999</ele>
        <time>2023-10-08T11:05:27Z</time>
      </trkpt>
      <trkpt lat="45.890050241723657" lon="7.749643223360181">
        <ele>2310.8699999999999</ele>
        <time>2023-10-08T11:05:40Z</time>
      </trkpt>
      <trkpt lat="45.890084020793438" lon="7.749702902510762">
        <ele>2309.3499999999999</ele>
        <time>2023-10-08T11:05:46Z</time>
      </trkpt>
      <trkpt lat="45.890091732144356" lon="7.749714301899076">
        <ele>2309.1500000000001</ele>
        <time>2023-10-08T11:05:47Z</time>
      </trkpt>
      <trkpt lat="45.890098940581083" lon="7.749727042391896">
        <ele>2309.0799999999999</ele>
        <time>2023-10-08T11:05:48Z</time>
      </trkpt>
      <trkpt lat="45.890106316655874" lon="7.749739279970527">
        <ele>2309.0300000000002</ele>
        <time>2023-10-08T11:05:49Z</time>
      </trkpt>
      <trkpt lat="45.890113860368729" lon="7.749750008806586">
        <ele>2309.0300000000002</ele>
        <time>2023-10-08T11:05:50Z</time>
      </trkpt>
      <trkpt lat="45.890181083232164" lon="7.749828798696399">
        <ele>2309.1799999999998</ele>
        <time>2023-10-08T11:06:00Z</time>
      </trkpt>
      <trkpt lat="45.890206648036838" lon="7.749895770102739">
        <ele>2309.0900000000001</ele>
        <time>2023-10-08T11:06:07Z</time>
      </trkpt>
      <trkpt lat="45.890288120135665" lon="7.749973889440298">
        <ele>2308.1799999999998</ele>
        <time>2023-10-08T11:06:17Z</time>
      </trkpt>
      <trkpt lat="45.890300190076232" lon="7.749987887218595">
        <ele>2307.9499999999998</ele>
        <time>2023-10-08T11:06:18Z</time>
      </trkpt>
      <trkpt lat="45.89031033217907" lon="7.750002387911081">
        <ele>2307.5599999999999</ele>
        <time>2023-10-08T11:06:19Z</time>
      </trkpt>
      <trkpt lat="45.890352744609118" lon="7.750093834474683">
        <ele>2306.0999999999999</ele>
        <time>2023-10-08T11:06:29Z</time>
      </trkpt>
      <trkpt lat="45.890357522293925" lon="7.750127362087369">
        <ele>2305.4299999999998</ele>
        <time>2023-10-08T11:06:33Z</time>
      </trkpt>
      <trkpt lat="45.89036070741713" lon="7.750140773132443">
        <ele>2305.0500000000002</ele>
        <time>2023-10-08T11:06:34Z</time>
      </trkpt>
      <trkpt lat="45.890374789014459" lon="7.750163488090038">
        <ele>2304.6599999999999</ele>
        <time>2023-10-08T11:06:36Z</time>
      </trkpt>
      <trkpt lat="45.890402281656861" lon="7.750197937712073">
        <ele>2304.1999999999998</ele>
        <time>2023-10-08T11:06:40Z</time>
      </trkpt>
      <trkpt lat="45.890428014099598" lon="7.750193746760488">
        <ele>2303.9099999999999</ele>
        <time>2023-10-08T11:06:41Z</time>
      </trkpt>
      <trkpt lat="45.890434049069881" lon="7.75020657107234">
        <ele>2303.8200000000002</ele>
        <time>2023-10-08T11:06:42Z</time>
      </trkpt>
      <trkpt lat="45.890439497306943" lon="7.750220987945795">
        <ele>2303.7199999999998</ele>
        <time>2023-10-08T11:06:43Z</time>
      </trkpt>
      <trkpt lat="45.890453243628144" lon="7.750242864713073">
        <ele>2303.46</ele>
        <time>2023-10-08T11:06:44Z</time>
      </trkpt>
      <trkpt lat="45.890477383509278" lon="7.750260885804892">
        <ele>2303.0900000000001</ele>
        <time>2023-10-08T11:06:45Z</time>
      </trkpt>
      <trkpt lat="45.890492806211114" lon="7.750281672924757">
        <ele>2302.5999999999999</ele>
        <time>2023-10-08T11:06:47Z</time>
      </trkpt>
      <trkpt lat="45.890502026304603" lon="7.750294161960483">
        <ele>2302.23</ele>
        <time>2023-10-08T11:06:48Z</time>
      </trkpt>
      <trkpt lat="45.890511833131313" lon="7.750316122546792">
        <ele>2302.0900000000001</ele>
        <time>2023-10-08T11:06:50Z</time>
      </trkpt>
      <trkpt lat="45.890521807596087" lon="7.75033850222826">
        <ele>2302.1500000000001</ele>
        <time>2023-10-08T11:06:52Z</time>
      </trkpt>
      <trkpt lat="45.890556508675218" lon="7.750404719263315">
        <ele>2301.4400000000001</ele>
        <time>2023-10-08T11:06:58Z</time>
      </trkpt>
      <trkpt lat="45.890544019639492" lon="7.750471942126751">
        <ele>2300.6599999999999</ele>
        <time>2023-10-08T11:07:02Z</time>
      </trkpt>
      <trkpt lat="45.89053756557405" lon="7.750497674569488">
        <ele>2300.3000000000002</ele>
        <time>2023-10-08T11:07:03Z</time>
      </trkpt>
      <trkpt lat="45.890537397935987" lon="7.750517288222909">
        <ele>2299.9400000000001</ele>
        <time>2023-10-08T11:07:04Z</time>
      </trkpt>
      <trkpt lat="45.89054100215435" lon="7.750530447810888">
        <ele>2299.8600000000001</ele>
        <time>2023-10-08T11:07:05Z</time>
      </trkpt>
      <trkpt lat="45.890547037124634" lon="7.75054226629436">
        <ele>2299.6399999999999</ele>
        <time>2023-10-08T11:07:06Z</time>
      </trkpt>
      <trkpt lat="45.890565644949675" lon="7.750576213002205">
        <ele>2299.7399999999998</ele>
        <time>2023-10-08T11:07:09Z</time>
      </trkpt>
      <trkpt lat="45.89057763107121" lon="7.750602113083005">
        <ele>2299.8499999999999</ele>
        <time>2023-10-08T11:07:11Z</time>
      </trkpt>
      <trkpt lat="45.890584336593747" lon="7.750616110861301">
        <ele>2299.9299999999998</ele>
        <time>2023-10-08T11:07:12Z</time>
      </trkpt>
      <trkpt lat="45.890589701011777" lon="7.750630108639598">
        <ele>2300.0700000000002</ele>
        <time>2023-10-08T11:07:13Z</time>
      </trkpt>
      <trkpt lat="45.890597244724631" lon="7.750644190236926">
        <ele>2300.1700000000001</ele>
        <time>2023-10-08T11:07:14Z</time>
      </trkpt>
      <trkpt lat="45.890659354627132" lon="7.750783748924732">
        <ele>2301.5300000000002</ele>
        <time>2023-10-08T11:07:26Z</time>
      </trkpt>
      <trkpt lat="45.890708388760686" lon="7.750818952918053">
        <ele>2301.8000000000002</ele>
        <time>2023-10-08T11:07:38Z</time>
      </trkpt>
      <trkpt lat="45.890771588310599" lon="7.750867400318384">
        <ele>2301.5999999999999</ele>
        <time>2023-10-08T11:07:48Z</time>
      </trkpt>
      <trkpt lat="45.890854485332966" lon="7.750944010913372">
        <ele>2300.6399999999999</ele>
        <time>2023-10-08T11:07:59Z</time>
      </trkpt>
      <trkpt lat="45.890938639640808" lon="7.751051215454936">
        <ele>2299.5100000000002</ele>
        <time>2023-10-08T11:08:10Z</time>
      </trkpt>
      <trkpt lat="45.89097392745316" lon="7.751095471903682">
        <ele>2299.21</ele>
        <time>2023-10-08T11:08:21Z</time>
      </trkpt>
      <trkpt lat="45.891010640189052" lon="7.75112472474575">
        <ele>2300.8400000000001</ele>
        <time>2023-10-08T11:08:25Z</time>
      </trkpt>
      <trkpt lat="45.89108875952661" lon="7.751204688102007">
        <ele>2299.9099999999999</ele>
        <time>2023-10-08T11:08:35Z</time>
      </trkpt>
      <trkpt lat="45.891185151413083" lon="7.751301499083638">
        <ele>2300.1300000000001</ele>
        <time>2023-10-08T11:08:48Z</time>
      </trkpt>
      <trkpt lat="45.891258912160993" lon="7.751333685591817">
        <ele>2300.0900000000001</ele>
        <time>2023-10-08T11:08:59Z</time>
      </trkpt>
      <trkpt lat="45.891413558274508" lon="7.75137928314507">
        <ele>2300.21</ele>
        <time>2023-10-08T11:09:14Z</time>
      </trkpt>
      <trkpt lat="45.891542974859476" lon="7.751431502401829">
        <ele>2300.0300000000002</ele>
        <time>2023-10-08T11:09:26Z</time>
      </trkpt>
      <trkpt lat="45.891652023419738" lon="7.751494031399488">
        <ele>2300.3499999999999</ele>
        <time>2023-10-08T11:09:39Z</time>
      </trkpt>
      <trkpt lat="45.891663087531924" lon="7.75149654597044">
        <ele>2300.3699999999999</ele>
        <time>2023-10-08T11:09:40Z</time>
      </trkpt>
      <trkpt lat="45.891674906015396" lon="7.751501072198153">
        <ele>2300.6399999999999</ele>
        <time>2023-10-08T11:09:41Z</time>
      </trkpt>
      <trkpt lat="45.891685467213392" lon="7.7515072748065">
        <ele>2300.9099999999999</ele>
        <time>2023-10-08T11:09:42Z</time>
      </trkpt>
      <trkpt lat="45.891694771125913" lon="7.751514231786132">
        <ele>2301.0500000000002</ele>
        <time>2023-10-08T11:09:43Z</time>
      </trkpt>
      <trkpt lat="45.891806837171316" lon="7.751578520983458">
        <ele>2301.77</ele>
        <time>2023-10-08T11:09:55Z</time>
      </trkpt>
      <trkpt lat="45.89190180413425" lon="7.751615233719349">
        <ele>2302.9699999999998</ele>
        <time>2023-10-08T11:10:04Z</time>
      </trkpt>
      <trkpt lat="45.892032058909535" lon="7.751659993082285">
        <ele>2303.6300000000001</ele>
        <time>2023-10-08T11:10:17Z</time>
      </trkpt>
      <trkpt lat="45.892158122733235" lon="7.75170324370265">
        <ele>2303.0300000000002</ele>
        <time>2023-10-08T11:10:29Z</time>
      </trkpt>
      <trkpt lat="45.892211515456438" lon="7.75172277353704">
        <ele>2303.7399999999998</ele>
        <time>2023-10-08T11:10:38Z</time>
      </trkpt>
      <trkpt lat="45.89231813326478" lon="7.751730987802148">
        <ele>2305.6999999999998</ele>
        <time>2023-10-08T11:10:50Z</time>
      </trkpt>
      <trkpt lat="45.892447046935558" lon="7.751720091328025">
        <ele>2306.96</ele>
        <time>2023-10-08T11:11:04Z</time>
      </trkpt>
      <trkpt lat="45.892577804625034" lon="7.751747667789459">
        <ele>2307.9000000000001</ele>
        <time>2023-10-08T11:11:18Z</time>
      </trkpt>
      <trkpt lat="45.892672101035714" lon="7.751774657517672">
        <ele>2309.1100000000001</ele>
        <time>2023-10-08T11:11:33Z</time>
      </trkpt>
      <trkpt lat="45.89268165640533" lon="7.751775663346052">
        <ele>2309.0599999999999</ele>
        <time>2023-10-08T11:11:34Z</time>
      </trkpt>
      <trkpt lat="45.89272566139698" lon="7.751784883439541">
        <ele>2307.25</ele>
        <time>2023-10-08T11:11:39Z</time>
      </trkpt>
      <trkpt lat="45.892748292535543" lon="7.751790666952729">
        <ele>2310.6199999999999</ele>
        <time>2023-10-08T11:11:42Z</time>
      </trkpt>
      <trkpt lat="45.89288592338562" lon="7.751816231757402">
        <ele>2311.1900000000001</ele>
        <time>2023-10-08T11:11:58Z</time>
      </trkpt>
      <trkpt lat="45.892904698848724" lon="7.751816986128688">
        <ele>2311.46</ele>
        <time>2023-10-08T11:12:00Z</time>
      </trkpt>
      <trkpt lat="45.893020033836365" lon="7.751819249242544">
        <ele>2312.9099999999999</ele>
        <time>2023-10-08T11:12:13Z</time>
      </trkpt>
      <trkpt lat="45.893111899495125" lon="7.751843221485615">
        <ele>2314.4200000000001</ele>
        <time>2023-10-08T11:12:24Z</time>
      </trkpt>
      <trkpt lat="45.893219355493784" lon="7.751879012212157">
        <ele>2315.8800000000001</ele>
        <time>2023-10-08T11:12:36Z</time>
      </trkpt>
      <trkpt lat="45.893348855897784" lon="7.751921508461237">
        <ele>2317.4499999999998</ele>
        <time>2023-10-08T11:12:51Z</time>
      </trkpt>
      <trkpt lat="45.893461592495441" lon="7.751957299187779">
        <ele>2319.0799999999999</ele>
        <time>2023-10-08T11:13:05Z</time>
      </trkpt>
      <trkpt lat="45.893580112606287" lon="7.752009686082602">
        <ele>2320.4400000000001</ele>
        <time>2023-10-08T11:13:19Z</time>
      </trkpt>
      <trkpt lat="45.89360224083066" lon="7.752020163461566">
        <ele>2321.0100000000002</ele>
        <time>2023-10-08T11:13:33Z</time>
      </trkpt>
      <trkpt lat="45.893667535856366" lon="7.752066347748041">
        <ele>2321.6399999999999</ele>
        <time>2023-10-08T11:13:45Z</time>
      </trkpt>
      <trkpt lat="45.893751354888082" lon="7.752121416851878">
        <ele>2322.54</ele>
        <time>2023-10-08T11:13:56Z</time>
      </trkpt>
      <trkpt lat="45.893905749544501" lon="7.752233650535345">
        <ele>2324.6199999999999</ele>
        <time>2023-10-08T11:14:15Z</time>
      </trkpt>
      <trkpt lat="45.893988311290741" lon="7.752313362434506">
        <ele>2325.9699999999998</ele>
        <time>2023-10-08T11:14:27Z</time>
      </trkpt>
      <trkpt lat="45.894099455326796" lon="7.752421321347356">
        <ele>2327.1999999999998</ele>
        <time>2023-10-08T11:14:40Z</time>
      </trkpt>
      <trkpt lat="45.894155194982886" lon="7.752549396827817">
        <ele>2328.6999999999998</ele>
        <time>2023-10-08T11:14:51Z</time>
      </trkpt>
      <trkpt lat="45.894195176661015" lon="7.752699768170714">
        <ele>2330.0100000000002</ele>
        <time>2023-10-08T11:15:03Z</time>
      </trkpt>
      <trkpt lat="45.894209342077374" lon="7.752760704606772">
        <ele>2330.23</ele>
        <time>2023-10-08T11:15:08Z</time>
      </trkpt>
      <trkpt lat="45.894228871911764" lon="7.752894060686231">
        <ele>2331.6999999999998</ele>
        <time>2023-10-08T11:15:18Z</time>
      </trkpt>
      <trkpt lat="45.894248066470027" lon="7.753011994063854">
        <ele>2332.3400000000001</ele>
        <time>2023-10-08T11:15:28Z</time>
      </trkpt>
      <trkpt lat="45.894284024834633" lon="7.753140321001411">
        <ele>2333.9400000000001</ele>
        <time>2023-10-08T11:15:39Z</time>
      </trkpt>
      <trkpt lat="45.894305650144815" lon="7.753305528312922">
        <ele>2335.3499999999999</ele>
        <time>2023-10-08T11:15:52Z</time>
      </trkpt>
      <trkpt lat="45.894301626831293" lon="7.75344617664814">
        <ele>2336.7800000000002</ele>
        <time>2023-10-08T11:16:03Z</time>
      </trkpt>
      <trkpt lat="45.89431269094348" lon="7.753587495535612">
        <ele>2337.9499999999998</ele>
        <time>2023-10-08T11:16:14Z</time>
      </trkpt>
      <trkpt lat="45.894316295161843" lon="7.753602582961321">
        <ele>2337.98</ele>
        <time>2023-10-08T11:16:15Z</time>
      </trkpt>
      <trkpt lat="45.894325263798237" lon="7.753804503008723">
        <ele>2339.4099999999999</ele>
        <time>2023-10-08T11:16:29Z</time>
      </trkpt>
      <trkpt lat="45.894354516640306" lon="7.754004076123238">
        <ele>2340.1500000000001</ele>
        <time>2023-10-08T11:16:44Z</time>
      </trkpt>
      <trkpt lat="45.894389133900404" lon="7.754097282886505">
        <ele>2341.0799999999999</ele>
        <time>2023-10-08T11:16:52Z</time>
      </trkpt>
      <trkpt lat="45.894465409219265" lon="7.754322169348598">
        <ele>2342.2199999999998</ele>
        <time>2023-10-08T11:17:11Z</time>
      </trkpt>
      <trkpt lat="45.894469264894724" lon="7.754364497959614">
        <ele>2342.02</ele>
        <time>2023-10-08T11:17:25Z</time>
      </trkpt>
      <trkpt lat="45.894468175247312" lon="7.754353517666459">
        <ele>2342.1999999999998</ele>
        <time>2023-10-08T11:17:44Z</time>
      </trkpt>
      <trkpt lat="45.894516538828611" lon="7.754483856260777">
        <ele>2342.0500000000002</ele>
        <time>2023-10-08T11:17:56Z</time>
      </trkpt>
      <trkpt lat="45.894577810540795" lon="7.754648057743907">
        <ele>2341.8600000000001</ele>
        <time>2023-10-08T11:18:08Z</time>
      </trkpt>
      <trkpt lat="45.894594490528107" lon="7.754696002230048">
        <ele>2341.9099999999999</ele>
        <time>2023-10-08T11:18:12Z</time>
      </trkpt>
      <trkpt lat="45.894598849117756" lon="7.754709497094154">
        <ele>2341.9200000000001</ele>
        <time>2023-10-08T11:18:13Z</time>
      </trkpt>
      <trkpt lat="45.894602034240961" lon="7.754725171253085">
        <ele>2341.9699999999998</ele>
        <time>2023-10-08T11:18:14Z</time>
      </trkpt>
      <trkpt lat="45.894605135545135" lon="7.754740091040731">
        <ele>2342.02</ele>
        <time>2023-10-08T11:18:15Z</time>
      </trkpt>
      <trkpt lat="45.894609410315752" lon="7.754753669723868">
        <ele>2342.0700000000002</ele>
        <time>2023-10-08T11:18:16Z</time>
      </trkpt>
      <trkpt lat="45.894612846896052" lon="7.754768338054419">
        <ele>2342.0500000000002</ele>
        <time>2023-10-08T11:18:17Z</time>
      </trkpt>
      <trkpt lat="45.894701527431607" lon="7.755039911717176">
        <ele>2341.8000000000002</ele>
        <time>2023-10-08T11:18:36Z</time>
      </trkpt>
      <trkpt lat="45.894789705052972" lon="7.755293380469084">
        <ele>2341.25</ele>
        <time>2023-10-08T11:18:53Z</time>
      </trkpt>
      <trkpt lat="45.894873440265656" lon="7.755577024072409">
        <ele>2340.29</ele>
        <time>2023-10-08T11:19:11Z</time>
      </trkpt>
      <trkpt lat="45.894974358379841" lon="7.755795707926154">
        <ele>2339.4699999999998</ele>
        <time>2023-10-08T11:19:26Z</time>
      </trkpt>
      <trkpt lat="45.895101008936763" lon="7.755961082875729">
        <ele>2339.8899999999999</ele>
        <time>2023-10-08T11:19:41Z</time>
      </trkpt>
      <trkpt lat="45.895217936486006" lon="7.756115226075053">
        <ele>2340.7399999999998</ele>
        <time>2023-10-08T11:19:55Z</time>
      </trkpt>
      <trkpt lat="45.895329331979156" lon="7.756288312375546">
        <ele>2341.5100000000002</ele>
        <time>2023-10-08T11:20:10Z</time>
      </trkpt>
      <trkpt lat="45.895328996703029" lon="7.756416387856007">
        <ele>2341.5999999999999</ele>
        <time>2023-10-08T11:20:19Z</time>
      </trkpt>
      <trkpt lat="45.895333522930741" lon="7.756430134177208">
        <ele>2341.7399999999998</ele>
        <time>2023-10-08T11:20:20Z</time>
      </trkpt>
      <trkpt lat="45.895408373326063" lon="7.756634317338467">
        <ele>2342.6999999999998</ele>
        <time>2023-10-08T11:20:35Z</time>
      </trkpt>
      <trkpt lat="45.895484564825892" lon="7.756789131090045">
        <ele>2343.8200000000002</ele>
        <time>2023-10-08T11:20:47Z</time>
      </trkpt>
      <trkpt lat="45.895558577030897" lon="7.756910165771842">
        <ele>2344.3600000000001</ele>
        <time>2023-10-08T11:20:58Z</time>
      </trkpt>
      <trkpt lat="45.895586740225554" lon="7.756961463019252">
        <ele>2344.9099999999999</ele>
        <time>2023-10-08T11:21:03Z</time>
      </trkpt>
      <trkpt lat="45.895594451576471" lon="7.756971856579185">
        <ele>2344.9200000000001</ele>
        <time>2023-10-08T11:21:04Z</time>
      </trkpt>
      <trkpt lat="45.895600905641913" lon="7.756984597072005">
        <ele>2344.8600000000001</ele>
        <time>2023-10-08T11:21:05Z</time>
      </trkpt>
      <trkpt lat="45.895608616992831" lon="7.756997253745794">
        <ele>2345.02</ele>
        <time>2023-10-08T11:21:06Z</time>
      </trkpt>
      <trkpt lat="45.895615154877305" lon="7.757009491324425">
        <ele>2345.0799999999999</ele>
        <time>2023-10-08T11:21:07Z</time>
      </trkpt>
      <trkpt lat="45.895618004724383" lon="7.757025081664324">
        <ele>2344.98</ele>
        <time>2023-10-08T11:21:08Z</time>
      </trkpt>
      <trkpt lat="45.895657986402512" lon="7.757154833525419">
        <ele>2346.3200000000002</ele>
        <time>2023-10-08T11:21:18Z</time>
      </trkpt>
      <trkpt lat="45.895660668611526" lon="7.757361615076661">
        <ele>2347.6799999999998</ele>
        <time>2023-10-08T11:21:32Z</time>
      </trkpt>
      <trkpt lat="45.895706601440907" lon="7.757533024996519">
        <ele>2349</ele>
        <time>2023-10-08T11:21:45Z</time>
      </trkpt>
      <trkpt lat="45.895744739100337" lon="7.757707200944424">
        <ele>2350.9400000000001</ele>
        <time>2023-10-08T11:21:58Z</time>
      </trkpt>
      <trkpt lat="45.895792432129383" lon="7.757866038009524">
        <ele>2352.8600000000001</ele>
        <time>2023-10-08T11:22:10Z</time>
      </trkpt>
      <trkpt lat="45.895833084359765" lon="7.758028982207179">
        <ele>2355.0100000000002</ele>
        <time>2023-10-08T11:22:23Z</time>
      </trkpt>
      <trkpt lat="45.895870383828878" lon="7.758161583915353">
        <ele>2356.8200000000002</ele>
        <time>2023-10-08T11:22:34Z</time>
      </trkpt>
      <trkpt lat="45.895877676084638" lon="7.7582938503474">
        <ele>2358.0100000000002</ele>
        <time>2023-10-08T11:22:44Z</time>
      </trkpt>
      <trkpt lat="45.895855715498328" lon="7.758460231125355">
        <ele>2359.8299999999999</ele>
        <time>2023-10-08T11:22:56Z</time>
      </trkpt>
      <trkpt lat="45.895851105451584" lon="7.758563244715333">
        <ele>2361.4499999999998</ele>
        <time>2023-10-08T11:23:05Z</time>
      </trkpt>
      <trkpt lat="45.895910197868943" lon="7.758680675178766">
        <ele>2362.9200000000001</ele>
        <time>2023-10-08T11:23:18Z</time>
      </trkpt>
      <trkpt lat="45.896049086004496" lon="7.758782431483269">
        <ele>2365.0100000000002</ele>
        <time>2023-10-08T11:23:33Z</time>
      </trkpt>
      <trkpt lat="45.89606006629765" lon="7.758785868063569">
        <ele>2365.1300000000001</ele>
        <time>2023-10-08T11:23:34Z</time>
      </trkpt>
      <trkpt lat="45.896117398515344" lon="7.758850827813149">
        <ele>2366.1999999999998</ele>
        <time>2023-10-08T11:23:42Z</time>
      </trkpt>
      <trkpt lat="45.89610013179481" lon="7.758971694856882">
        <ele>2367.9299999999998</ele>
        <time>2023-10-08T11:23:53Z</time>
      </trkpt>
      <trkpt lat="45.896074818447232" lon="7.759049311280251">
        <ele>2367.9699999999998</ele>
        <time>2023-10-08T11:24:05Z</time>
      </trkpt>
      <trkpt lat="45.896068615838885" lon="7.759061465039849">
        <ele>2367.77</ele>
        <time>2023-10-08T11:24:18Z</time>
      </trkpt>
      <trkpt lat="45.89601312763989" lon="7.759143523871899">
        <ele>2367.6999999999998</ele>
        <time>2023-10-08T11:24:34Z</time>
      </trkpt>
      <trkpt lat="45.896002147346735" lon="7.759152157232165">
        <ele>2367.5999999999999</ele>
        <time>2023-10-08T11:24:35Z</time>
      </trkpt>
      <trkpt lat="45.895952358841896" lon="7.759091975167394">
        <ele>2367.5500000000002</ele>
        <time>2023-10-08T11:24:44Z</time>
      </trkpt>
      <trkpt lat="45.895910365507007" lon="7.75897353887558">
        <ele>2371.5500000000002</ele>
        <time>2023-10-08T12:01:46Z</time>
      </trkpt>
      <trkpt lat="45.895901815965772" lon="7.759032631292939">
        <ele>2373.7800000000002</ele>
        <time>2023-10-08T12:11:34Z</time>
      </trkpt>
      <trkpt lat="45.895904414355755" lon="7.759101195260882">
        <ele>2374.29</ele>
        <time>2023-10-08T12:11:47Z</time>
      </trkpt>
      <trkpt lat="45.8958899974823" lon="7.759114522486925">
        <ele>2373.9499999999998</ele>
        <time>2023-10-08T12:11:56Z</time>
      </trkpt>
      <trkpt lat="45.895863678306341" lon="7.759102452546358">
        <ele>2373.54</ele>
        <time>2023-10-08T12:11:58Z</time>
      </trkpt>
      <trkpt lat="45.895820343866944" lon="7.759150564670563">
        <ele>2373.6900000000001</ele>
        <time>2023-10-08T12:12:06Z</time>
      </trkpt>
      <trkpt lat="45.895809447392821" lon="7.759156096726656">
        <ele>2373.75</ele>
        <time>2023-10-08T12:12:09Z</time>
      </trkpt>
      <trkpt lat="45.89576636441052" lon="7.759135812520981">
        <ele>2373.3499999999999</ele>
        <time>2023-10-08T12:12:20Z</time>
      </trkpt>
      <trkpt lat="45.895701572299004" lon="7.759123826399446">
        <ele>2372.23</ele>
        <time>2023-10-08T12:12:37Z</time>
      </trkpt>
      <trkpt lat="45.895619178190827" lon="7.759131118655205">
        <ele>2372.8800000000001</ele>
        <time>2023-10-08T12:12:50Z</time>
      </trkpt>
      <trkpt lat="45.895594786852598" lon="7.759129861369729">
        <ele>2373.1500000000001</ele>
        <time>2023-10-08T12:13:01Z</time>
      </trkpt>
      <trkpt lat="45.895561929792166" lon="7.759093148633838">
        <ele>2372.7399999999998</ele>
        <time>2023-10-08T12:13:15Z</time>
      </trkpt>
      <trkpt lat="45.895527312532067" lon="7.759107230231166">
        <ele>2373.1799999999998</ele>
        <time>2023-10-08T12:13:27Z</time>
      </trkpt>
      <trkpt lat="45.89546537026763" lon="7.759088538587093">
        <ele>2373.8400000000001</ele>
        <time>2023-10-08T12:13:40Z</time>
      </trkpt>
      <trkpt lat="45.895422790199518" lon="7.7591054700315">
        <ele>2372.8800000000001</ele>
        <time>2023-10-08T12:13:55Z</time>
      </trkpt>
      <trkpt lat="45.895377863198519" lon="7.759109409525991">
        <ele>2372.0100000000002</ele>
        <time>2023-10-08T12:14:03Z</time>
      </trkpt>
      <trkpt lat="45.895310640335083" lon="7.759092394262552">
        <ele>2370.9400000000001</ele>
        <time>2023-10-08T12:14:12Z</time>
      </trkpt>
      <trkpt lat="45.89526504278183" lon="7.759078312665224">
        <ele>2370.46</ele>
        <time>2023-10-08T12:14:23Z</time>
      </trkpt>
      <trkpt lat="45.895236544311047" lon="7.759091639891267">
        <ele>2370.8699999999999</ele>
        <time>2023-10-08T12:14:38Z</time>
      </trkpt>
      <trkpt lat="45.895178373903036" lon="7.759093148633838">
        <ele>2369.3899999999999</ele>
        <time>2023-10-08T12:14:52Z</time>
      </trkpt>
      <trkpt lat="45.895125567913055" lon="7.759031457826495">
        <ele>2368.8400000000001</ele>
        <time>2023-10-08T12:15:02Z</time>
      </trkpt>
      <trkpt lat="45.895085334777832" lon="7.759018884971738">
        <ele>2368.75</ele>
        <time>2023-10-08T12:15:09Z</time>
      </trkpt>
      <trkpt lat="45.895059769973159" lon="7.759030116721988">
        <ele>2368.3000000000002</ele>
        <time>2023-10-08T12:15:12Z</time>
      </trkpt>
      <trkpt lat="45.895033618435264" lon="7.759025758132339">
        <ele>2367.9899999999998</ele>
        <time>2023-10-08T12:15:15Z</time>
      </trkpt>
      <trkpt lat="45.894974106922746" lon="7.75897890329361">
        <ele>2367.02</ele>
        <time>2023-10-08T12:15:28Z</time>
      </trkpt>
      <trkpt lat="45.894916942343116" lon="7.758919559419155">
        <ele>2366.0599999999999</ele>
        <time>2023-10-08T12:15:37Z</time>
      </trkpt>
      <trkpt lat="45.894839996472001" lon="7.758869770914316">
        <ele>2364.46</ele>
        <time>2023-10-08T12:15:48Z</time>
      </trkpt>
      <trkpt lat="45.894852234050632" lon="7.758820652961731">
        <ele>2363.9099999999999</ele>
        <time>2023-10-08T12:15:59Z</time>
      </trkpt>
      <trkpt lat="45.894809989258647" lon="7.758775809779763">
        <ele>2364.1199999999999</ele>
        <time>2023-10-08T12:17:14Z</time>
      </trkpt>
      <trkpt lat="45.894692894071341" lon="7.758749574422836">
        <ele>2362.1599999999999</ele>
        <time>2023-10-08T12:17:28Z</time>
      </trkpt>
      <trkpt lat="45.894653834402561" lon="7.75874437764287">
        <ele>2361.46</ele>
        <time>2023-10-08T12:17:34Z</time>
      </trkpt>
      <trkpt lat="45.894554844126105" lon="7.758803050965071">
        <ele>2359.8000000000002</ele>
        <time>2023-10-08T12:17:45Z</time>
      </trkpt>
      <trkpt lat="45.894432803615928" lon="7.758830208331347">
        <ele>2358.2199999999998</ele>
        <time>2023-10-08T12:17:56Z</time>
      </trkpt>
      <trkpt lat="45.894422493875027" lon="7.758838925510645">
        <ele>2358.04</ele>
        <time>2023-10-08T12:17:57Z</time>
      </trkpt>
      <trkpt lat="45.894318725913763" lon="7.758858874440193">
        <ele>2356.98</ele>
        <time>2023-10-08T12:18:08Z</time>
      </trkpt>
      <trkpt lat="45.894265165552497" lon="7.75893590413034">
        <ele>2356.1500000000001</ele>
        <time>2023-10-08T12:18:15Z</time>
      </trkpt>
      <trkpt lat="45.894177490845323" lon="7.758913356810808">
        <ele>2355.8200000000002</ele>
        <time>2023-10-08T12:18:26Z</time>
      </trkpt>
      <trkpt lat="45.894133904948831" lon="7.758937077596784">
        <ele>2355.8499999999999</ele>
        <time>2023-10-08T12:18:32Z</time>
      </trkpt>
      <trkpt lat="45.894066095352173" lon="7.758864155039191">
        <ele>2354.6599999999999</ele>
        <time>2023-10-08T12:18:42Z</time>
      </trkpt>
      <trkpt lat="45.894010104238987" lon="7.758851079270244">
        <ele>2354.3000000000002</ele>
        <time>2023-10-08T12:18:51Z</time>
      </trkpt>
      <trkpt lat="45.893945060670376" lon="7.758800452575088">
        <ele>2354.7800000000002</ele>
        <time>2023-10-08T12:19:00Z</time>
      </trkpt>
      <trkpt lat="45.893879681825638" lon="7.758748652413487">
        <ele>2354.9699999999998</ele>
        <time>2023-10-08T12:19:09Z</time>
      </trkpt>
      <trkpt lat="45.893765268847346" lon="7.758720321580768">
        <ele>2355.9000000000001</ele>
        <time>2023-10-08T12:19:22Z</time>
      </trkpt>
      <trkpt lat="45.893663261085749" lon="7.758717890828848">
        <ele>2355.9099999999999</ele>
        <time>2023-10-08T12:19:34Z</time>
      </trkpt>
      <trkpt lat="45.893590254709125" lon="7.758645052090287">
        <ele>2356.1100000000001</ele>
        <time>2023-10-08T12:19:44Z</time>
      </trkpt>
      <trkpt lat="45.893539460375905" lon="7.758599622175098">
        <ele>2354.6599999999999</ele>
        <time>2023-10-08T12:19:52Z</time>
      </trkpt>
      <trkpt lat="45.893481876701117" lon="7.758536003530026">
        <ele>2354.6500000000001</ele>
        <time>2023-10-08T12:20:01Z</time>
      </trkpt>
      <trkpt lat="45.893372492864728" lon="7.758444892242551">
        <ele>2354.1300000000001</ele>
        <time>2023-10-08T12:20:14Z</time>
      </trkpt>
      <trkpt lat="45.893363356590271" lon="7.758441036567092">
        <ele>2354.1199999999999</ele>
        <time>2023-10-08T12:20:15Z</time>
      </trkpt>
      <trkpt lat="45.893197059631348" lon="7.758408850058913">
        <ele>2351.4499999999998</ele>
        <time>2023-10-08T12:20:30Z</time>
      </trkpt>
      <trkpt lat="45.893051633611321" lon="7.758336095139384">
        <ele>2350.8000000000002</ele>
        <time>2023-10-08T12:20:46Z</time>
      </trkpt>
      <trkpt lat="45.893033612519503" lon="7.758318996056914">
        <ele>2351.1900000000001</ele>
        <time>2023-10-08T12:20:49Z</time>
      </trkpt>
      <trkpt lat="45.892990529537201" lon="7.758289491757751">
        <ele>2351.9299999999998</ele>
        <time>2023-10-08T12:20:55Z</time>
      </trkpt>
      <trkpt lat="45.892922803759575" lon="7.758291335776448">
        <ele>2352.48</ele>
        <time>2023-10-08T12:21:33Z</time>
      </trkpt>
      <trkpt lat="45.89289765805006" lon="7.758244313299656">
        <ele>2352.4400000000001</ele>
        <time>2023-10-08T12:22:36Z</time>
      </trkpt>
      <trkpt lat="45.892895814031363" lon="7.758228052407503">
        <ele>2352.9499999999998</ele>
        <time>2023-10-08T12:24:51Z</time>
      </trkpt>
      <trkpt lat="45.892865555360913" lon="7.758211204782128">
        <ele>2352.1100000000001</ele>
        <time>2023-10-08T12:28:55Z</time>
      </trkpt>
      <trkpt lat="45.892804870381951" lon="7.758194524794817">
        <ele>2352.7600000000002</ele>
        <time>2023-10-08T12:29:03Z</time>
      </trkpt>
      <trkpt lat="45.892784418538213" lon="7.758178347721696">
        <ele>2352.6399999999999</ele>
        <time>2023-10-08T12:29:07Z</time>
      </trkpt>
      <trkpt lat="45.892719710245728" lon="7.758133923634887">
        <ele>2352.4699999999998</ele>
        <time>2023-10-08T12:29:13Z</time>
      </trkpt>
      <trkpt lat="45.892634717747569" lon="7.75809301994741">
        <ele>2352.7800000000002</ele>
        <time>2023-10-08T12:29:21Z</time>
      </trkpt>
      <trkpt lat="45.892604039981961" lon="7.758079776540399">
        <ele>2352.6399999999999</ele>
        <time>2023-10-08T12:29:24Z</time>
      </trkpt>
      <trkpt lat="45.892581408843398" lon="7.758056977763772">
        <ele>2352.2199999999998</ele>
        <time>2023-10-08T12:29:27Z</time>
      </trkpt>
      <trkpt lat="45.892560118809342" lon="7.757919346913695">
        <ele>2350.5900000000001</ele>
        <time>2023-10-08T12:29:35Z</time>
      </trkpt>
      <trkpt lat="45.892551317811012" lon="7.757759168744087">
        <ele>2350.2199999999998</ele>
        <time>2023-10-08T12:29:44Z</time>
      </trkpt>
      <trkpt lat="45.892526842653751" lon="7.757603600621223">
        <ele>2349.6199999999999</ele>
        <time>2023-10-08T12:29:53Z</time>
      </trkpt>
      <trkpt lat="45.892535811290145" lon="7.757522379979491">
        <ele>2349.48</ele>
        <time>2023-10-08T12:29:59Z</time>
      </trkpt>
      <trkpt lat="45.892551066353917" lon="7.757382234558463">
        <ele>2349.3699999999999</ele>
        <time>2023-10-08T12:30:09Z</time>
      </trkpt>
      <trkpt lat="45.892548467963934" lon="7.7573596034199">
        <ele>2348.9699999999998</ele>
        <time>2023-10-08T12:30:11Z</time>
      </trkpt>
      <trkpt lat="45.892532290890813" lon="7.757306713610888">
        <ele>2349.6199999999999</ele>
        <time>2023-10-08T12:30:15Z</time>
      </trkpt>
      <trkpt lat="45.89250672608614" lon="7.757199760526419">
        <ele>2351.6300000000001</ele>
        <time>2023-10-08T12:30:25Z</time>
      </trkpt>
      <trkpt lat="45.892486022785306" lon="7.757098926231265">
        <ele>2352.9000000000001</ele>
        <time>2023-10-08T12:30:35Z</time>
      </trkpt>
      <trkpt lat="45.892483592033386" lon="7.757025249302387">
        <ele>2354.4899999999998</ele>
        <time>2023-10-08T12:30:45Z</time>
      </trkpt>
      <trkpt lat="45.892476635053754" lon="7.756969258189201">
        <ele>2355.46</ele>
        <time>2023-10-08T12:30:51Z</time>
      </trkpt>
      <trkpt lat="45.892479233443737" lon="7.75684017688036">
        <ele>2357.4200000000001</ele>
        <time>2023-10-08T12:31:04Z</time>
      </trkpt>
      <trkpt lat="45.892508486285806" lon="7.756708413362503">
        <ele>2359.3200000000002</ele>
        <time>2023-10-08T12:31:17Z</time>
      </trkpt>
      <trkpt lat="45.892510078847408" lon="7.756617050617933">
        <ele>2360.3800000000001</ele>
        <time>2023-10-08T12:31:26Z</time>
      </trkpt>
      <trkpt lat="45.892473869025707" lon="7.756547061726451">
        <ele>2360.6799999999998</ele>
        <time>2023-10-08T12:31:33Z</time>
      </trkpt>
      <trkpt lat="45.892412094399333" lon="7.756397863849998">
        <ele>2360.1900000000001</ele>
        <time>2023-10-08T12:31:46Z</time>
      </trkpt>
      <trkpt lat="45.892375465482473" lon="7.756274649873376">
        <ele>2359.79</ele>
        <time>2023-10-08T12:31:58Z</time>
      </trkpt>
      <trkpt lat="45.892356438562274" lon="7.756156381219626">
        <ele>2359.2199999999998</ele>
        <time>2023-10-08T12:32:10Z</time>
      </trkpt>
      <trkpt lat="45.892345458269119" lon="7.756036520004273">
        <ele>2361.04</ele>
        <time>2023-10-08T12:32:22Z</time>
      </trkpt>
      <trkpt lat="45.892313523218036" lon="7.755935518071055">
        <ele>2362.98</ele>
        <time>2023-10-08T12:32:37Z</time>
      </trkpt>
      <trkpt lat="45.892312433570623" lon="7.755856812000275">
        <ele>2364.3800000000001</ele>
        <time>2023-10-08T12:32:51Z</time>
      </trkpt>
      <trkpt lat="45.892310589551926" lon="7.755820350721479">
        <ele>2364.96</ele>
        <time>2023-10-08T12:33:08Z</time>
      </trkpt>
      <trkpt lat="45.892312852665782" lon="7.755779027938843">
        <ele>2366.1700000000001</ele>
        <time>2023-10-08T12:33:16Z</time>
      </trkpt>
      <trkpt lat="45.892318887636065" lon="7.755702333524823">
        <ele>2366.1199999999999</ele>
        <time>2023-10-08T12:33:30Z</time>
      </trkpt>
      <trkpt lat="45.892352750524879" lon="7.755575431510806">
        <ele>2366.2600000000002</ele>
        <time>2023-10-08T12:33:43Z</time>
      </trkpt>
      <trkpt lat="45.892357779666781" lon="7.755534024909139">
        <ele>2366.3899999999999</ele>
        <time>2023-10-08T12:33:46Z</time>
      </trkpt>
      <trkpt lat="45.892356354743242" lon="7.755414582788944">
        <ele>2367.4499999999998</ele>
        <time>2023-10-08T12:33:56Z</time>
      </trkpt>
      <trkpt lat="45.892371442168951" lon="7.755353227257729">
        <ele>2367.23</ele>
        <time>2023-10-08T12:34:04Z</time>
      </trkpt>
      <trkpt lat="45.892377812415361" lon="7.755323639139533">
        <ele>2366.8699999999999</ele>
        <time>2023-10-08T12:34:06Z</time>
      </trkpt>
      <trkpt lat="45.892386781051755" lon="7.755177039653063">
        <ele>2367.0599999999999</ele>
        <time>2023-10-08T12:34:16Z</time>
      </trkpt>
      <trkpt lat="45.892446041107178" lon="7.755007557570934">
        <ele>2365.1900000000001</ele>
        <time>2023-10-08T12:34:29Z</time>
      </trkpt>
      <trkpt lat="45.892450399696827" lon="7.754983920603991">
        <ele>2365.1599999999999</ele>
        <time>2023-10-08T12:34:31Z</time>
      </trkpt>
      <trkpt lat="45.892501445487142" lon="7.754865819588304">
        <ele>2364.0599999999999</ele>
        <time>2023-10-08T12:34:41Z</time>
      </trkpt>
      <trkpt lat="45.892534889280796" lon="7.754699354991317">
        <ele>2362.3499999999999</ele>
        <time>2023-10-08T12:34:53Z</time>
      </trkpt>
      <trkpt lat="45.892510917037725" lon="7.754565998911858">
        <ele>2360.1999999999998</ele>
        <time>2023-10-08T12:35:05Z</time>
      </trkpt>
      <trkpt lat="45.89251359924674" lon="7.754503972828388">
        <ele>2358.6300000000001</ele>
        <time>2023-10-08T12:35:15Z</time>
      </trkpt>
      <trkpt lat="45.89247303083539" lon="7.754448149353266">
        <ele>2357.9200000000001</ele>
        <time>2023-10-08T12:35:22Z</time>
      </trkpt>
      <trkpt lat="45.892453584820032" lon="7.754431637004018">
        <ele>2357.73</ele>
        <time>2023-10-08T12:35:34Z</time>
      </trkpt>
      <trkpt lat="45.892436737194657" lon="7.754403976723552">
        <ele>2358.3400000000001</ele>
        <time>2023-10-08T12:35:37Z</time>
      </trkpt>
      <trkpt lat="45.892417291179299" lon="7.754372544586659">
        <ele>2358.2800000000002</ele>
        <time>2023-10-08T12:35:40Z</time>
      </trkpt>
      <trkpt lat="45.89238946326077" lon="7.754299035295844">
        <ele>2357.7600000000002</ele>
        <time>2023-10-08T12:35:46Z</time>
      </trkpt>
      <trkpt lat="45.892314277589321" lon="7.75421186350286">
        <ele>2356.3499999999999</ele>
        <time>2023-10-08T12:35:59Z</time>
      </trkpt>
      <trkpt lat="45.892215371131897" lon="7.754144808277488">
        <ele>2354.77</ele>
        <time>2023-10-08T12:36:12Z</time>
      </trkpt>
      <trkpt lat="45.892125433310866" lon="7.754109855741262">
        <ele>2353.6999999999998</ele>
        <time>2023-10-08T12:36:25Z</time>
      </trkpt>
      <trkpt lat="45.892110345885158" lon="7.754099797457457">
        <ele>2353.5799999999999</ele>
        <time>2023-10-08T12:36:27Z</time>
      </trkpt>
      <trkpt lat="45.892048822715878" lon="7.75399686768651">
        <ele>2353.0700000000002</ele>
        <time>2023-10-08T12:36:36Z</time>
      </trkpt>
      <trkpt lat="45.891934325918555" lon="7.753894021734595">
        <ele>2352.8000000000002</ele>
        <time>2023-10-08T12:36:51Z</time>
      </trkpt>
      <trkpt lat="45.891888057813048" lon="7.753849346190691">
        <ele>2351.6199999999999</ele>
        <time>2023-10-08T12:36:57Z</time>
      </trkpt>
      <trkpt lat="45.891837179660797" lon="7.753741471096873">
        <ele>2349.8400000000001</ele>
        <time>2023-10-08T12:37:12Z</time>
      </trkpt>
      <trkpt lat="45.89181924238801" lon="7.753686318174005">
        <ele>2349.2199999999998</ele>
        <time>2023-10-08T12:37:18Z</time>
      </trkpt>
      <trkpt lat="45.891763251274824" lon="7.753581963479519">
        <ele>2348.0700000000002</ele>
        <time>2023-10-08T12:37:29Z</time>
      </trkpt>
      <trkpt lat="45.89174497872591" lon="7.753520188853145">
        <ele>2346.5599999999999</ele>
        <time>2023-10-08T12:37:34Z</time>
      </trkpt>
      <trkpt lat="45.891659064218402" lon="7.75339731015265">
        <ele>2344.5300000000002</ele>
        <time>2023-10-08T12:37:49Z</time>
      </trkpt>
      <trkpt lat="45.891615645959973" lon="7.753328662365675">
        <ele>2343.4400000000001</ele>
        <time>2023-10-08T12:38:00Z</time>
      </trkpt>
      <trkpt lat="45.891626290977001" lon="7.753272503614426">
        <ele>2342.6300000000001</ele>
        <time>2023-10-08T12:38:12Z</time>
      </trkpt>
      <trkpt lat="45.89165654964745" lon="7.753131100907922">
        <ele>2342.0900000000001</ele>
        <time>2023-10-08T12:38:23Z</time>
      </trkpt>
      <trkpt lat="45.89164724573493" lon="7.753051221370697">
        <ele>2341.29</ele>
        <time>2023-10-08T12:38:29Z</time>
      </trkpt>
      <trkpt lat="45.891570383682847" lon="7.752977376803756">
        <ele>2341.0100000000002</ele>
        <time>2023-10-08T12:38:40Z</time>
      </trkpt>
      <trkpt lat="45.891449181362987" lon="7.752896826714277">
        <ele>2341.25</ele>
        <time>2023-10-08T12:38:54Z</time>
      </trkpt>
      <trkpt lat="45.891327224671841" lon="7.752854749560356">
        <ele>2340.02</ele>
        <time>2023-10-08T12:39:06Z</time>
      </trkpt>
      <trkpt lat="45.891251871362329" lon="7.75279238820076">
        <ele>2339.8200000000002</ele>
        <time>2023-10-08T12:39:20Z</time>
      </trkpt>
      <trkpt lat="45.891232509166002" lon="7.752754585817456">
        <ele>2339.5</ele>
        <time>2023-10-08T12:39:31Z</time>
      </trkpt>
      <trkpt lat="45.891220774501562" lon="7.752739330753684">
        <ele>2339.6199999999999</ele>
        <time>2023-10-08T12:39:42Z</time>
      </trkpt>
      <trkpt lat="45.891064452007413" lon="7.752673532813788">
        <ele>2338.1300000000001</ele>
        <time>2023-10-08T12:39:57Z</time>
      </trkpt>
      <trkpt lat="45.890951380133629" lon="7.752641262486577">
        <ele>2337.0700000000002</ele>
        <time>2023-10-08T12:40:08Z</time>
      </trkpt>
      <trkpt lat="45.890935705974698" lon="7.752602370455861">
        <ele>2335.9200000000001</ele>
        <time>2023-10-08T12:40:13Z</time>
      </trkpt>
      <trkpt lat="45.890863370150328" lon="7.752566579729319">
        <ele>2335.1100000000001</ele>
        <time>2023-10-08T12:40:24Z</time>
      </trkpt>
      <trkpt lat="45.890831686556339" lon="7.75256959721446">
        <ele>2334.8099999999999</ele>
        <time>2023-10-08T12:40:37Z</time>
      </trkpt>
      <trkpt lat="45.89081852696836" lon="7.752571273595095">
        <ele>2333.9699999999998</ele>
        <time>2023-10-08T12:40:53Z</time>
      </trkpt>
      <trkpt lat="45.890765637159348" lon="7.752568759024143">
        <ele>2334.1599999999999</ele>
        <time>2023-10-08T12:41:01Z</time>
      </trkpt>
      <trkpt lat="45.890734205022454" lon="7.752554090693593">
        <ele>2334.3400000000001</ele>
        <time>2023-10-08T12:41:04Z</time>
      </trkpt>
      <trkpt lat="45.890602692961693" lon="7.752514611929655">
        <ele>2335.3099999999999</ele>
        <time>2023-10-08T12:41:17Z</time>
      </trkpt>
      <trkpt lat="45.890566315501928" lon="7.752504553645849">
        <ele>2335.2600000000002</ele>
        <time>2023-10-08T12:41:21Z</time>
      </trkpt>
      <trkpt lat="45.890526752918959" lon="7.752472953870893">
        <ele>2335.0599999999999</ele>
        <time>2023-10-08T12:41:25Z</time>
      </trkpt>
      <trkpt lat="45.890497835353017" lon="7.752452418208122">
        <ele>2335.04</ele>
        <time>2023-10-08T12:41:28Z</time>
      </trkpt>
      <trkpt lat="45.890426253899932" lon="7.752449819818139">
        <ele>2335.0100000000002</ele>
        <time>2023-10-08T12:41:35Z</time>
      </trkpt>
      <trkpt lat="45.890317792072892" lon="7.752403467893601">
        <ele>2334.6999999999998</ele>
        <time>2023-10-08T12:41:47Z</time>
      </trkpt>
      <trkpt lat="45.890221986919641" lon="7.752355858683586">
        <ele>2334.1599999999999</ele>
        <time>2023-10-08T12:42:00Z</time>
      </trkpt>
      <trkpt lat="45.890207318589091" lon="7.75234186090529">
        <ele>2333.8000000000002</ele>
        <time>2023-10-08T12:42:13Z</time>
      </trkpt>
      <trkpt lat="45.890199858695269" lon="7.752316296100617">
        <ele>2334.0999999999999</ele>
        <time>2023-10-08T12:42:21Z</time>
      </trkpt>
      <trkpt lat="45.890181502327323" lon="7.752298694103956">
        <ele>2333.9400000000001</ele>
        <time>2023-10-08T12:42:23Z</time>
      </trkpt>
      <trkpt lat="45.890079997479916" lon="7.752167517319322">
        <ele>2333.48</ele>
        <time>2023-10-08T12:42:37Z</time>
      </trkpt>
      <trkpt lat="45.890001710504293" lon="7.752038855105639">
        <ele>2331.4000000000001</ele>
        <time>2023-10-08T12:42:51Z</time>
      </trkpt>
      <trkpt lat="45.889997268095613" lon="7.7520184032619">
        <ele>2331.1300000000001</ele>
        <time>2023-10-08T12:42:57Z</time>
      </trkpt>
      <trkpt lat="45.889978827908635" lon="7.751986216753721">
        <ele>2330.3000000000002</ele>
        <time>2023-10-08T12:43:00Z</time>
      </trkpt>
      <trkpt lat="45.889954604208469" lon="7.751937936991453">
        <ele>2329.2600000000002</ele>
        <time>2023-10-08T12:43:04Z</time>
      </trkpt>
      <trkpt lat="45.889935744926333" lon="7.751904241740704">
        <ele>2328.0100000000002</ele>
        <time>2023-10-08T12:43:07Z</time>
      </trkpt>
      <trkpt lat="45.88986081071198" lon="7.751798210665584">
        <ele>2325.98</ele>
        <time>2023-10-08T12:43:20Z</time>
      </trkpt>
      <trkpt lat="45.889833653345704" lon="7.751768119633198">
        <ele>2325.3800000000001</ele>
        <time>2023-10-08T12:43:33Z</time>
      </trkpt>
      <trkpt lat="45.889824433252215" lon="7.751771053299308">
        <ele>2325.23</ele>
        <time>2023-10-08T12:43:53Z</time>
      </trkpt>
      <trkpt lat="45.889830719679594" lon="7.751777758821845">
        <ele>2324.8899999999999</ele>
        <time>2023-10-08T12:44:20Z</time>
      </trkpt>
      <trkpt lat="45.889791324734688" lon="7.751712379977107">
        <ele>2323.4699999999998</ele>
        <time>2023-10-08T12:44:37Z</time>
      </trkpt>
      <trkpt lat="45.88976601138711" lon="7.751630404964089">
        <ele>2321.77</ele>
        <time>2023-10-08T12:44:46Z</time>
      </trkpt>
      <trkpt lat="45.889747906476259" lon="7.751612467691302">
        <ele>2321.4200000000001</ele>
        <time>2023-10-08T12:44:48Z</time>
      </trkpt>
      <trkpt lat="45.889658555388451" lon="7.751445081084967">
        <ele>2320.1399999999999</ele>
        <time>2023-10-08T12:45:05Z</time>
      </trkpt>
      <trkpt lat="45.88961505331099" lon="7.751332931220532">
        <ele>2317.8600000000001</ele>
        <time>2023-10-08T12:45:16Z</time>
      </trkpt>
      <trkpt lat="45.889561157673597" lon="7.751222541555762">
        <ele>2315.8499999999999</ele>
        <time>2023-10-08T12:45:29Z</time>
      </trkpt>
      <trkpt lat="45.889551350846887" lon="7.751117097213864">
        <ele>2313.4400000000001</ele>
        <time>2023-10-08T12:45:43Z</time>
      </trkpt>
      <trkpt lat="45.889507764950395" lon="7.751018861308694">
        <ele>2312.0900000000001</ele>
        <time>2023-10-08T12:45:55Z</time>
      </trkpt>
      <trkpt lat="45.88949334807694" lon="7.750975359231234">
        <ele>2311.6999999999998</ele>
        <time>2023-10-08T12:46:00Z</time>
      </trkpt>
      <trkpt lat="45.889420174062252" lon="7.750875446945429">
        <ele>2311.6100000000001</ele>
        <time>2023-10-08T12:46:12Z</time>
      </trkpt>
      <trkpt lat="45.889415312558413" lon="7.750867316499353">
        <ele>2311.6900000000001</ele>
        <time>2023-10-08T12:46:13Z</time>
      </trkpt>
      <trkpt lat="45.88934431783855" lon="7.75074896402657">
        <ele>2311.8000000000002</ele>
        <time>2023-10-08T12:46:27Z</time>
      </trkpt>
      <trkpt lat="45.889307102188468" lon="7.750651147216559">
        <ele>2310.5300000000002</ele>
        <time>2023-10-08T12:46:35Z</time>
      </trkpt>
      <trkpt lat="45.889226049184799" lon="7.750601023435593">
        <ele>2312.5799999999999</ele>
        <time>2023-10-08T12:46:50Z</time>
      </trkpt>
      <trkpt lat="45.889163687825203" lon="7.750511169433594">
        <ele>2315.73</ele>
        <time>2023-10-08T12:47:07Z</time>
      </trkpt>
      <trkpt lat="45.889118257910013" lon="7.750424584373832">
        <ele>2315.71</ele>
        <time>2023-10-08T12:47:19Z</time>
      </trkpt>
      <trkpt lat="45.889048352837563" lon="7.750350572168827">
        <ele>2316.7199999999998</ele>
        <time>2023-10-08T12:47:31Z</time>
      </trkpt>
      <trkpt lat="45.888979956507683" lon="7.750267758965492">
        <ele>2317.8699999999999</ele>
        <time>2023-10-08T12:47:46Z</time>
      </trkpt>
      <trkpt lat="45.888952296227217" lon="7.750210594385862">
        <ele>2316.9000000000001</ele>
        <time>2023-10-08T12:47:52Z</time>
      </trkpt>
      <trkpt lat="45.888864202424884" lon="7.750107245519757">
        <ele>2315.8499999999999</ele>
        <time>2023-10-08T12:48:04Z</time>
      </trkpt>
      <trkpt lat="45.888804607093334" lon="7.750034490600228">
        <ele>2315.8099999999999</ele>
        <time>2023-10-08T12:48:16Z</time>
      </trkpt>
      <trkpt lat="45.888753393664956" lon="7.749942457303405">
        <ele>2312.6799999999998</ele>
        <time>2023-10-08T12:48:29Z</time>
      </trkpt>
      <trkpt lat="45.888712406158447" lon="7.749897614121437">
        <ele>2310.6500000000001</ele>
        <time>2023-10-08T12:48:34Z</time>
      </trkpt>
      <trkpt lat="45.888620372861624" lon="7.749809017404914">
        <ele>2307.75</ele>
        <time>2023-10-08T12:48:47Z</time>
      </trkpt>
      <trkpt lat="45.888539152219892" lon="7.749729054048657">
        <ele>2304.8800000000001</ele>
        <time>2023-10-08T12:48:59Z</time>
      </trkpt>
      <trkpt lat="45.888533536344767" lon="7.749729892238975">
        <ele>2304.75</ele>
        <time>2023-10-08T12:49:00Z</time>
      </trkpt>
      <trkpt lat="45.888454159721732" lon="7.74971597827971">
        <ele>2303.04</ele>
        <time>2023-10-08T12:49:09Z</time>
      </trkpt>
      <trkpt lat="45.888416860252619" lon="7.749729389324784">
        <ele>2302.0900000000001</ele>
        <time>2023-10-08T12:49:14Z</time>
      </trkpt>
      <trkpt lat="45.888331448659301" lon="7.749640205875039">
        <ele>2298.96</ele>
        <time>2023-10-08T12:49:26Z</time>
      </trkpt>
      <trkpt lat="45.888233883306384" lon="7.749549681320787">
        <ele>2297.5799999999999</ele>
        <time>2023-10-08T12:49:38Z</time>
      </trkpt>
      <trkpt lat="45.888146040961146" lon="7.749423533678055">
        <ele>2297.8800000000001</ele>
        <time>2023-10-08T12:49:51Z</time>
      </trkpt>
      <trkpt lat="45.888115949928761" lon="7.749389251694083">
        <ele>2297.8600000000001</ele>
        <time>2023-10-08T12:50:01Z</time>
      </trkpt>
      <trkpt lat="45.888105724006891" lon="7.749379612505436">
        <ele>2297.0799999999999</ele>
        <time>2023-10-08T12:50:20Z</time>
      </trkpt>
      <trkpt lat="45.888049565255642" lon="7.749335607513785">
        <ele>2297.6700000000001</ele>
        <time>2023-10-08T12:50:28Z</time>
      </trkpt>
      <trkpt lat="45.888022659346461" lon="7.749299816787243">
        <ele>2295.6100000000001</ele>
        <time>2023-10-08T12:50:38Z</time>
      </trkpt>
      <trkpt lat="45.887991562485695" lon="7.749255811795592">
        <ele>2293.3400000000001</ele>
        <time>2023-10-08T12:50:48Z</time>
      </trkpt>
      <trkpt lat="45.887973541393876" lon="7.749252542853355">
        <ele>2292.5700000000002</ele>
        <time>2023-10-08T12:50:50Z</time>
      </trkpt>
      <trkpt lat="45.887920316308737" lon="7.749249693006277">
        <ele>2290.3499999999999</ele>
        <time>2023-10-08T12:50:56Z</time>
      </trkpt>
      <trkpt lat="45.887799030169845" lon="7.749189762398601">
        <ele>2287.2800000000002</ele>
        <time>2023-10-08T12:51:09Z</time>
      </trkpt>
      <trkpt lat="45.88769861496985" lon="7.749095298349857">
        <ele>2283.9899999999998</ele>
        <time>2023-10-08T12:51:21Z</time>
      </trkpt>
      <trkpt lat="45.887680761516094" lon="7.749079121276736">
        <ele>2283.8200000000002</ele>
        <time>2023-10-08T12:51:23Z</time>
      </trkpt>
      <trkpt lat="45.88765905238688" lon="7.749018520116806">
        <ele>2282.8400000000001</ele>
        <time>2023-10-08T12:51:28Z</time>
      </trkpt>
      <trkpt lat="45.887516643851995" lon="7.749003265053034">
        <ele>2282.1300000000001</ele>
        <time>2023-10-08T12:51:42Z</time>
      </trkpt>
      <trkpt lat="45.887471297755837" lon="7.748971749097109">
        <ele>2282.5100000000002</ele>
        <time>2023-10-08T12:51:49Z</time>
      </trkpt>
      <trkpt lat="45.887388987466693" lon="7.748872339725494">
        <ele>2282.1900000000001</ele>
        <time>2023-10-08T12:52:02Z</time>
      </trkpt>
      <trkpt lat="45.887329392135143" lon="7.748768655583262">
        <ele>2280.0799999999999</ele>
        <time>2023-10-08T12:52:16Z</time>
      </trkpt>
      <trkpt lat="45.887260995805264" lon="7.748647956177592">
        <ele>2279.02</ele>
        <time>2023-10-08T12:52:29Z</time>
      </trkpt>
      <trkpt lat="45.887238951399922" lon="7.748522227630019">
        <ele>2277.6700000000001</ele>
        <time>2023-10-08T12:52:41Z</time>
      </trkpt>
      <trkpt lat="45.887232916429639" lon="7.748472187668085">
        <ele>2276.8400000000001</ele>
        <time>2023-10-08T12:52:46Z</time>
      </trkpt>
      <trkpt lat="45.887283375486732" lon="7.748380238190293">
        <ele>2275.3099999999999</ele>
        <time>2023-10-08T12:52:57Z</time>
      </trkpt>
      <trkpt lat="45.887273568660021" lon="7.748329443857074">
        <ele>2274.5599999999999</ele>
        <time>2023-10-08T12:53:01Z</time>
      </trkpt>
      <trkpt lat="45.887173740193248" lon="7.748165410012007">
        <ele>2271.8600000000001</ele>
        <time>2023-10-08T12:53:16Z</time>
      </trkpt>
      <trkpt lat="45.887168040499091" lon="7.748155519366264">
        <ele>2271.6100000000001</ele>
        <time>2023-10-08T12:53:17Z</time>
      </trkpt>
      <trkpt lat="45.887152031064034" lon="7.748135905712843">
        <ele>2271.1100000000001</ele>
        <time>2023-10-08T12:53:19Z</time>
      </trkpt>
      <trkpt lat="45.887091681361198" lon="7.747974554076791">
        <ele>2269.3299999999999</ele>
        <time>2023-10-08T12:53:31Z</time>
      </trkpt>
      <trkpt lat="45.886954637244344" lon="7.747777663171291">
        <ele>2266.6399999999999</ele>
        <time>2023-10-08T12:53:49Z</time>
      </trkpt>
      <trkpt lat="45.886861765757203" lon="7.747635757550597">
        <ele>2265.3600000000001</ele>
        <time>2023-10-08T12:54:04Z</time>
      </trkpt>
      <trkpt lat="45.886846091598272" lon="7.747609689831734">
        <ele>2265.0599999999999</ele>
        <time>2023-10-08T12:54:08Z</time>
      </trkpt>
      <trkpt lat="45.886777695268393" lon="7.747471053153276">
        <ele>2262.5500000000002</ele>
        <time>2023-10-08T12:54:22Z</time>
      </trkpt>
      <trkpt lat="45.886771408841014" lon="7.747465102002025">
        <ele>2262.4499999999998</ele>
        <time>2023-10-08T12:54:23Z</time>
      </trkpt>
      <trkpt lat="45.886735701933503" lon="7.747414223849773">
        <ele>2261.8499999999999</ele>
        <time>2023-10-08T12:54:38Z</time>
      </trkpt>
      <trkpt lat="45.886722877621651" lon="7.747369296848774">
        <ele>2260.5700000000002</ele>
        <time>2023-10-08T12:54:49Z</time>
      </trkpt>
      <trkpt lat="45.886714411899447" lon="7.747340714558959">
        <ele>2259.5500000000002</ele>
        <time>2023-10-08T12:55:04Z</time>
      </trkpt>
      <trkpt lat="45.886650457978249" lon="7.747232085093856">
        <ele>2257.23</ele>
        <time>2023-10-08T12:55:21Z</time>
      </trkpt>
      <trkpt lat="45.886637298390269" lon="7.747198976576328">
        <ele>2256.5300000000002</ele>
        <time>2023-10-08T12:55:24Z</time>
      </trkpt>
      <trkpt lat="45.886559430509806" lon="7.747116163372994">
        <ele>2255.9699999999998</ele>
        <time>2023-10-08T12:55:36Z</time>
      </trkpt>
      <trkpt lat="45.886551132425666" lon="7.747108871117234">
        <ele>2256.0500000000002</ele>
        <time>2023-10-08T12:55:37Z</time>
      </trkpt>
      <trkpt lat="45.886520957574248" lon="7.747077774256468">
        <ele>2256.0300000000002</ele>
        <time>2023-10-08T12:55:41Z</time>
      </trkpt>
      <trkpt lat="45.886477958410978" lon="7.747001079842448">
        <ele>2255.2600000000002</ele>
        <time>2023-10-08T12:55:56Z</time>
      </trkpt>
      <trkpt lat="45.886387685313821" lon="7.74690049700439">
        <ele>2253.73</ele>
        <time>2023-10-08T12:56:07Z</time>
      </trkpt>
      <trkpt lat="45.886359522119164" lon="7.746857665479183">
        <ele>2253.27</ele>
        <time>2023-10-08T12:56:12Z</time>
      </trkpt>
      <trkpt lat="45.886292550712824" lon="7.74679253809154">
        <ele>2253.0500000000002</ele>
        <time>2023-10-08T12:56:21Z</time>
      </trkpt>
      <trkpt lat="45.88620244525373" lon="7.746686842292547">
        <ele>2251.3200000000002</ele>
        <time>2023-10-08T12:56:33Z</time>
      </trkpt>
      <trkpt lat="45.886136563494802" lon="7.746602687984705">
        <ele>2250.1799999999998</ele>
        <time>2023-10-08T12:56:45Z</time>
      </trkpt>
      <trkpt lat="45.886136563494802" lon="7.746594389900565">
        <ele>2250.1100000000001</ele>
        <time>2023-10-08T12:56:50Z</time>
      </trkpt>
      <trkpt lat="45.886085769161582" lon="7.746499590575695">
        <ele>2249.1900000000001</ele>
        <time>2023-10-08T12:57:01Z</time>
      </trkpt>
      <trkpt lat="45.886045452207327" lon="7.746465895324945">
        <ele>2249.3600000000001</ele>
        <time>2023-10-08T12:57:07Z</time>
      </trkpt>
      <trkpt lat="45.886032124981284" lon="7.746430775150657">
        <ele>2249.3299999999999</ele>
        <time>2023-10-08T12:57:10Z</time>
      </trkpt>
      <trkpt lat="45.885941265150905" lon="7.746320050209761">
        <ele>2247.75</ele>
        <time>2023-10-08T12:57:23Z</time>
      </trkpt>
      <trkpt lat="45.885923327878118" lon="7.746264478191733">
        <ele>2246.75</ele>
        <time>2023-10-08T12:57:30Z</time>
      </trkpt>
      <trkpt lat="45.885834563523531" lon="7.746190717443824">
        <ele>2246.6399999999999</ele>
        <time>2023-10-08T12:57:42Z</time>
      </trkpt>
      <trkpt lat="45.885786702856421" lon="7.746074460446835">
        <ele>2245.6599999999999</ele>
        <time>2023-10-08T12:57:55Z</time>
      </trkpt>
      <trkpt lat="45.885771028697491" lon="7.746016038581729">
        <ele>2244.1500000000001</ele>
        <time>2023-10-08T12:58:01Z</time>
      </trkpt>
      <trkpt lat="45.885704224929214" lon="7.745914366096258">
        <ele>2241.04</ele>
        <time>2023-10-08T12:58:11Z</time>
      </trkpt>
      <trkpt lat="45.885686120018363" lon="7.745859296992421">
        <ele>2240.4499999999998</ele>
        <time>2023-10-08T12:58:15Z</time>
      </trkpt>
      <trkpt lat="45.885646054521203" lon="7.745733568444848">
        <ele>2237.5999999999999</ele>
        <time>2023-10-08T12:58:24Z</time>
      </trkpt>
      <trkpt lat="45.88558092713356" lon="7.745664669200778">
        <ele>2235.27</ele>
        <time>2023-10-08T12:58:38Z</time>
      </trkpt>
      <trkpt lat="45.885578664019704" lon="7.745612785220146">
        <ele>2233.8699999999999</ele>
        <time>2023-10-08T12:58:44Z</time>
      </trkpt>
      <trkpt lat="45.885565169155598" lon="7.745589399710298">
        <ele>2232.98</ele>
        <time>2023-10-08T12:58:46Z</time>
      </trkpt>
      <trkpt lat="45.885503562167287" lon="7.745541958138347">
        <ele>2233.27</ele>
        <time>2023-10-08T12:58:55Z</time>
      </trkpt>
      <trkpt lat="45.885452348738909" lon="7.745479932054877">
        <ele>2231.5100000000002</ele>
        <time>2023-10-08T12:59:08Z</time>
      </trkpt>
      <trkpt lat="45.885389316827059" lon="7.74537356570363">
        <ele>2228.2600000000002</ele>
        <time>2023-10-08T12:59:19Z</time>
      </trkpt>
      <trkpt lat="45.885350005701184" lon="7.74528949521482">
        <ele>2226.0500000000002</ele>
        <time>2023-10-08T12:59:30Z</time>
      </trkpt>
      <trkpt lat="45.88536350056529" lon="7.745254207402468">
        <ele>2223.4200000000001</ele>
        <time>2023-10-08T12:59:47Z</time>
      </trkpt>
      <trkpt lat="45.885407757014036" lon="7.745194444432855">
        <ele>2220.8200000000002</ele>
        <time>2023-10-08T12:59:58Z</time>
      </trkpt>
      <trkpt lat="45.885434914380312" lon="7.745132502168417">
        <ele>2217.8200000000002</ele>
        <time>2023-10-08T13:00:11Z</time>
      </trkpt>
      <trkpt lat="45.885418988764286" lon="7.745093861594796">
        <ele>2216.6100000000001</ele>
        <time>2023-10-08T13:00:15Z</time>
      </trkpt>
      <trkpt lat="45.885401386767626" lon="7.745004845783114">
        <ele>2214.1599999999999</ele>
        <time>2023-10-08T13:00:26Z</time>
      </trkpt>
      <trkpt lat="45.885350257158279" lon="7.744896719232202">
        <ele>2211.1199999999999</ele>
        <time>2023-10-08T13:00:38Z</time>
      </trkpt>
      <trkpt lat="45.885342378169298" lon="7.74487417191267">
        <ele>2210.7399999999998</ele>
        <time>2023-10-08T13:00:40Z</time>
      </trkpt>
      <trkpt lat="45.885256798937917" lon="7.744744000956416">
        <ele>2209.21</ele>
        <time>2023-10-08T13:00:53Z</time>
      </trkpt>
      <trkpt lat="45.885219080373645" lon="7.744673592969775">
        <ele>2206.9099999999999</ele>
        <time>2023-10-08T13:01:07Z</time>
      </trkpt>
      <trkpt lat="45.885156970471144" lon="7.744591534137726">
        <ele>2205.46</ele>
        <time>2023-10-08T13:01:17Z</time>
      </trkpt>
      <trkpt lat="45.885136099532247" lon="7.744458932429552">
        <ele>2202.1999999999998</ele>
        <time>2023-10-08T13:01:30Z</time>
      </trkpt>
      <trkpt lat="45.885085891932249" lon="7.744361199438572">
        <ele>2199.4000000000001</ele>
        <time>2023-10-08T13:01:43Z</time>
      </trkpt>
      <trkpt lat="45.885061416774988" lon="7.744260532781482">
        <ele>2196.8400000000001</ele>
        <time>2023-10-08T13:01:56Z</time>
      </trkpt>
      <trkpt lat="45.885023698210716" lon="7.744186939671636">
        <ele>2194.3400000000001</ele>
        <time>2023-10-08T13:02:09Z</time>
      </trkpt>
      <trkpt lat="45.885008526965976" lon="7.744128098711371">
        <ele>2191.23</ele>
        <time>2023-10-08T13:02:23Z</time>
      </trkpt>
      <trkpt lat="45.884995199739933" lon="7.744039250537753">
        <ele>2188.1199999999999</ele>
        <time>2023-10-08T13:02:35Z</time>
      </trkpt>
      <trkpt lat="45.884957984089851" lon="7.74398434907198">
        <ele>2185.1900000000001</ele>
        <time>2023-10-08T13:02:48Z</time>
      </trkpt>
      <trkpt lat="45.88496183976531" lon="7.743927855044603">
        <ele>2183</ele>
        <time>2023-10-08T13:03:04Z</time>
      </trkpt>
      <trkpt lat="45.884979106485844" lon="7.743866080418229">
        <ele>2181.4099999999999</ele>
        <time>2023-10-08T13:03:17Z</time>
      </trkpt>
      <trkpt lat="45.884944153949618" lon="7.743820985779166">
        <ele>2179.8299999999999</ele>
        <time>2023-10-08T13:03:27Z</time>
      </trkpt>
      <trkpt lat="45.884956056252122" lon="7.743741776794195">
        <ele>2177.6300000000001</ele>
        <time>2023-10-08T13:03:39Z</time>
      </trkpt>
      <trkpt lat="45.884890425950289" lon="7.743665752932429">
        <ele>2174.4499999999998</ele>
        <time>2023-10-08T13:03:54Z</time>
      </trkpt>
      <trkpt lat="45.88489294052124" lon="7.74351722560823">
        <ele>2171.52</ele>
        <time>2023-10-08T13:04:07Z</time>
      </trkpt>
      <trkpt lat="45.884870979934931" lon="7.743391999974847">
        <ele>2169.29</ele>
        <time>2023-10-08T13:04:20Z</time>
      </trkpt>
      <trkpt lat="45.884796045720577" lon="7.743293847888708">
        <ele>2166.9099999999999</ele>
        <time>2023-10-08T13:04:33Z</time>
      </trkpt>
      <trkpt lat="45.884769475087523" lon="7.743218829855323">
        <ele>2164.5900000000001</ele>
        <time>2023-10-08T13:04:47Z</time>
      </trkpt>
      <trkpt lat="45.884744664654136" lon="7.743135513737798">
        <ele>2161.8600000000001</ele>
        <time>2023-10-08T13:05:02Z</time>
      </trkpt>
      <trkpt lat="45.884733935818076" lon="7.743056053295732">
        <ele>2159.3299999999999</ele>
        <time>2023-10-08T13:05:16Z</time>
      </trkpt>
      <trkpt lat="45.884702671319246" lon="7.74296510964632">
        <ele>2156.1500000000001</ele>
        <time>2023-10-08T13:05:30Z</time>
      </trkpt>
      <trkpt lat="45.884688338264823" lon="7.742947172373533">
        <ele>2154.9299999999998</ele>
        <time>2023-10-08T13:05:35Z</time>
      </trkpt>
      <trkpt lat="45.884704180061817" lon="7.742860335856676">
        <ele>2149.9899999999998</ele>
        <time>2023-10-08T13:06:03Z</time>
      </trkpt>
      <trkpt lat="45.884724464267492" lon="7.7428297419101">
        <ele>2149.3000000000002</ele>
        <time>2023-10-08T13:06:17Z</time>
      </trkpt>
      <trkpt lat="45.884656654670835" lon="7.742748102173209">
        <ele>2147.4400000000001</ele>
        <time>2023-10-08T13:06:31Z</time>
      </trkpt>
      <trkpt lat="45.884669730439782" lon="7.742717005312443">
        <ele>2141.5700000000002</ele>
        <time>2023-10-08T13:08:40Z</time>
      </trkpt>
      <trkpt lat="45.884762182831764" lon="7.742583146318793">
        <ele>2138.4699999999998</ele>
        <time>2023-10-08T13:08:51Z</time>
      </trkpt>
      <trkpt lat="45.884727649390697" lon="7.742430763319135">
        <ele>2135.2800000000002</ele>
        <time>2023-10-08T13:09:04Z</time>
      </trkpt>
      <trkpt lat="45.884702587500215" lon="7.742426320910454">
        <ele>2134.6799999999998</ele>
        <time>2023-10-08T13:09:06Z</time>
      </trkpt>
      <trkpt lat="45.884641231968999" lon="7.742403857409954">
        <ele>2132.9899999999998</ele>
        <time>2023-10-08T13:09:11Z</time>
      </trkpt>
      <trkpt lat="45.884625557810068" lon="7.742383908480406">
        <ele>2132.3200000000002</ele>
        <time>2023-10-08T13:09:13Z</time>
      </trkpt>
      <trkpt lat="45.884534195065498" lon="7.742351554334164">
        <ele>2129.4899999999998</ele>
        <time>2023-10-08T13:09:20Z</time>
      </trkpt>
      <trkpt lat="45.88444241322577" lon="7.742257677018642">
        <ele>2126.1300000000001</ele>
        <time>2023-10-08T13:09:32Z</time>
      </trkpt>
      <trkpt lat="45.884359767660499" lon="7.742281397804618">
        <ele>2122.6799999999998</ele>
        <time>2023-10-08T13:09:41Z</time>
      </trkpt>
      <trkpt lat="45.884351972490549" lon="7.742287265136838">
        <ele>2122.1599999999999</ele>
        <time>2023-10-08T13:09:42Z</time>
      </trkpt>
      <trkpt lat="45.884328419342637" lon="7.742293383926153">
        <ele>2121.3699999999999</ele>
        <time>2023-10-08T13:09:44Z</time>
      </trkpt>
      <trkpt lat="45.884323054924607" lon="7.742264633998275">
        <ele>2120.6500000000001</ele>
        <time>2023-10-08T13:09:46Z</time>
      </trkpt>
      <trkpt lat="45.884311739355326" lon="7.742172935977578">
        <ele>2117.8000000000002</ele>
        <time>2023-10-08T13:09:56Z</time>
      </trkpt>
      <trkpt lat="45.884303022176027" lon="7.742124237120152">
        <ele>2116.4000000000001</ele>
        <time>2023-10-08T13:10:01Z</time>
      </trkpt>
      <trkpt lat="45.884264800697565" lon="7.742033880203962">
        <ele>2114.1799999999998</ele>
        <time>2023-10-08T13:10:09Z</time>
      </trkpt>
      <trkpt lat="45.884269494563341" lon="7.741981660947204">
        <ele>2112.1300000000001</ele>
        <time>2023-10-08T13:10:13Z</time>
      </trkpt>
      <trkpt lat="45.884303357452154" lon="7.741887364536524">
        <ele>2110.3299999999999</ele>
        <time>2023-10-08T13:10:24Z</time>
      </trkpt>
      <trkpt lat="45.884307799860835" lon="7.74184562265873">
        <ele>2109.3899999999999</ele>
        <time>2023-10-08T13:10:27Z</time>
      </trkpt>
      <trkpt lat="45.884305536746979" lon="7.741814944893122">
        <ele>2109.0500000000002</ele>
        <time>2023-10-08T13:10:29Z</time>
      </trkpt>
      <trkpt lat="45.88427578099072" lon="7.741730120033026">
        <ele>2107.5</ele>
        <time>2023-10-08T13:10:35Z</time>
      </trkpt>
      <trkpt lat="45.884259017184377" lon="7.741625681519508">
        <ele>2105.8600000000001</ele>
        <time>2023-10-08T13:10:45Z</time>
      </trkpt>
      <trkpt lat="45.884223645552993" lon="7.741628782823682">
        <ele>2105.3499999999999</ele>
        <time>2023-10-08T13:10:49Z</time>
      </trkpt>
      <trkpt lat="45.884140497073531" lon="7.741642612963915">
        <ele>2104.4200000000001</ele>
        <time>2023-10-08T13:11:00Z</time>
      </trkpt>
      <trkpt lat="45.884090457111597" lon="7.741653174161911">
        <ele>2103.9299999999998</ele>
        <time>2023-10-08T13:11:09Z</time>
      </trkpt>
      <trkpt lat="45.884026922285557" lon="7.741625932976604">
        <ele>2103.1999999999998</ele>
        <time>2023-10-08T13:11:15Z</time>
      </trkpt>
      <trkpt lat="45.8839400857687" lon="7.741556949913502">
        <ele>2101.9499999999998</ele>
        <time>2023-10-08T13:11:25Z</time>
      </trkpt>
      <trkpt lat="45.883904546499252" lon="7.741586789488792">
        <ele>2101.23</ele>
        <time>2023-10-08T13:11:29Z</time>
      </trkpt>
      <trkpt lat="45.883767083287239" lon="7.741643199697137">
        <ele>2099.5900000000001</ele>
        <time>2023-10-08T13:11:40Z</time>
      </trkpt>
      <trkpt lat="45.883620483800769" lon="7.741622915491462">
        <ele>2097.6799999999998</ele>
        <time>2023-10-08T13:11:52Z</time>
      </trkpt>
      <trkpt lat="45.883556278422475" lon="7.741588884964585">
        <ele>2096.6399999999999</ele>
        <time>2023-10-08T13:11:58Z</time>
      </trkpt>
      <trkpt lat="45.883476734161377" lon="7.741521745920181">
        <ele>2095.4000000000001</ele>
        <time>2023-10-08T13:12:10Z</time>
      </trkpt>
      <trkpt lat="45.883465753868222" lon="7.741520488634706">
        <ele>2095.3800000000001</ele>
        <time>2023-10-08T13:12:11Z</time>
      </trkpt>
      <trkpt lat="45.883414875715971" lon="7.741529373452067">
        <ele>2095.3699999999999</ele>
        <time>2023-10-08T13:12:15Z</time>
      </trkpt>
      <trkpt lat="45.883251596242189" lon="7.741476986557245">
        <ele>2094.1799999999998</ele>
        <time>2023-10-08T13:12:28Z</time>
      </trkpt>
      <trkpt lat="45.88307281024754" lon="7.741337930783629">
        <ele>2091.8299999999999</ele>
        <time>2023-10-08T13:12:43Z</time>
      </trkpt>
      <trkpt lat="45.882942136377096" lon="7.741231564432383">
        <ele>2090.6999999999998</ele>
        <time>2023-10-08T13:12:54Z</time>
      </trkpt>
      <trkpt lat="45.882800398394465" lon="7.741139195859432">
        <ele>2089.1500000000001</ele>
        <time>2023-10-08T13:13:07Z</time>
      </trkpt>
      <trkpt lat="45.88274440728128" lon="7.741107260808349">
        <ele>2088.3899999999999</ele>
        <time>2023-10-08T13:13:12Z</time>
      </trkpt>
      <trkpt lat="45.882700067013502" lon="7.741108601912856">
        <ele>2087.6999999999998</ele>
        <time>2023-10-08T13:13:15Z</time>
      </trkpt>
      <trkpt lat="45.882658744230866" lon="7.741096531972289">
        <ele>2087.3899999999999</ele>
        <time>2023-10-08T13:13:18Z</time>
      </trkpt>
      <trkpt lat="45.882580541074276" lon="7.741076918318868">
        <ele>2086.8899999999999</ele>
        <time>2023-10-08T13:13:25Z</time>
      </trkpt>
      <trkpt lat="45.882482305169106" lon="7.74093828164041">
        <ele>2085.2199999999998</ele>
        <time>2023-10-08T13:13:37Z</time>
      </trkpt>
      <trkpt lat="45.882464703172445" lon="7.740914896130562">
        <ele>2085.1599999999999</ele>
        <time>2023-10-08T13:13:39Z</time>
      </trkpt>
      <trkpt lat="45.882294047623873" lon="7.740677017718554">
        <ele>2083.25</ele>
        <time>2023-10-08T13:13:57Z</time>
      </trkpt>
      <trkpt lat="45.88228658773005" lon="7.740448694676161">
        <ele>2083.48</ele>
        <time>2023-10-08T13:14:10Z</time>
      </trkpt>
      <trkpt lat="45.882230764254928" lon="7.740256162360311">
        <ele>2081.7199999999998</ele>
        <time>2023-10-08T13:14:22Z</time>
      </trkpt>
      <trkpt lat="45.882221544161439" lon="7.740247780457139">
        <ele>2081.2399999999998</ele>
        <time>2023-10-08T13:19:18Z</time>
      </trkpt>
      <trkpt lat="45.882193380966783" lon="7.740220874547958">
        <ele>2081.4000000000001</ele>
        <time>2023-10-08T13:19:22Z</time>
      </trkpt>
      <trkpt lat="45.882181311026216" lon="7.740182401612401">
        <ele>2081.4400000000001</ele>
        <time>2023-10-08T13:19:24Z</time>
      </trkpt>
      <trkpt lat="45.88216396048665" lon="7.740178797394037">
        <ele>2081.3499999999999</ele>
        <time>2023-10-08T13:19:26Z</time>
      </trkpt>
      <trkpt lat="45.882116183638573" lon="7.740087015554309">
        <ele>2080.9099999999999</ele>
        <time>2023-10-08T13:19:33Z</time>
      </trkpt>
      <trkpt lat="45.882060108706355" lon="7.739929938688874">
        <ele>2081.1999999999998</ele>
        <time>2023-10-08T13:19:45Z</time>
      </trkpt>
      <trkpt lat="45.882001100108027" lon="7.739778226241469">
        <ele>2080.6300000000001</ele>
        <time>2023-10-08T13:19:58Z</time>
      </trkpt>
      <trkpt lat="45.881904708221555" lon="7.739581000059843">
        <ele>2079.98</ele>
        <time>2023-10-08T13:20:15Z</time>
      </trkpt>
      <trkpt lat="45.881785349920392" lon="7.739467341452837">
        <ele>2078.3899999999999</ele>
        <time>2023-10-08T13:20:33Z</time>
      </trkpt>
      <trkpt lat="45.88177646510303" lon="7.739467592909932">
        <ele>2082.1799999999998</ele>
        <time>2023-10-08T13:20:35Z</time>
      </trkpt>
      <trkpt lat="45.881740674376488" lon="7.739452086389065">
        <ele>2079.5999999999999</ele>
        <time>2023-10-08T13:21:24Z</time>
      </trkpt>
      <trkpt lat="45.881749223917723" lon="7.739457450807095">
        <ele>2078.46</ele>
        <time>2023-10-08T13:22:06Z</time>
      </trkpt>
      <trkpt lat="45.881754420697689" lon="7.739458121359348">
        <ele>2081.8499999999999</ele>
        <time>2023-10-08T13:22:22Z</time>
      </trkpt>
      <trkpt lat="45.88175542652607" lon="7.739457283169031">
        <ele>2080.3000000000002</ele>
        <time>2023-10-08T13:22:23Z</time>
      </trkpt>
      <trkpt lat="45.88175400160253" lon="7.739454600960016">
        <ele>2078.6700000000001</ele>
        <time>2023-10-08T13:22:25Z</time>
      </trkpt>
      <trkpt lat="45.881737405434251" lon="7.739451415836811">
        <ele>2077.0500000000002</ele>
        <time>2023-10-08T13:26:59Z</time>
      </trkpt>
      <trkpt lat="45.881684515625238" lon="7.739412104710937">
        <ele>2076.9400000000001</ele>
        <time>2023-10-08T13:27:11Z</time>
      </trkpt>
      <trkpt lat="45.881668170914054" lon="7.739381343126297">
        <ele>2076.9400000000001</ele>
        <time>2023-10-08T13:27:17Z</time>
      </trkpt>
      <trkpt lat="45.881651490926743" lon="7.739364076405764">
        <ele>2076.6900000000001</ele>
        <time>2023-10-08T13:27:19Z</time>
      </trkpt>
      <trkpt lat="45.881546381860971" lon="7.739164670929313">
        <ele>2076.0500000000002</ele>
        <time>2023-10-08T13:27:35Z</time>
      </trkpt>
      <trkpt lat="45.881454767659307" lon="7.73893634788692">
        <ele>2074.5500000000002</ele>
        <time>2023-10-08T13:27:51Z</time>
      </trkpt>
      <trkpt lat="45.881379079073668" lon="7.73869059048593">
        <ele>2073.4499999999998</ele>
        <time>2023-10-08T13:28:08Z</time>
      </trkpt>
      <trkpt lat="45.881269359961152" lon="7.738467380404472">
        <ele>2072.4499999999998</ele>
        <time>2023-10-08T13:28:25Z</time>
      </trkpt>
      <trkpt lat="45.881112115457654" lon="7.738289097324014">
        <ele>2071.52</ele>
        <time>2023-10-08T13:28:42Z</time>
      </trkpt>
      <trkpt lat="45.88099610991776" lon="7.738103438168764">
        <ele>2071.3200000000002</ele>
        <time>2023-10-08T13:28:58Z</time>
      </trkpt>
      <trkpt lat="45.880928467959166" lon="7.73803336545825">
        <ele>2070.9200000000001</ele>
        <time>2023-10-08T13:29:14Z</time>
      </trkpt>
      <trkpt lat="45.880904579535127" lon="7.738009728491306">
        <ele>2070.8000000000002</ele>
        <time>2023-10-08T13:29:17Z</time>
      </trkpt>
      <trkpt lat="45.880883121863008" lon="7.737980224192143">
        <ele>2070.3800000000001</ele>
        <time>2023-10-08T13:29:27Z</time>
      </trkpt>
      <trkpt lat="45.880844816565514" lon="7.737928256392479">
        <ele>2070.0300000000002</ele>
        <time>2023-10-08T13:29:32Z</time>
      </trkpt>
      <trkpt lat="45.880703581497073" lon="7.737727342173457">
        <ele>2068.8600000000001</ele>
        <time>2023-10-08T13:29:49Z</time>
      </trkpt>
      <trkpt lat="45.88056125678122" lon="7.737535564228892">
        <ele>2067.9299999999998</ele>
        <time>2023-10-08T13:30:05Z</time>
      </trkpt>
      <trkpt lat="45.880446843802929" lon="7.737387958914042">
        <ele>2067.5100000000002</ele>
        <time>2023-10-08T13:30:18Z</time>
      </trkpt>
      <trkpt lat="45.880419183522463" lon="7.737345797941089">
        <ele>2067.8400000000001</ele>
        <time>2023-10-08T13:30:22Z</time>
      </trkpt>
      <trkpt lat="45.880326312035322" lon="7.737224344164133">
        <ele>2067.4099999999999</ele>
        <time>2023-10-08T13:30:34Z</time>
      </trkpt>
      <trkpt lat="45.880231764167547" lon="7.737059388309717">
        <ele>2066.1100000000001</ele>
        <time>2023-10-08T13:30:47Z</time>
      </trkpt>
      <trkpt lat="45.880218520760536" lon="7.737045977264643">
        <ele>2066.1599999999999</ele>
        <time>2023-10-08T13:30:49Z</time>
      </trkpt>
      <trkpt lat="45.880081476643682" lon="7.736906167119741">
        <ele>2065.3400000000001</ele>
        <time>2023-10-08T13:31:04Z</time>
      </trkpt>
      <trkpt lat="45.879943678155541" lon="7.736736852675676">
        <ele>2064.0700000000002</ele>
        <time>2023-10-08T13:31:19Z</time>
      </trkpt>
      <trkpt lat="45.879752235487103" lon="7.736661499366164">
        <ele>2063.6399999999999</ele>
        <time>2023-10-08T13:31:36Z</time>
      </trkpt>
      <trkpt lat="45.879575461149216" lon="7.736625289544463">
        <ele>2063.29</ele>
        <time>2023-10-08T13:31:51Z</time>
      </trkpt>
      <trkpt lat="45.879393490031362" lon="7.736667282879353">
        <ele>2062.6300000000001</ele>
        <time>2023-10-08T13:32:07Z</time>
      </trkpt>
      <trkpt lat="45.87924194522202" lon="7.736696870997548">
        <ele>2062.0100000000002</ele>
        <time>2023-10-08T13:32:23Z</time>
      </trkpt>
      <trkpt lat="45.879222247749567" lon="7.736702905967832">
        <ele>2061.5599999999999</ele>
        <time>2023-10-08T13:32:28Z</time>
      </trkpt>
      <trkpt lat="45.879132058471441" lon="7.736706929281354">
        <ele>2060.4099999999999</ele>
        <time>2023-10-08T13:32:36Z</time>
      </trkpt>
      <trkpt lat="45.878933994099498" lon="7.736646244302392">
        <ele>2058.75</ele>
        <time>2023-10-08T13:32:54Z</time>
      </trkpt>
      <trkpt lat="45.878880182281137" lon="7.736687064170837">
        <ele>2058.4899999999998</ele>
        <time>2023-10-08T13:33:06Z</time>
      </trkpt>
      <trkpt lat="45.878863083198667" lon="7.736666444689035">
        <ele>2058.4000000000001</ele>
        <time>2023-10-08T13:33:21Z</time>
      </trkpt>
      <trkpt lat="45.878848750144243" lon="7.736704330891371">
        <ele>2058.1599999999999</ele>
        <time>2023-10-08T13:33:35Z</time>
      </trkpt>
      <trkpt lat="45.878818156197667" lon="7.73677465505898">
        <ele>2057.9499999999998</ele>
        <time>2023-10-08T13:33:50Z</time>
      </trkpt>
      <trkpt lat="45.878796363249421" lon="7.73680248297751">
        <ele>2057.9899999999998</ele>
        <time>2023-10-08T13:33:53Z</time>
      </trkpt>
      <trkpt lat="45.878654792904854" lon="7.736969450488687">
        <ele>2057.5500000000002</ele>
        <time>2023-10-08T13:34:10Z</time>
      </trkpt>
      <trkpt lat="45.878497296944261" lon="7.73713038302958">
        <ele>2056.9699999999998</ele>
        <time>2023-10-08T13:34:27Z</time>
      </trkpt>
      <trkpt lat="45.878338543698192" lon="7.73731897585094">
        <ele>2055.8800000000001</ele>
        <time>2023-10-08T13:34:44Z</time>
      </trkpt>
      <trkpt lat="45.878182807937264" lon="7.737529193982482">
        <ele>2055.04</ele>
        <time>2023-10-08T13:35:01Z</time>
      </trkpt>
      <trkpt lat="45.878062527626753" lon="7.737688953056932">
        <ele>2054.5500000000002</ele>
        <time>2023-10-08T13:35:16Z</time>
      </trkpt>
      <trkpt lat="45.877902265638113" lon="7.73768057115376">
        <ele>2055.1100000000001</ele>
        <time>2023-10-08T13:35:31Z</time>
      </trkpt>
      <trkpt lat="45.877817524597049" lon="7.737624580040574">
        <ele>2054.8499999999999</ele>
        <time>2023-10-08T13:35:42Z</time>
      </trkpt>
      <trkpt lat="45.877762958407402" lon="7.737586861476302">
        <ele>2055.0100000000002</ele>
        <time>2023-10-08T13:35:52Z</time>
      </trkpt>
      <trkpt lat="45.877717947587371" lon="7.737581999972463">
        <ele>2054.7600000000002</ele>
        <time>2023-10-08T13:35:56Z</time>
      </trkpt>
      <trkpt lat="45.877537820488214" lon="7.737502371892333">
        <ele>2054.9899999999998</ele>
        <time>2023-10-08T13:36:12Z</time>
      </trkpt>
      <trkpt lat="45.877395160496235" lon="7.737366668879986">
        <ele>2054.8899999999999</ele>
        <time>2023-10-08T13:36:26Z</time>
      </trkpt>
      <trkpt lat="45.877263816073537" lon="7.73724228143692">
        <ele>2054.75</ele>
        <time>2023-10-08T13:36:39Z</time>
      </trkpt>
      <trkpt lat="45.877200113609433" lon="7.737171454355121">
        <ele>2054.4899999999998</ele>
        <time>2023-10-08T13:36:46Z</time>
      </trkpt>
      <trkpt lat="45.877076983451843" lon="7.737068189308047">
        <ele>2054.0900000000001</ele>
        <time>2023-10-08T13:36:57Z</time>
      </trkpt>
      <trkpt lat="45.876923426985741" lon="7.736922679468989">
        <ele>2053.1900000000001</ele>
        <time>2023-10-08T13:37:11Z</time>
      </trkpt>
      <trkpt lat="45.876829046756029" lon="7.736826119944453">
        <ele>2051.5100000000002</ele>
        <time>2023-10-08T13:37:20Z</time>
      </trkpt>
      <trkpt lat="45.876678507775068" lon="7.736750012263656">
        <ele>2052.5599999999999</ele>
        <time>2023-10-08T13:37:33Z</time>
      </trkpt>
      <trkpt lat="45.876498464494944" lon="7.736708940938115">
        <ele>2050.8899999999999</ele>
        <time>2023-10-08T13:37:48Z</time>
      </trkpt>
      <trkpt lat="45.876304088160396" lon="7.736721849068999">
        <ele>2050.0300000000002</ele>
        <time>2023-10-08T13:38:04Z</time>
      </trkpt>
      <trkpt lat="45.876143909990788" lon="7.736718328669667">
        <ele>2049.3000000000002</ele>
        <time>2023-10-08T13:38:16Z</time>
      </trkpt>
      <trkpt lat="45.876020612195134" lon="7.736726207658649">
        <ele>2049.1300000000001</ele>
        <time>2023-10-08T13:38:26Z</time>
      </trkpt>
      <trkpt lat="45.875971578061581" lon="7.736739870160818">
        <ele>2049.2800000000002</ele>
        <time>2023-10-08T13:38:30Z</time>
      </trkpt>
      <trkpt lat="45.875891195610166" lon="7.736739534884691">
        <ele>2048.8200000000002</ele>
        <time>2023-10-08T13:38:41Z</time>
      </trkpt>
      <trkpt lat="45.875863702967763" lon="7.73676048964262">
        <ele>2048.3299999999999</ele>
        <time>2023-10-08T13:38:44Z</time>
      </trkpt>
      <trkpt lat="45.875662621110678" lon="7.736857635900378">
        <ele>2046.6099999999999</ele>
        <time>2023-10-08T13:39:00Z</time>
      </trkpt>
      <trkpt lat="45.875479141250253" lon="7.736996524035931">
        <ele>2046.28</ele>
        <time>2023-10-08T13:39:16Z</time>
      </trkpt>
      <trkpt lat="45.875291889533401" lon="7.73726281709969">
        <ele>2045.6099999999999</ele>
        <time>2023-10-08T13:39:37Z</time>
      </trkpt>
      <trkpt lat="45.875166580080986" lon="7.73737421259284">
        <ele>2045.4200000000001</ele>
        <time>2023-10-08T13:39:49Z</time>
      </trkpt>
      <trkpt lat="45.874982848763466" lon="7.737344121560454">
        <ele>2044.8499999999999</ele>
        <time>2023-10-08T13:40:03Z</time>
      </trkpt>
      <trkpt lat="45.874763410538435" lon="7.737223757430911">
        <ele>2044</ele>
        <time>2023-10-08T13:40:21Z</time>
      </trkpt>
      <trkpt lat="45.874594263732433" lon="7.737086629495025">
        <ele>2043.03</ele>
        <time>2023-10-08T13:40:36Z</time>
      </trkpt>
      <trkpt lat="45.874438276514411" lon="7.736999625340104">
        <ele>2041.9300000000001</ele>
        <time>2023-10-08T13:40:50Z</time>
      </trkpt>
      <trkpt lat="45.874336687847972" lon="7.736951261758804">
        <ele>2041.3299999999999</ele>
        <time>2023-10-08T13:41:04Z</time>
      </trkpt>
      <trkpt lat="45.874331910163164" lon="7.736943047493696">
        <ele>2041.0699999999999</ele>
        <time>2023-10-08T13:41:19Z</time>
      </trkpt>
      <trkpt lat="45.874312547966838" lon="7.736930893734098">
        <ele>2039.46</ele>
        <time>2023-10-08T13:41:57Z</time>
      </trkpt>
      <trkpt lat="45.874295197427273" lon="7.736932151019573">
        <ele>2041.0599999999999</ele>
        <time>2023-10-08T13:43:57Z</time>
      </trkpt>
      <trkpt lat="45.874253707006574" lon="7.736923936754465">
        <ele>2040.6300000000001</ele>
        <time>2023-10-08T13:44:12Z</time>
      </trkpt>
      <trkpt lat="45.874227052554488" lon="7.736874902620912">
        <ele>2039.96</ele>
        <time>2023-10-08T13:44:23Z</time>
      </trkpt>
      <trkpt lat="45.874230992048979" lon="7.736880099400878">
        <ele>2039.5999999999999</ele>
        <time>2023-10-08T13:44:42Z</time>
      </trkpt>
      <trkpt lat="45.874224789440632" lon="7.736871130764484">
        <ele>2038.8199999999999</ele>
        <time>2023-10-08T13:45:01Z</time>
      </trkpt>
      <trkpt lat="45.874220011755824" lon="7.736860569566488">
        <ele>2038.3800000000001</ele>
        <time>2023-10-08T13:45:20Z</time>
      </trkpt>
      <trkpt lat="45.8742247056216" lon="7.736865095794201">
        <ele>2039.3</ele>
        <time>2023-10-08T13:45:37Z</time>
      </trkpt>
      <trkpt lat="45.874214814975858" lon="7.736842967569828">
        <ele>2039.29</ele>
        <time>2023-10-08T13:46:00Z</time>
      </trkpt>
      <trkpt lat="45.874202158302069" lon="7.736814301460981">
        <ele>2038.8599999999999</ele>
        <time>2023-10-08T13:46:21Z</time>
      </trkpt>
      <trkpt lat="45.874104090034962" lon="7.736700475215912">
        <ele>2037.3</ele>
        <time>2023-10-08T13:46:35Z</time>
      </trkpt>
      <trkpt lat="45.874000322073698" lon="7.736560413613915">
        <ele>2036.1400000000001</ele>
        <time>2023-10-08T13:46:49Z</time>
      </trkpt>
      <trkpt lat="45.87385481223464" lon="7.73636419326067">
        <ele>2034.1400000000001</ele>
        <time>2023-10-08T13:47:07Z</time>
      </trkpt>
      <trkpt lat="45.873727910220623" lon="7.736192280426621">
        <ele>2032.28</ele>
        <time>2023-10-08T13:47:24Z</time>
      </trkpt>
      <trkpt lat="45.873689018189907" lon="7.736127907410264">
        <ele>2032.0999999999999</ele>
        <time>2023-10-08T13:47:31Z</time>
      </trkpt>
      <trkpt lat="45.873659430071712" lon="7.73608130402863">
        <ele>2031.6900000000001</ele>
        <time>2023-10-08T13:47:35Z</time>
      </trkpt>
      <trkpt lat="45.873542502522469" lon="7.735908050090075">
        <ele>2029.75</ele>
        <time>2023-10-08T13:47:50Z</time>
      </trkpt>
      <trkpt lat="45.873437728732824" lon="7.735775699838996">
        <ele>2028.1099999999999</ele>
        <time>2023-10-08T13:48:03Z</time>
      </trkpt>
      <trkpt lat="45.873391376808286" lon="7.735738735646009">
        <ele>2027.21</ele>
        <time>2023-10-08T13:48:08Z</time>
      </trkpt>
      <trkpt lat="45.873243771493435" lon="7.735600015148521">
        <ele>2024.99</ele>
        <time>2023-10-08T13:48:24Z</time>
      </trkpt>
      <trkpt lat="45.873125838115811" lon="7.735497001558542">
        <ele>2023.6700000000001</ele>
        <time>2023-10-08T13:48:36Z</time>
      </trkpt>
      <trkpt lat="45.873079402372241" lon="7.73546707816422">
        <ele>2022.9200000000001</ele>
        <time>2023-10-08T13:48:40Z</time>
      </trkpt>
      <trkpt lat="45.873063979670405" lon="7.735422234982252">
        <ele>2022.1600000000001</ele>
        <time>2023-10-08T13:48:44Z</time>
      </trkpt>
      <trkpt lat="45.873028775677085" lon="7.735355012118816">
        <ele>2019.22</ele>
        <time>2023-10-08T13:48:50Z</time>
      </trkpt>
      <trkpt lat="45.873043946921825" lon="7.735321065410972">
        <ele>2018.05</ele>
        <time>2023-10-08T13:48:53Z</time>
      </trkpt>
      <trkpt lat="45.873169843107462" lon="7.735290639102459">
        <ele>2016.71</ele>
        <time>2023-10-08T13:49:06Z</time>
      </trkpt>
      <trkpt lat="45.873187026008964" lon="7.735284604132175">
        <ele>2016.3699999999999</ele>
        <time>2023-10-08T13:49:08Z</time>
      </trkpt>
      <trkpt lat="45.87322885170579" lon="7.735170107334852">
        <ele>2014.8299999999999</ele>
        <time>2023-10-08T13:49:19Z</time>
      </trkpt>
      <trkpt lat="45.873230025172234" lon="7.735141273587942">
        <ele>2014.6500000000001</ele>
        <time>2023-10-08T13:49:30Z</time>
      </trkpt>
      <trkpt lat="45.873213512822986" lon="7.735142447054386">
        <ele>2014.1800000000001</ele>
        <time>2023-10-08T13:49:32Z</time>
      </trkpt>
      <trkpt lat="45.873169843107462" lon="7.735142279416323">
        <ele>2013.9200000000001</ele>
        <time>2023-10-08T13:49:37Z</time>
      </trkpt>
      <trkpt lat="45.873090298846364" lon="7.735117133706808">
        <ele>2012.76</ele>
        <time>2023-10-08T13:49:44Z</time>
      </trkpt>
      <trkpt lat="45.872940765693784" lon="7.735085366293788">
        <ele>2010.51</ele>
        <time>2023-10-08T13:49:58Z</time>
      </trkpt>
      <trkpt lat="45.872825598344207" lon="7.735009845346212">
        <ele>2008.1099999999999</ele>
        <time>2023-10-08T13:50:10Z</time>
      </trkpt>
      <trkpt lat="45.872677406296134" lon="7.734953183680773">
        <ele>2006.28</ele>
        <time>2023-10-08T13:50:22Z</time>
      </trkpt>
      <trkpt lat="45.872577494010329" lon="7.73490222170949">
        <ele>2004.22</ele>
        <time>2023-10-08T13:50:34Z</time>
      </trkpt>
      <trkpt lat="45.872552515938878" lon="7.734863916411996">
        <ele>2002.4300000000001</ele>
        <time>2023-10-08T13:50:39Z</time>
      </trkpt>
      <trkpt lat="45.872501470148563" lon="7.734783869236708">
        <ele>1998.71</ele>
        <time>2023-10-08T13:50:47Z</time>
      </trkpt>
      <trkpt lat="45.872476659715176" lon="7.734760148450732">
        <ele>1997.71</ele>
        <time>2023-10-08T13:50:50Z</time>
      </trkpt>
      <trkpt lat="45.872392253950238" lon="7.734662080183625">
        <ele>1995.51</ele>
        <time>2023-10-08T13:51:03Z</time>
      </trkpt>
      <trkpt lat="45.872396947816014" lon="7.734647411853075">
        <ele>1995.5699999999999</ele>
        <time>2023-10-08T13:51:21Z</time>
      </trkpt>
      <trkpt lat="45.872405497357249" lon="7.734628887847066">
        <ele>1995.74</ele>
        <time>2023-10-08T13:51:38Z</time>
      </trkpt>
      <trkpt lat="45.872417064383626" lon="7.734605250880122">
        <ele>1995.54</ele>
        <time>2023-10-08T13:51:54Z</time>
      </trkpt>
      <trkpt lat="45.872411532327533" lon="7.734571723267436">
        <ele>1995.3900000000001</ele>
        <time>2023-10-08T13:52:01Z</time>
      </trkpt>
      <trkpt lat="45.872327629476786" lon="7.734493855386972">
        <ele>1992.79</ele>
        <time>2023-10-08T13:52:13Z</time>
      </trkpt>
      <trkpt lat="45.872315308079123" lon="7.734470386058092">
        <ele>1992.3</ele>
        <time>2023-10-08T13:52:24Z</time>
      </trkpt>
      <trkpt lat="45.872255209833384" lon="7.734386902302504">
        <ele>1989.9200000000001</ele>
        <time>2023-10-08T13:52:32Z</time>
      </trkpt>
      <trkpt lat="45.872200727462769" lon="7.734316745772958">
        <ele>1986.21</ele>
        <time>2023-10-08T13:52:40Z</time>
      </trkpt>
      <trkpt lat="45.872196368873119" lon="7.734312135726214">
        <ele>1985.5</ele>
        <time>2023-10-08T13:52:43Z</time>
      </trkpt>
      <trkpt lat="45.872168792411685" lon="7.734283050522208">
        <ele>1984.3699999999999</ele>
        <time>2023-10-08T13:52:46Z</time>
      </trkpt>
      <trkpt lat="45.872118081897497" lon="7.734209205955267">
        <ele>1980.8399999999999</ele>
        <time>2023-10-08T13:52:58Z</time>
      </trkpt>
      <trkpt lat="45.872085308656096" lon="7.734172409400344">
        <ele>1978.8399999999999</ele>
        <time>2023-10-08T13:53:04Z</time>
      </trkpt>
      <trkpt lat="45.872073825448751" lon="7.734123542904854">
        <ele>1977.8800000000001</ele>
        <time>2023-10-08T13:53:08Z</time>
      </trkpt>
      <trkpt lat="45.872031161561608" lon="7.734054811298847">
        <ele>1974.3</ele>
        <time>2023-10-08T13:53:15Z</time>
      </trkpt>
      <trkpt lat="45.871999142691493" lon="7.734012734144926">
        <ele>1972.9100000000001</ele>
        <time>2023-10-08T13:53:28Z</time>
      </trkpt>
      <trkpt lat="45.872000232338905" lon="7.734001586213708">
        <ele>1972.3199999999999</ele>
        <time>2023-10-08T13:53:49Z</time>
      </trkpt>
      <trkpt lat="45.871932925656438" lon="7.73391273804009">
        <ele>1968.8299999999999</ele>
        <time>2023-10-08T13:54:01Z</time>
      </trkpt>
      <trkpt lat="45.871914317831397" lon="7.733879797160626">
        <ele>1967.51</ele>
        <time>2023-10-08T13:54:04Z</time>
      </trkpt>
      <trkpt lat="45.87189051322639" lon="7.733822213485837">
        <ele>1965.5799999999999</ele>
        <time>2023-10-08T13:54:09Z</time>
      </trkpt>
      <trkpt lat="45.871865870431066" lon="7.733735712245107">
        <ele>1962.5</ele>
        <time>2023-10-08T13:54:16Z</time>
      </trkpt>
      <trkpt lat="45.871787499636412" lon="7.7336410805583">
        <ele>1960.51</ele>
        <time>2023-10-08T13:54:28Z</time>
      </trkpt>
      <trkpt lat="45.871761767193675" lon="7.73360881023109">
        <ele>1959.53</ele>
        <time>2023-10-08T13:54:34Z</time>
      </trkpt>
      <trkpt lat="45.871724803000689" lon="7.733570085838437">
        <ele>1957.8900000000001</ele>
        <time>2023-10-08T13:54:39Z</time>
      </trkpt>
      <trkpt lat="45.87164668366313" lon="7.733473107218742">
        <ele>1955.48</ele>
        <time>2023-10-08T13:54:51Z</time>
      </trkpt>
      <trkpt lat="45.871619693934917" lon="7.733438825234771">
        <ele>1954.77</ele>
        <time>2023-10-08T13:55:01Z</time>
      </trkpt>
      <trkpt lat="45.871566971763968" lon="7.733349138870835">
        <ele>1951.6800000000001</ele>
        <time>2023-10-08T13:55:13Z</time>
      </trkpt>
      <trkpt lat="45.871513411402702" lon="7.733291806653142">
        <ele>1949.0999999999999</ele>
        <time>2023-10-08T13:55:25Z</time>
      </trkpt>
      <trkpt lat="45.871447529643774" lon="7.733214609324932">
        <ele>1946.3699999999999</ele>
        <time>2023-10-08T13:55:37Z</time>
      </trkpt>
      <trkpt lat="45.871354574337602" lon="7.733147470280528">
        <ele>1943.05</ele>
        <time>2023-10-08T13:55:52Z</time>
      </trkpt>
      <trkpt lat="45.871265223249793" lon="7.733108997344971">
        <ele>1940.3</ele>
        <time>2023-10-08T13:56:06Z</time>
      </trkpt>
      <trkpt lat="45.871238820254803" lon="7.733071781694889">
        <ele>1939.8099999999999</ele>
        <time>2023-10-08T13:56:17Z</time>
      </trkpt>
      <trkpt lat="45.871201017871499" lon="7.733033057302237">
        <ele>1937.4100000000001</ele>
        <time>2023-10-08T13:56:24Z</time>
      </trkpt>
      <trkpt lat="45.871151397004724" lon="7.733013108372688">
        <ele>1936.3499999999999</ele>
        <time>2023-10-08T13:56:28Z</time>
      </trkpt>
      <trkpt lat="45.871057854965329" lon="7.73294085636735">
        <ele>1933.03</ele>
        <time>2023-10-08T13:56:41Z</time>
      </trkpt>
      <trkpt lat="45.870984513312578" lon="7.732879165560007">
        <ele>1930.22</ele>
        <time>2023-10-08T13:56:53Z</time>
      </trkpt>
      <trkpt lat="45.870920978486538" lon="7.732882937416434">
        <ele>1928.8900000000001</ele>
        <time>2023-10-08T13:57:08Z</time>
      </trkpt>
      <trkpt lat="45.870825508609414" lon="7.732813032343984">
        <ele>1925.77</ele>
        <time>2023-10-08T13:57:22Z</time>
      </trkpt>
      <trkpt lat="45.870744036510587" lon="7.732778079807758">
        <ele>1923.04</ele>
        <time>2023-10-08T13:57:33Z</time>
      </trkpt>
      <trkpt lat="45.870671449229121" lon="7.732732817530632">
        <ele>1919.5799999999999</ele>
        <time>2023-10-08T13:57:48Z</time>
      </trkpt>
      <trkpt lat="45.870666336268187" lon="7.732725609093905">
        <ele>1919.28</ele>
        <time>2023-10-08T13:57:49Z</time>
      </trkpt>
      <trkpt lat="45.870630796998739" lon="7.732690991833806">
        <ele>1917.78</ele>
        <time>2023-10-08T13:57:54Z</time>
      </trkpt>
      <trkpt lat="45.870546223595738" lon="7.732652854174376">
        <ele>1915.8299999999999</ele>
        <time>2023-10-08T13:58:05Z</time>
      </trkpt>
      <trkpt lat="45.870474558323622" lon="7.73262376897037">
        <ele>1913.71</ele>
        <time>2023-10-08T13:58:13Z</time>
      </trkpt>
      <trkpt lat="45.87042317725718" lon="7.732593677937985">
        <ele>1912.6099999999999</ele>
        <time>2023-10-08T13:58:18Z</time>
      </trkpt>
      <trkpt lat="45.870280433446169" lon="7.732571214437485">
        <ele>1910.55</ele>
        <time>2023-10-08T13:58:31Z</time>
      </trkpt>
      <trkpt lat="45.870169876143336" lon="7.732493095099926">
        <ele>1908.1400000000001</ele>
        <time>2023-10-08T13:58:44Z</time>
      </trkpt>
      <trkpt lat="45.870058732107282" lon="7.732383627444506">
        <ele>1905.21</ele>
        <time>2023-10-08T13:58:57Z</time>
      </trkpt>
      <trkpt lat="45.870022103190422" lon="7.732240548357368">
        <ele>1902.6600000000001</ele>
        <time>2023-10-08T13:59:10Z</time>
      </trkpt>
      <trkpt lat="45.869975918903947" lon="7.732180617749691">
        <ele>1901.6300000000001</ele>
        <time>2023-10-08T13:59:26Z</time>
      </trkpt>
      <trkpt lat="45.86997214704752" lon="7.732171313837171">
        <ele>1901.4200000000001</ele>
        <time>2023-10-08T13:59:41Z</time>
      </trkpt>
      <trkpt lat="45.86994431912899" lon="7.732178270816803">
        <ele>1901.47</ele>
        <time>2023-10-08T13:59:55Z</time>
      </trkpt>
      <trkpt lat="45.869900230318308" lon="7.732166452333331">
        <ele>1901.01</ele>
        <time>2023-10-08T14:00:06Z</time>
      </trkpt>
      <trkpt lat="45.869873072952032" lon="7.732183467596769">
        <ele>1900.49</ele>
        <time>2023-10-08T14:00:14Z</time>
      </trkpt>
      <trkpt lat="45.869768299162388" lon="7.732266867533326">
        <ele>1899.1500000000001</ele>
        <time>2023-10-08T14:00:26Z</time>
      </trkpt>
      <trkpt lat="45.869724797084928" lon="7.732291677966714">
        <ele>1898.49</ele>
        <time>2023-10-08T14:00:31Z</time>
      </trkpt>
      <trkpt lat="45.869694035500288" lon="7.732296204194427">
        <ele>1898.1500000000001</ele>
        <time>2023-10-08T14:00:34Z</time>
      </trkpt>
      <trkpt lat="45.869617676362395" lon="7.732376335188747">
        <ele>1897.0599999999999</ele>
        <time>2023-10-08T14:00:44Z</time>
      </trkpt>
      <trkpt lat="45.869595296680927" lon="7.732607172802091">
        <ele>1895.4000000000001</ele>
        <time>2023-10-08T14:01:01Z</time>
      </trkpt>
      <trkpt lat="45.869622537866235" lon="7.732778498902917">
        <ele>1893.72</ele>
        <time>2023-10-08T14:01:13Z</time>
      </trkpt>
      <trkpt lat="45.869649611413479" lon="7.732989303767681">
        <ele>1892.02</ele>
        <time>2023-10-08T14:01:28Z</time>
      </trkpt>
      <trkpt lat="45.869626477360725" lon="7.733089299872518">
        <ele>1891.4300000000001</ele>
        <time>2023-10-08T14:01:42Z</time>
      </trkpt>
      <trkpt lat="45.869550202041864" lon="7.733142944052815">
        <ele>1890.25</ele>
        <time>2023-10-08T14:01:55Z</time>
      </trkpt>
      <trkpt lat="45.869423300027847" lon="7.733110589906573">
        <ele>1888.3599999999999</ele>
        <time>2023-10-08T14:02:08Z</time>
      </trkpt>
      <trkpt lat="45.869399579241872" lon="7.733112182468176">
        <ele>1888.1500000000001</ele>
        <time>2023-10-08T14:02:10Z</time>
      </trkpt>
      <trkpt lat="45.869307043030858" lon="7.733149901032448">
        <ele>1886.8699999999999</ele>
        <time>2023-10-08T14:02:22Z</time>
      </trkpt>
      <trkpt lat="45.869208471849561" lon="7.733190385624766">
        <ele>1883.98</ele>
        <time>2023-10-08T14:02:35Z</time>
      </trkpt>
      <trkpt lat="45.869216769933701" lon="7.733070608228445">
        <ele>1882.9300000000001</ele>
        <time>2023-10-08T14:02:47Z</time>
      </trkpt>
      <trkpt lat="45.8692064601928" lon="7.732987124472857">
        <ele>1881.6500000000001</ele>
        <time>2023-10-08T14:02:59Z</time>
      </trkpt>
      <trkpt lat="45.869216350838542" lon="7.732957536354661">
        <ele>1881.5</ele>
        <time>2023-10-08T14:03:01Z</time>
      </trkpt>
      <trkpt lat="45.869225822389126" lon="7.732839267700911">
        <ele>1880.3900000000001</ele>
        <time>2023-10-08T14:03:12Z</time>
      </trkpt>
      <trkpt lat="45.869201682507992" lon="7.732860054820776">
        <ele>1879.77</ele>
        <time>2023-10-08T14:03:35Z</time>
      </trkpt>
      <trkpt lat="45.869128424674273" lon="7.732875142246485">
        <ele>1876.96</ele>
        <time>2023-10-08T14:03:49Z</time>
      </trkpt>
      <trkpt lat="45.869076708331704" lon="7.73286759853363">
        <ele>1873.9000000000001</ele>
        <time>2023-10-08T14:04:00Z</time>
      </trkpt>
      <trkpt lat="45.868990710005164" lon="7.732861815020442">
        <ele>1870.8099999999999</ele>
        <time>2023-10-08T14:04:13Z</time>
      </trkpt>
      <trkpt lat="45.868932036682963" lon="7.732878159731627">
        <ele>1869.1900000000001</ele>
        <time>2023-10-08T14:04:20Z</time>
      </trkpt>
      <trkpt lat="45.868885181844234" lon="7.732880422845483">
        <ele>1868.0599999999999</ele>
        <time>2023-10-08T14:04:24Z</time>
      </trkpt>
      <trkpt lat="45.868813851848245" lon="7.732820324599743">
        <ele>1864.5899999999999</ele>
        <time>2023-10-08T14:04:34Z</time>
      </trkpt>
      <trkpt lat="45.868779234588146" lon="7.732827281579375">
        <ele>1862.22</ele>
        <time>2023-10-08T14:04:40Z</time>
      </trkpt>
      <trkpt lat="45.868737995624542" lon="7.732809511944652">
        <ele>1860.6400000000001</ele>
        <time>2023-10-08T14:04:44Z</time>
      </trkpt>
      <trkpt lat="45.868683094158769" lon="7.732785707339644">
        <ele>1859.28</ele>
        <time>2023-10-08T14:04:49Z</time>
      </trkpt>
      <trkpt lat="45.868568010628223" lon="7.732699122279882">
        <ele>1855.6199999999999</ele>
        <time>2023-10-08T14:05:01Z</time>
      </trkpt>
      <trkpt lat="45.868469523265958" lon="7.732640029862523">
        <ele>1853.7</ele>
        <time>2023-10-08T14:05:12Z</time>
      </trkpt>
      <trkpt lat="45.868383441120386" lon="7.732600970193744">
        <ele>1850.6600000000001</ele>
        <time>2023-10-08T14:05:21Z</time>
      </trkpt>
      <trkpt lat="45.868361396715045" lon="7.732598287984729">
        <ele>1850.02</ele>
        <time>2023-10-08T14:05:23Z</time>
      </trkpt>
      <trkpt lat="45.868294425308704" lon="7.732598707079887">
        <ele>1848.3199999999999</ele>
        <time>2023-10-08T14:05:29Z</time>
      </trkpt>
      <trkpt lat="45.868194093927741" lon="7.732603820040822">
        <ele>1844.97</ele>
        <time>2023-10-08T14:05:39Z</time>
      </trkpt>
      <trkpt lat="45.868069874122739" lon="7.732562748715282">
        <ele>1841.6099999999999</ele>
        <time>2023-10-08T14:05:50Z</time>
      </trkpt>
      <trkpt lat="45.867987899109721" lon="7.73252360522747">
        <ele>1838.55</ele>
        <time>2023-10-08T14:06:00Z</time>
      </trkpt>
      <trkpt lat="45.867972644045949" lon="7.732484713196755">
        <ele>1837.3199999999999</ele>
        <time>2023-10-08T14:06:03Z</time>
      </trkpt>
      <trkpt lat="45.867917826399207" lon="7.732454789802432">
        <ele>1836.98</ele>
        <time>2023-10-08T14:06:13Z</time>
      </trkpt>
      <trkpt lat="45.867823362350464" lon="7.732439953833818">
        <ele>1833.8599999999999</ele>
        <time>2023-10-08T14:06:25Z</time>
      </trkpt>
      <trkpt lat="45.867734178900719" lon="7.732430398464203">
        <ele>1830.5699999999999</ele>
        <time>2023-10-08T14:06:37Z</time>
      </trkpt>
      <trkpt lat="45.867698723450303" lon="7.732423776760697">
        <ele>1829.6300000000001</ele>
        <time>2023-10-08T14:06:41Z</time>
      </trkpt>
      <trkpt lat="45.867676846683025" lon="7.73240877315402">
        <ele>1829.0799999999999</ele>
        <time>2023-10-08T14:06:43Z</time>
      </trkpt>
      <trkpt lat="45.8676677942276" lon="7.732332665473223">
        <ele>1828.75</ele>
        <time>2023-10-08T14:06:53Z</time>
      </trkpt>
      <trkpt lat="45.867605516687036" lon="7.732313806191087">
        <ele>1825.73</ele>
        <time>2023-10-08T14:07:03Z</time>
      </trkpt>
      <trkpt lat="45.867596296593547" lon="7.732308944687247">
        <ele>1825.3699999999999</ele>
        <time>2023-10-08T14:07:04Z</time>
      </trkpt>
      <trkpt lat="45.867533264681697" lon="7.732290085405111">
        <ele>1822.96</ele>
        <time>2023-10-08T14:07:09Z</time>
      </trkpt>
      <trkpt lat="45.867492696270347" lon="7.732305089011788">
        <ele>1821</ele>
        <time>2023-10-08T14:07:13Z</time>
      </trkpt>
      <trkpt lat="45.867395717650652" lon="7.732323193922639">
        <ele>1817.53</ele>
        <time>2023-10-08T14:07:22Z</time>
      </trkpt>
      <trkpt lat="45.867252638563514" lon="7.73238287307322">
        <ele>1814.24</ele>
        <time>2023-10-08T14:07:34Z</time>
      </trkpt>
      <trkpt lat="45.867236880585551" lon="7.732394859194756">
        <ele>1814.26</ele>
        <time>2023-10-08T14:07:37Z</time>
      </trkpt>
      <trkpt lat="45.867172423750162" lon="7.732396954670548">
        <ele>1812.4400000000001</ele>
        <time>2023-10-08T14:07:42Z</time>
      </trkpt>
      <trkpt lat="45.867090448737144" lon="7.732409359887242">
        <ele>1808.5999999999999</ele>
        <time>2023-10-08T14:07:48Z</time>
      </trkpt>
      <trkpt lat="45.867011239752173" lon="7.732435679063201">
        <ele>1805.53</ele>
        <time>2023-10-08T14:07:54Z</time>
      </trkpt>
      <trkpt lat="45.86688157171011" lon="7.732480354607105">
        <ele>1802.79</ele>
        <time>2023-10-08T14:08:05Z</time>
      </trkpt>
      <trkpt lat="45.866756848990917" lon="7.732451604679227">
        <ele>1800.45</ele>
        <time>2023-10-08T14:08:16Z</time>
      </trkpt>
      <trkpt lat="45.866743521764874" lon="7.732429895550013">
        <ele>1800.49</ele>
        <time>2023-10-08T14:08:28Z</time>
      </trkpt>
      <trkpt lat="45.866731954738498" lon="7.732372982427478">
        <ele>1800.8199999999999</ele>
        <time>2023-10-08T14:08:46Z</time>
      </trkpt>
      <trkpt lat="45.8667266741395" lon="7.732360744848847">
        <ele>1800.4400000000001</ele>
        <time>2023-10-08T14:08:47Z</time>
      </trkpt>
      <trkpt lat="45.866713849827647" lon="7.732324032112956">
        <ele>1800.22</ele>
        <time>2023-10-08T14:08:52Z</time>
      </trkpt>
      <trkpt lat="45.866700522601604" lon="7.732200482860208">
        <ele>1799.8900000000001</ele>
        <time>2023-10-08T14:09:15Z</time>
      </trkpt>
      <trkpt lat="45.86666414514184" lon="7.732148682698607">
        <ele>1797.3199999999999</ele>
        <time>2023-10-08T14:09:24Z</time>
      </trkpt>
      <trkpt lat="45.866634305566549" lon="7.732142312452197">
        <ele>1795.6300000000001</ele>
        <time>2023-10-08T14:09:27Z</time>
      </trkpt>
      <trkpt lat="45.866603879258037" lon="7.732145246118307">
        <ele>1794.8199999999999</ele>
        <time>2023-10-08T14:09:30Z</time>
      </trkpt>
      <trkpt lat="45.866572111845016" lon="7.732140719890595">
        <ele>1793.9400000000001</ele>
        <time>2023-10-08T14:09:33Z</time>
      </trkpt>
      <trkpt lat="45.866543697193265" lon="7.732045836746693">
        <ele>1790.6099999999999</ele>
        <time>2023-10-08T14:09:42Z</time>
      </trkpt>
      <trkpt lat="45.866537829861045" lon="7.732006525620818">
        <ele>1789.52</ele>
        <time>2023-10-08T14:09:45Z</time>
      </trkpt>
      <trkpt lat="45.866539673879743" lon="7.731941062957048">
        <ele>1788.48</ele>
        <time>2023-10-08T14:09:49Z</time>
      </trkpt>
      <trkpt lat="45.86649508215487" lon="7.731865122914314">
        <ele>1787.0699999999999</ele>
        <time>2023-10-08T14:09:55Z</time>
      </trkpt>
      <trkpt lat="45.866475300863385" lon="7.731786081567407">
        <ele>1783.9100000000001</ele>
        <time>2023-10-08T14:10:06Z</time>
      </trkpt>
      <trkpt lat="45.866421489045024" lon="7.731810724362731">
        <ele>1782.53</ele>
        <time>2023-10-08T14:10:19Z</time>
      </trkpt>
      <trkpt lat="45.866413526237011" lon="7.731812316924334">
        <ele>1782.2</ele>
        <time>2023-10-08T14:10:20Z</time>
      </trkpt>
      <trkpt lat="45.866369437426329" lon="7.731805443763733">
        <ele>1780.74</ele>
        <time>2023-10-08T14:10:24Z</time>
      </trkpt>
      <trkpt lat="45.866299951449037" lon="7.73182530887425">
        <ele>1780.25</ele>
        <time>2023-10-08T14:10:30Z</time>
      </trkpt>
      <trkpt lat="45.866259383037686" lon="7.731845509260893">
        <ele>1779.04</ele>
        <time>2023-10-08T14:11:01Z</time>
      </trkpt>
      <trkpt lat="45.866287210956216" lon="7.731878198683262">
        <ele>1778.3099999999999</ele>
        <time>2023-10-08T14:11:43Z</time>
      </trkpt>
      <trkpt lat="45.866227280348539" lon="7.731909966096282">
        <ele>1777.72</ele>
        <time>2023-10-08T14:11:48Z</time>
      </trkpt>
      <trkpt lat="45.866199200972915" lon="7.73191181011498">
        <ele>1777.5799999999999</ele>
        <time>2023-10-08T14:11:50Z</time>
      </trkpt>
      <trkpt lat="45.866077747195959" lon="7.731977105140686">
        <ele>1776.1600000000001</ele>
        <time>2023-10-08T14:12:01Z</time>
      </trkpt>
      <trkpt lat="45.866011278703809" lon="7.731996048241854">
        <ele>1775.0999999999999</ele>
        <time>2023-10-08T14:12:07Z</time>
      </trkpt>
      <trkpt lat="45.865959981456399" lon="7.732006190344691">
        <ele>1774.0799999999999</ele>
        <time>2023-10-08T14:12:12Z</time>
      </trkpt>
      <trkpt lat="45.865935087203979" lon="7.73202664218843">
        <ele>1773.3099999999999</ele>
        <time>2023-10-08T14:12:15Z</time>
      </trkpt>
      <trkpt lat="45.865816818550229" lon="7.732140049338341">
        <ele>1771.21</ele>
        <time>2023-10-08T14:12:27Z</time>
      </trkpt>
      <trkpt lat="45.865740962326527" lon="7.73217516951263">
        <ele>1769.54</ele>
        <time>2023-10-08T14:12:34Z</time>
      </trkpt>
      <trkpt lat="45.865738363936543" lon="7.732122112065554">
        <ele>1768.3599999999999</ele>
        <time>2023-10-08T14:12:45Z</time>
      </trkpt>
      <trkpt lat="45.865750014781952" lon="7.732097469270229">
        <ele>1767.96</ele>
        <time>2023-10-08T14:12:47Z</time>
      </trkpt>
      <trkpt lat="45.865773316472769" lon="7.732045333832502">
        <ele>1767.49</ele>
        <time>2023-10-08T14:12:51Z</time>
      </trkpt>
      <trkpt lat="45.865791421383619" lon="7.732010465115309">
        <ele>1767.1800000000001</ele>
        <time>2023-10-08T14:12:54Z</time>
      </trkpt>
      <trkpt lat="45.865845149382949" lon="7.731874762102962">
        <ele>1765.74</ele>
        <time>2023-10-08T14:13:04Z</time>
      </trkpt>
      <trkpt lat="45.86589016020298" lon="7.731814999133349">
        <ele>1764.9400000000001</ele>
        <time>2023-10-08T14:13:09Z</time>
      </trkpt>
      <trkpt lat="45.865947073325515" lon="7.731608217582107">
        <ele>1763.8599999999999</ele>
        <time>2023-10-08T14:13:21Z</time>
      </trkpt>
      <trkpt lat="45.865999795496464" lon="7.731446446850896">
        <ele>1762.8900000000001</ele>
        <time>2023-10-08T14:13:31Z</time>
      </trkpt>
      <trkpt lat="45.866043549031019" lon="7.731293812394142">
        <ele>1761.73</ele>
        <time>2023-10-08T14:13:42Z</time>
      </trkpt>
      <trkpt lat="45.865987641736865" lon="7.731087366119027">
        <ele>1760.28</ele>
        <time>2023-10-08T14:13:54Z</time>
      </trkpt>
      <trkpt lat="45.865968363359571" lon="7.731042439118028">
        <ele>1759.53</ele>
        <time>2023-10-08T14:13:57Z</time>
      </trkpt>
      <trkpt lat="45.865888986736536" lon="7.730832891538739">
        <ele>1757.3599999999999</ele>
        <time>2023-10-08T14:14:12Z</time>
      </trkpt>
      <trkpt lat="45.865807430818677" lon="7.730633988976479">
        <ele>1754.6199999999999</ele>
        <time>2023-10-08T14:14:27Z</time>
      </trkpt>
      <trkpt lat="45.865775411948562" lon="7.730584954842925">
        <ele>1754.02</ele>
        <time>2023-10-08T14:14:31Z</time>
      </trkpt>
      <trkpt lat="45.865753619000316" lon="7.730548745021224">
        <ele>1753.4300000000001</ele>
        <time>2023-10-08T14:14:34Z</time>
      </trkpt>
      <trkpt lat="45.865691928192973" lon="7.730410527437925">
        <ele>1753.45</ele>
        <time>2023-10-08T14:14:44Z</time>
      </trkpt>
      <trkpt lat="45.865676170215011" lon="7.730357721447945">
        <ele>1753.01</ele>
        <time>2023-10-08T14:14:48Z</time>
      </trkpt>
      <trkpt lat="45.865669967606664" lon="7.730139624327421">
        <ele>1752.1400000000001</ele>
        <time>2023-10-08T14:15:00Z</time>
      </trkpt>
      <trkpt lat="45.865659490227699" lon="7.729958072304726">
        <ele>1751.6700000000001</ele>
        <time>2023-10-08T14:15:11Z</time>
      </trkpt>
      <trkpt lat="45.86564926430583" lon="7.72977258078754">
        <ele>1751.8699999999999</ele>
        <time>2023-10-08T14:15:23Z</time>
      </trkpt>
      <trkpt lat="45.865628561004996" lon="7.72959865629673">
        <ele>1751.3099999999999</ele>
        <time>2023-10-08T14:15:33Z</time>
      </trkpt>
      <trkpt lat="45.86563996039331" lon="7.729434370994568">
        <ele>1750.5</ele>
        <time>2023-10-08T14:15:43Z</time>
      </trkpt>
      <trkpt lat="45.865663764998317" lon="7.729327585548163">
        <ele>1749.29</ele>
        <time>2023-10-08T14:15:50Z</time>
      </trkpt>
      <trkpt lat="45.865666782483459" lon="7.729300344362855">
        <ele>1749.02</ele>
        <time>2023-10-08T14:15:52Z</time>
      </trkpt>
      <trkpt lat="45.865667201578617" lon="7.729276036843658">
        <ele>1748.6199999999999</ele>
        <time>2023-10-08T14:15:54Z</time>
      </trkpt>
      <trkpt lat="45.865569887682796" lon="7.729258351027966">
        <ele>1746.48</ele>
        <time>2023-10-08T14:16:04Z</time>
      </trkpt>
      <trkpt lat="45.865531163290143" lon="7.729308474808931">
        <ele>1745.6600000000001</ele>
        <time>2023-10-08T14:16:09Z</time>
      </trkpt>
      <trkpt lat="45.865505766123533" lon="7.729319790378213">
        <ele>1745.6400000000001</ele>
        <time>2023-10-08T14:16:13Z</time>
      </trkpt>
      <trkpt lat="45.865414654836059" lon="7.729376871138811">
        <ele>1744.8399999999999</ele>
        <time>2023-10-08T14:16:22Z</time>
      </trkpt>
      <trkpt lat="45.865398477762938" lon="7.729397574439645">
        <ele>1744.5599999999999</ele>
        <time>2023-10-08T14:16:24Z</time>
      </trkpt>
      <trkpt lat="45.86531893350184" lon="7.729461528360844">
        <ele>1743.3900000000001</ele>
        <time>2023-10-08T14:16:35Z</time>
      </trkpt>
      <trkpt lat="45.865317676216364" lon="7.729465384036303">
        <ele>1743.3599999999999</ele>
        <time>2023-10-08T14:16:36Z</time>
      </trkpt>
      <trkpt lat="45.86530183441937" lon="7.729482566937804">
        <ele>1743.3499999999999</ele>
        <time>2023-10-08T14:16:38Z</time>
      </trkpt>
      <trkpt lat="45.865249531343579" lon="7.729512909427285">
        <ele>1742.3099999999999</ele>
        <time>2023-10-08T14:16:43Z</time>
      </trkpt>
      <trkpt lat="45.865235114470124" lon="7.72954048588872">
        <ele>1742.1099999999999</ele>
        <time>2023-10-08T14:16:45Z</time>
      </trkpt>
      <trkpt lat="45.8651655446738" lon="7.729641320183873">
        <ele>1740.6099999999999</ele>
        <time>2023-10-08T14:16:55Z</time>
      </trkpt>
      <trkpt lat="45.86509614251554" lon="7.729777609929442">
        <ele>1738.3199999999999</ele>
        <time>2023-10-08T14:17:06Z</time>
      </trkpt>
      <trkpt lat="45.865056160837412" lon="7.729886826127768">
        <ele>1736.52</ele>
        <time>2023-10-08T14:17:15Z</time>
      </trkpt>
      <trkpt lat="45.864973599091172" lon="7.730042561888695">
        <ele>1733.97</ele>
        <time>2023-10-08T14:17:28Z</time>
      </trkpt>
      <trkpt lat="45.864913165569305" lon="7.730127302929759">
        <ele>1732.4400000000001</ele>
        <time>2023-10-08T14:17:35Z</time>
      </trkpt>
      <trkpt lat="45.864826077595353" lon="7.730216151103377">
        <ele>1730.3599999999999</ele>
        <time>2023-10-08T14:17:46Z</time>
      </trkpt>
      <trkpt lat="45.864797998219728" lon="7.730249175801873">
        <ele>1730.05</ele>
        <time>2023-10-08T14:17:49Z</time>
      </trkpt>
      <trkpt lat="45.864790203049779" lon="7.73026417940855">
        <ele>1729.79</ele>
        <time>2023-10-08T14:17:50Z</time>
      </trkpt>
      <trkpt lat="45.864780815318227" lon="7.730272561311722">
        <ele>1729.45</ele>
        <time>2023-10-08T14:17:51Z</time>
      </trkpt>
      <trkpt lat="45.864747706800699" lon="7.73028907366097">
        <ele>1729.0599999999999</ele>
        <time>2023-10-08T14:17:54Z</time>
      </trkpt>
      <trkpt lat="45.864738654345274" lon="7.730293851345778">
        <ele>1728.8</ele>
        <time>2023-10-08T14:17:55Z</time>
      </trkpt>
      <trkpt lat="45.864728344604373" lon="7.730300975963473">
        <ele>1728.6400000000001</ele>
        <time>2023-10-08T14:17:56Z</time>
      </trkpt>
      <trkpt lat="45.864714682102203" lon="7.730306088924408">
        <ele>1728.54</ele>
        <time>2023-10-08T14:17:57Z</time>
      </trkpt>
      <trkpt lat="45.864703534170985" lon="7.730315141379833">
        <ele>1728.3900000000001</ele>
        <time>2023-10-08T14:17:58Z</time>
      </trkpt>
      <trkpt lat="45.864599430933595" lon="7.730394098907709">
        <ele>1726.8800000000001</ele>
        <time>2023-10-08T14:18:08Z</time>
      </trkpt>
      <trkpt lat="45.864589288830757" lon="7.730399630963802">
        <ele>1726.8099999999999</ele>
        <time>2023-10-08T14:18:09Z</time>
      </trkpt>
      <trkpt lat="45.864578811451793" lon="7.730402899906039">
        <ele>1726.7</ele>
        <time>2023-10-08T14:18:10Z</time>
      </trkpt>
      <trkpt lat="45.864546289667487" lon="7.730405917391181">
        <ele>1726.4000000000001</ele>
        <time>2023-10-08T14:18:13Z</time>
      </trkpt>
      <trkpt lat="45.86453472264111" lon="7.730403989553452">
        <ele>1726.45</ele>
        <time>2023-10-08T14:18:14Z</time>
      </trkpt>
      <trkpt lat="45.86441058665514" lon="7.730391165241599">
        <ele>1724.1600000000001</ele>
        <time>2023-10-08T14:18:26Z</time>
      </trkpt>
      <trkpt lat="45.864382172003388" lon="7.730389656499028">
        <ele>1723.79</ele>
        <time>2023-10-08T14:18:29Z</time>
      </trkpt>
      <trkpt lat="45.864371694624424" lon="7.730387896299362">
        <ele>1723.45</ele>
        <time>2023-10-08T14:18:30Z</time>
      </trkpt>
      <trkpt lat="45.864326851442456" lon="7.730382364243269">
        <ele>1722.6199999999999</ele>
        <time>2023-10-08T14:18:34Z</time>
      </trkpt>
      <trkpt lat="45.864315954968333" lon="7.730386136099696">
        <ele>1722.51</ele>
        <time>2023-10-08T14:18:35Z</time>
      </trkpt>
      <trkpt lat="45.864247139543295" lon="7.730380771681666">
        <ele>1721.6500000000001</ele>
        <time>2023-10-08T14:18:41Z</time>
      </trkpt>
      <trkpt lat="45.864192573353648" lon="7.73037850856781">
        <ele>1720.6800000000001</ele>
        <time>2023-10-08T14:18:47Z</time>
      </trkpt>
      <trkpt lat="45.864161811769009" lon="7.730371803045273">
        <ele>1720.4400000000001</ele>
        <time>2023-10-08T14:18:50Z</time>
      </trkpt>
      <trkpt lat="45.864151250571012" lon="7.730370713397861">
        <ele>1720.3299999999999</ele>
        <time>2023-10-08T14:18:51Z</time>
      </trkpt>
      <trkpt lat="45.864138593897223" lon="7.73036727681756">
        <ele>1720.1800000000001</ele>
        <time>2023-10-08T14:18:52Z</time>
      </trkpt>
      <trkpt lat="45.864056451246142" lon="7.730363169685006">
        <ele>1719.1300000000001</ele>
        <time>2023-10-08T14:19:00Z</time>
      </trkpt>
      <trkpt lat="45.863943127915263" lon="7.730366019532085">
        <ele>1717.76</ele>
        <time>2023-10-08T14:19:11Z</time>
      </trkpt>
      <trkpt lat="45.863921418786049" lon="7.730364762246609">
        <ele>1717.5999999999999</ele>
        <time>2023-10-08T14:19:13Z</time>
      </trkpt>
      <trkpt lat="45.863910354673862" lon="7.730368785560131">
        <ele>1717.4400000000001</ele>
        <time>2023-10-08T14:19:14Z</time>
      </trkpt>
      <trkpt lat="45.863886717706919" lon="7.730375239625573">
        <ele>1717.1600000000001</ele>
        <time>2023-10-08T14:19:16Z</time>
      </trkpt>
      <trkpt lat="45.863865511491895" lon="7.730374904349446">
        <ele>1716.78</ele>
        <time>2023-10-08T14:19:18Z</time>
      </trkpt>
      <trkpt lat="45.863847490400076" lon="7.730376329272986">
        <ele>1716.8</ele>
        <time>2023-10-08T14:19:25Z</time>
      </trkpt>
      <trkpt lat="45.863812202587724" lon="7.730410695075989">
        <ele>1716.27</ele>
        <time>2023-10-08T14:19:31Z</time>
      </trkpt>
      <trkpt lat="45.863801222294569" lon="7.73041564039886">
        <ele>1716.1099999999999</ele>
        <time>2023-10-08T14:19:32Z</time>
      </trkpt>
      <trkpt lat="45.863791331648827" lon="7.730422345921397">
        <ele>1715.8</ele>
        <time>2023-10-08T14:19:33Z</time>
      </trkpt>
      <trkpt lat="45.863715643063188" lon="7.730465931817889">
        <ele>1715.0899999999999</ele>
        <time>2023-10-08T14:19:41Z</time>
      </trkpt>
      <trkpt lat="45.863666860386729" lon="7.73050650022924">
        <ele>1714.51</ele>
        <time>2023-10-08T14:19:53Z</time>
      </trkpt>
      <trkpt lat="45.863656383007765" lon="7.730514463037252">
        <ele>1714.4200000000001</ele>
        <time>2023-10-08T14:20:12Z</time>
      </trkpt>
      <trkpt lat="45.863626375794411" lon="7.730532987043262">
        <ele>1714.3099999999999</ele>
        <time>2023-10-08T14:20:18Z</time>
      </trkpt>
      <trkpt lat="45.863611372187734" lon="7.730543967336416">
        <ele>1714.3699999999999</ele>
        <time>2023-10-08T14:20:20Z</time>
      </trkpt>
      <trkpt lat="45.863601481541991" lon="7.730551175773144">
        <ele>1714.27</ele>
        <time>2023-10-08T14:20:21Z</time>
      </trkpt>
      <trkpt lat="45.863582035526633" lon="7.730560563504696">
        <ele>1714.3499999999999</ele>
        <time>2023-10-08T14:20:23Z</time>
      </trkpt>
      <trkpt lat="45.863571558147669" lon="7.730564754456282">
        <ele>1714.46</ele>
        <time>2023-10-08T14:20:24Z</time>
      </trkpt>
      <trkpt lat="45.863560074940324" lon="7.73057104088366">
        <ele>1714.46</ele>
        <time>2023-10-08T14:20:25Z</time>
      </trkpt>
      <trkpt lat="45.863405764102936" lon="7.730537680909038">
        <ele>1713.25</ele>
        <time>2023-10-08T14:20:39Z</time>
      </trkpt>
      <trkpt lat="45.863262936472893" lon="7.730435924604535">
        <ele>1711.73</ele>
        <time>2023-10-08T14:20:54Z</time>
      </trkpt>
      <trkpt lat="45.863148272037506" lon="7.730320505797863">
        <ele>1710.5599999999999</ele>
        <time>2023-10-08T14:21:08Z</time>
      </trkpt>
      <trkpt lat="45.863073254004121" lon="7.730239620432258">
        <ele>1709.6500000000001</ele>
        <time>2023-10-08T14:21:21Z</time>
      </trkpt>
      <trkpt lat="45.863065458834171" lon="7.73023727349937">
        <ele>1709.53</ele>
        <time>2023-10-08T14:21:44Z</time>
      </trkpt>
      <trkpt lat="45.862986082211137" lon="7.73024121299386">
        <ele>1708.9100000000001</ele>
        <time>2023-10-08T14:21:58Z</time>
      </trkpt>
      <trkpt lat="45.862977365031838" lon="7.730247750878334">
        <ele>1708.6600000000001</ele>
        <time>2023-10-08T14:21:59Z</time>
      </trkpt>
      <trkpt lat="45.862901005893946" lon="7.730264766141772">
        <ele>1708.4000000000001</ele>
        <time>2023-10-08T14:22:08Z</time>
      </trkpt>
      <trkpt lat="45.86289145052433" lon="7.730259317904711">
        <ele>1708.4000000000001</ele>
        <time>2023-10-08T14:22:09Z</time>
      </trkpt>
      <trkpt lat="45.86285725235939" lon="7.730285050347447">
        <ele>1707.76</ele>
        <time>2023-10-08T14:22:56Z</time>
      </trkpt>
      <trkpt lat="45.862848116084933" lon="7.730289660394192">
        <ele>1707.6700000000001</ele>
        <time>2023-10-08T14:22:57Z</time>
      </trkpt>
      <trkpt lat="45.862794304266572" lon="7.730391081422567">
        <ele>1706.27</ele>
        <time>2023-10-08T14:23:07Z</time>
      </trkpt>
      <trkpt lat="45.862789526581764" lon="7.73040927015245">
        <ele>1706.3</ele>
        <time>2023-10-08T14:23:08Z</time>
      </trkpt>
      <trkpt lat="45.862787514925003" lon="7.730420334264636">
        <ele>1706.22</ele>
        <time>2023-10-08T14:23:09Z</time>
      </trkpt>
      <trkpt lat="45.862784245982766" lon="7.730432320386171">
        <ele>1706.3800000000001</ele>
        <time>2023-10-08T14:23:10Z</time>
      </trkpt>
      <trkpt lat="45.86274535395205" lon="7.730438942089677">
        <ele>1706.03</ele>
        <time>2023-10-08T14:23:22Z</time>
      </trkpt>
      <trkpt lat="45.86273361928761" lon="7.730441205203533">
        <ele>1705.8800000000001</ele>
        <time>2023-10-08T14:23:23Z</time>
      </trkpt>
      <trkpt lat="45.862613590434194" lon="7.730463668704033">
        <ele>1705.2</ele>
        <time>2023-10-08T14:23:35Z</time>
      </trkpt>
      <trkpt lat="45.862492639571428" lon="7.730564000084996">
        <ele>1704.4300000000001</ele>
        <time>2023-10-08T14:23:49Z</time>
      </trkpt>
      <trkpt lat="45.862483168020844" lon="7.7305724658072">
        <ele>1704.3499999999999</ele>
        <time>2023-10-08T14:23:50Z</time>
      </trkpt>
      <trkpt lat="45.862472523003817" lon="7.730581350624561">
        <ele>1704.29</ele>
        <time>2023-10-08T14:23:51Z</time>
      </trkpt>
      <trkpt lat="45.862464476376772" lon="7.730592163279653">
        <ele>1704.1300000000001</ele>
        <time>2023-10-08T14:23:52Z</time>
      </trkpt>
      <trkpt lat="45.86245508864522" lon="7.730601048097014">
        <ele>1704.25</ele>
        <time>2023-10-08T14:23:53Z</time>
      </trkpt>
      <trkpt lat="45.862445114180446" lon="7.730608340352774">
        <ele>1704.2</ele>
        <time>2023-10-08T14:23:54Z</time>
      </trkpt>
      <trkpt lat="45.862435223534703" lon="7.730615129694343">
        <ele>1704.01</ele>
        <time>2023-10-08T14:23:55Z</time>
      </trkpt>
      <trkpt lat="45.862281247973442" lon="7.730741696432233">
        <ele>1703.78</ele>
        <time>2023-10-08T14:24:10Z</time>
      </trkpt>
      <trkpt lat="45.862066755071282" lon="7.730813194066286">
        <ele>1703.0799999999999</ele>
        <time>2023-10-08T14:24:28Z</time>
      </trkpt>
      <trkpt lat="45.861904565244913" lon="7.730850912630558">
        <ele>1702.6900000000001</ele>
        <time>2023-10-08T14:24:42Z</time>
      </trkpt>
      <trkpt lat="45.861789733171463" lon="7.7308608032763">
        <ele>1702.6099999999999</ele>
        <time>2023-10-08T14:24:52Z</time>
      </trkpt>
      <trkpt lat="45.861680265516043" lon="7.730888882651925">
        <ele>1702.5599999999999</ele>
        <time>2023-10-08T14:25:02Z</time>
      </trkpt>
      <trkpt lat="45.86156920529902" lon="7.730965660884976">
        <ele>1702.0699999999999</ele>
        <time>2023-10-08T14:25:13Z</time>
      </trkpt>
      <trkpt lat="45.861561745405197" lon="7.73097756318748">
        <ele>1701.9400000000001</ele>
        <time>2023-10-08T14:25:14Z</time>
      </trkpt>
      <trkpt lat="45.861551687121391" lon="7.7309868671">
        <ele>1701.9400000000001</ele>
        <time>2023-10-08T14:25:15Z</time>
      </trkpt>
      <trkpt lat="45.861539617180824" lon="7.730992985889316">
        <ele>1701.71</ele>
        <time>2023-10-08T14:25:16Z</time>
      </trkpt>
      <trkpt lat="45.861527128145099" lon="7.73100052960217">
        <ele>1701.77</ele>
        <time>2023-10-08T14:25:17Z</time>
      </trkpt>
      <trkpt lat="45.861445991322398" lon="7.73106406442821">
        <ele>1700.72</ele>
        <time>2023-10-08T14:25:26Z</time>
      </trkpt>
      <trkpt lat="45.861364183947444" lon="7.73112315684557">
        <ele>1699.97</ele>
        <time>2023-10-08T14:25:35Z</time>
      </trkpt>
      <trkpt lat="45.861350521445274" lon="7.731127263978124">
        <ele>1699.8599999999999</ele>
        <time>2023-10-08T14:25:36Z</time>
      </trkpt>
      <trkpt lat="45.861224457621574" lon="7.731150146573782">
        <ele>1699.1600000000001</ele>
        <time>2023-10-08T14:25:46Z</time>
      </trkpt>
      <trkpt lat="45.861080037429929" lon="7.731128353625536">
        <ele>1697.97</ele>
        <time>2023-10-08T14:25:56Z</time>
      </trkpt>
      <trkpt lat="45.860966043546796" lon="7.73111586458981">
        <ele>1696.96</ele>
        <time>2023-10-08T14:26:05Z</time>
      </trkpt>
      <trkpt lat="45.86084458976984" lon="7.731119720265269">
        <ele>1695.77</ele>
        <time>2023-10-08T14:26:14Z</time>
      </trkpt>
      <trkpt lat="45.860743839293718" lon="7.731172442436218">
        <ele>1694.7</ele>
        <time>2023-10-08T14:26:23Z</time>
      </trkpt>
      <trkpt lat="45.860600173473358" lon="7.731244023889303">
        <ele>1693.1099999999999</ele>
        <time>2023-10-08T14:26:34Z</time>
      </trkpt>
      <trkpt lat="45.860547702759504" lon="7.731246873736382">
        <ele>1692.53</ele>
        <time>2023-10-08T14:26:38Z</time>
      </trkpt>
      <trkpt lat="45.860535465180874" lon="7.731251316145062">
        <ele>1692.52</ele>
        <time>2023-10-08T14:26:39Z</time>
      </trkpt>
      <trkpt lat="45.86039062589407" lon="7.731345864012837">
        <ele>1690.1500000000001</ele>
        <time>2023-10-08T14:26:52Z</time>
      </trkpt>
      <trkpt lat="45.860276715829968" lon="7.731413757428527">
        <ele>1688.22</ele>
        <time>2023-10-08T14:27:02Z</time>
      </trkpt>
      <trkpt lat="45.860214438289404" lon="7.731447033584118">
        <ele>1687.1400000000001</ele>
        <time>2023-10-08T14:27:08Z</time>
      </trkpt>
      <trkpt lat="45.860201362520456" lon="7.731446949765086">
        <ele>1687.0699999999999</ele>
        <time>2023-10-08T14:27:09Z</time>
      </trkpt>
      <trkpt lat="45.860188622027636" lon="7.731449380517006">
        <ele>1686.8199999999999</ele>
        <time>2023-10-08T14:27:10Z</time>
      </trkpt>
      <trkpt lat="45.860177390277386" lon="7.731453822925687">
        <ele>1686.6700000000001</ele>
        <time>2023-10-08T14:27:11Z</time>
      </trkpt>
      <trkpt lat="45.860072113573551" lon="7.731458768248558">
        <ele>1685.28</ele>
        <time>2023-10-08T14:27:20Z</time>
      </trkpt>
      <trkpt lat="45.860041854903102" lon="7.731452481821179">
        <ele>1684.73</ele>
        <time>2023-10-08T14:27:23Z</time>
      </trkpt>
      <trkpt lat="45.860028862953186" lon="7.731447201222181">
        <ele>1684.5599999999999</ele>
        <time>2023-10-08T14:27:24Z</time>
      </trkpt>
      <trkpt lat="45.860014529898763" lon="7.731444770470262">
        <ele>1684.46</ele>
        <time>2023-10-08T14:27:25Z</time>
      </trkpt>
      <trkpt lat="45.860001370310783" lon="7.731441585347056">
        <ele>1684.3800000000001</ele>
        <time>2023-10-08T14:27:26Z</time>
      </trkpt>
      <trkpt lat="45.859992485493422" lon="7.731435801833868">
        <ele>1684.0599999999999</ele>
        <time>2023-10-08T14:27:27Z</time>
      </trkpt>
      <trkpt lat="45.859981924295425" lon="7.731431694701314">
        <ele>1683.8800000000001</ele>
        <time>2023-10-08T14:27:28Z</time>
      </trkpt>
      <trkpt lat="45.859968261793256" lon="7.73143102414906">
        <ele>1683.78</ele>
        <time>2023-10-08T14:27:29Z</time>
      </trkpt>
      <trkpt lat="45.859952419996262" lon="7.731426246464253">
        <ele>1683.5</ele>
        <time>2023-10-08T14:27:30Z</time>
      </trkpt>
      <trkpt lat="45.859938757494092" lon="7.73141928948462">
        <ele>1683.3800000000001</ele>
        <time>2023-10-08T14:27:31Z</time>
      </trkpt>
      <trkpt lat="45.859917886555195" lon="7.731403196230531">
        <ele>1683</ele>
        <time>2023-10-08T14:27:33Z</time>
      </trkpt>
      <trkpt lat="45.859904140233994" lon="7.731399172917008">
        <ele>1682.9200000000001</ele>
        <time>2023-10-08T14:27:34Z</time>
      </trkpt>
      <trkpt lat="45.859889723360538" lon="7.731395903974772">
        <ele>1682.77</ele>
        <time>2023-10-08T14:27:35Z</time>
      </trkpt>
      <trkpt lat="45.859876899048686" lon="7.731385594233871">
        <ele>1682.6099999999999</ele>
        <time>2023-10-08T14:27:36Z</time>
      </trkpt>
      <trkpt lat="45.859867176041007" lon="7.731373524293304">
        <ele>1682.51</ele>
        <time>2023-10-08T14:27:37Z</time>
      </trkpt>
      <trkpt lat="45.859856531023979" lon="7.731366315856576">
        <ele>1682.27</ele>
        <time>2023-10-08T14:27:38Z</time>
      </trkpt>
      <trkpt lat="45.859843119978905" lon="7.731365142390132">
        <ele>1682.0799999999999</ele>
        <time>2023-10-08T14:27:39Z</time>
      </trkpt>
      <trkpt lat="45.859830211848021" lon="7.731366651132703">
        <ele>1682</ele>
        <time>2023-10-08T14:27:40Z</time>
      </trkpt>
      <trkpt lat="45.8598209079355" lon="7.731361286714673">
        <ele>1681.96</ele>
        <time>2023-10-08T14:27:41Z</time>
      </trkpt>
      <trkpt lat="45.859810179099441" lon="7.731352066621184">
        <ele>1681.72</ele>
        <time>2023-10-08T14:27:42Z</time>
      </trkpt>
      <trkpt lat="45.85979551076889" lon="7.731344690546393">
        <ele>1681.73</ele>
        <time>2023-10-08T14:27:43Z</time>
      </trkpt>
      <trkpt lat="45.859781010076404" lon="7.731337063014507">
        <ele>1681.51</ele>
        <time>2023-10-08T14:27:44Z</time>
      </trkpt>
      <trkpt lat="45.859769526869059" lon="7.731324657797813">
        <ele>1681.51</ele>
        <time>2023-10-08T14:27:45Z</time>
      </trkpt>
      <trkpt lat="45.859761564061046" lon="7.731309738010168">
        <ele>1681.28</ele>
        <time>2023-10-08T14:27:46Z</time>
      </trkpt>
      <trkpt lat="45.859752343967557" lon="7.731297751888633">
        <ele>1681.01</ele>
        <time>2023-10-08T14:27:47Z</time>
      </trkpt>
      <trkpt lat="45.859739603474736" lon="7.731290627270937">
        <ele>1681</ele>
        <time>2023-10-08T14:27:48Z</time>
      </trkpt>
      <trkpt lat="45.859727533534169" lon="7.731285346671939">
        <ele>1680.79</ele>
        <time>2023-10-08T14:27:49Z</time>
      </trkpt>
      <trkpt lat="45.859719486907125" lon="7.731276629492641">
        <ele>1680.73</ele>
        <time>2023-10-08T14:27:50Z</time>
      </trkpt>
      <trkpt lat="45.859712865203619" lon="7.731265062466264">
        <ele>1680.5</ele>
        <time>2023-10-08T14:27:51Z</time>
      </trkpt>
      <trkpt lat="45.859704064205289" lon="7.731255842372775">
        <ele>1680.3900000000001</ele>
        <time>2023-10-08T14:27:52Z</time>
      </trkpt>
      <trkpt lat="45.85966014303267" lon="7.731204628944397">
        <ele>1679.48</ele>
        <time>2023-10-08T14:27:57Z</time>
      </trkpt>
      <trkpt lat="45.859650168567896" lon="7.731197504326701">
        <ele>1679.3099999999999</ele>
        <time>2023-10-08T14:27:58Z</time>
      </trkpt>
      <trkpt lat="45.8596396073699" lon="7.731189457699657">
        <ele>1679.24</ele>
        <time>2023-10-08T14:27:59Z</time>
      </trkpt>
      <trkpt lat="45.859631728380919" lon="7.731178728863597">
        <ele>1679.21</ele>
        <time>2023-10-08T14:28:00Z</time>
      </trkpt>
      <trkpt lat="45.859555201604962" lon="7.731110583990812">
        <ele>1677.7</ele>
        <time>2023-10-08T14:28:09Z</time>
      </trkpt>
      <trkpt lat="45.85954774171114" lon="7.73109583184123">
        <ele>1677.5</ele>
        <time>2023-10-08T14:28:10Z</time>
      </trkpt>
      <trkpt lat="45.859540365636349" lon="7.731080995872617">
        <ele>1677.3499999999999</ele>
        <time>2023-10-08T14:28:11Z</time>
      </trkpt>
      <trkpt lat="45.859531313180923" lon="7.731069261208177">
        <ele>1677.25</ele>
        <time>2023-10-08T14:28:12Z</time>
      </trkpt>
      <trkpt lat="45.859521087259054" lon="7.731057945638895">
        <ele>1677.0999999999999</ele>
        <time>2023-10-08T14:28:13Z</time>
      </trkpt>
      <trkpt lat="45.859511364251375" lon="7.73104696534574">
        <ele>1676.9300000000001</ele>
        <time>2023-10-08T14:28:14Z</time>
      </trkpt>
      <trkpt lat="45.859496612101793" lon="7.731024334207177">
        <ele>1676.76</ele>
        <time>2023-10-08T14:28:16Z</time>
      </trkpt>
      <trkpt lat="45.859488230198622" lon="7.731014359742403">
        <ele>1676.6600000000001</ele>
        <time>2023-10-08T14:28:17Z</time>
      </trkpt>
      <trkpt lat="45.859477585181594" lon="7.731009917333722">
        <ele>1676.45</ele>
        <time>2023-10-08T14:28:18Z</time>
      </trkpt>
      <trkpt lat="45.85946761071682" lon="7.731004385277629">
        <ele>1676.3299999999999</ele>
        <time>2023-10-08T14:28:19Z</time>
      </trkpt>
      <trkpt lat="45.859459480270743" lon="7.730994578450918">
        <ele>1676.3800000000001</ele>
        <time>2023-10-08T14:28:20Z</time>
      </trkpt>
      <trkpt lat="45.859451601281762" lon="7.730982340872288">
        <ele>1676.1199999999999</ele>
        <time>2023-10-08T14:28:21Z</time>
      </trkpt>
      <trkpt lat="45.859433747828007" lon="7.730968007817864">
        <ele>1676.02</ele>
        <time>2023-10-08T14:28:23Z</time>
      </trkpt>
      <trkpt lat="45.859422851353884" lon="7.730961386114359">
        <ele>1675.6400000000001</ele>
        <time>2023-10-08T14:28:24Z</time>
      </trkpt>
      <trkpt lat="45.859368285164237" lon="7.730893157422543">
        <ele>1674.95</ele>
        <time>2023-10-08T14:28:31Z</time>
      </trkpt>
      <trkpt lat="45.859359567984939" lon="7.730881087481976">
        <ele>1674.8199999999999</ele>
        <time>2023-10-08T14:28:32Z</time>
      </trkpt>
      <trkpt lat="45.859349509701133" lon="7.730876728892326">
        <ele>1674.74</ele>
        <time>2023-10-08T14:28:33Z</time>
      </trkpt>
      <trkpt lat="45.859338948503137" lon="7.730871196836233">
        <ele>1674.4200000000001</ele>
        <time>2023-10-08T14:28:34Z</time>
      </trkpt>
      <trkpt lat="45.859330482780933" lon="7.73085443302989">
        <ele>1674.4200000000001</ele>
        <time>2023-10-08T14:28:35Z</time>
      </trkpt>
      <trkpt lat="45.859323525801301" lon="7.730835741385818">
        <ele>1674.4000000000001</ele>
        <time>2023-10-08T14:28:36Z</time>
      </trkpt>
      <trkpt lat="45.859306594356894" lon="7.730820905417204">
        <ele>1674.1600000000001</ele>
        <time>2023-10-08T14:28:38Z</time>
      </trkpt>
      <trkpt lat="45.859296703711152" lon="7.7308090031147">
        <ele>1674.02</ele>
        <time>2023-10-08T14:28:39Z</time>
      </trkpt>
      <trkpt lat="45.859290584921837" lon="7.730794250965118">
        <ele>1673.8699999999999</ele>
        <time>2023-10-08T14:28:40Z</time>
      </trkpt>
      <trkpt lat="45.859287232160568" lon="7.730779079720378">
        <ele>1673.71</ele>
        <time>2023-10-08T14:28:41Z</time>
      </trkpt>
      <trkpt lat="45.859258314594626" lon="7.730677658692002">
        <ele>1673.4100000000001</ele>
        <time>2023-10-08T14:28:50Z</time>
      </trkpt>
    </trkseg>
  </trk>

</gpx>